[[{"header":{"parameterUnit":"m.s-1","parameterCategory":1,"la1":30.6,"la2":28.766,"lo1":-90.7593,"lo2":-88.6598,"dy":0.0162,"dx":0.0183,"nx":116,"ny":114,"refTime":"2024-02-10T06:00:00:Z","depth":0,"parameterNumber":2,"parameterNumberName":"U-component_of_WINDS"},"data":[0.0,0.0,0.0,0.0,0.0,0.0,0.0,0.0,0.0,0.0,0.0,0.0,0.0,0.0,0.0,0.0,0.0,0.0,0.0,0.0,0.0,0.0,0.0,0.0,0.0,0.0,0.0,0.0,0.0,0.0,0.0,0.0,0.0,0.0,0.0,0.0,0.0,0.0,0.0,0.0,0.0,0.0,0.0,0.0,0.0,0.0,0.0,0.0,0.0,0.0,0.0,0.0,0.0,0.0,0.0,0.0,0.0,0.0,0.0,0.0,0.0,0.0,0.0,0.0,0.0,0.0,0.0,0.0,0.0,0.0,0.0,0.0,0.0,0.0,0.0,0.0,0.0,0.0,0.0,0.0,0.0,0.0,0.0,0.0,0.0,0.0,0.0,0.0,0.0,0.0,0.0,0.0,0.0,0.0,0.0,0.0,0.0,0.0,0.0,0.0,0.0,0.0,0.0,0.0,0.0,0.0,0.0,0.0,0.0,0.0,0.0,0.0,0.0,0.0,0.0,0.0,0.0,0.0,0.0,0.0,0.0,0.0,0.0,0.0,0.0,0.0,0.0,0.0,0.0,0.0,0.0,0.0,0.0,0.0,0.0,0.0,0.0,0.0,0.0,0.0,0.0,0.0,0.0,0.0,0.0,0.0,0.0,0.0,0.0,0.0,0.0,0.0,0.0,0.0,0.0,0.0,0.0,0.0,0.0,0.0,0.0,0.0,0.0,0.0,0.0,0.0,0.0,0.0,0.0,0.0,0.0,0.0,0.0,0.0,0.0,0.0,0.0,0.0,0.0,0.0,0.0,0.0,0.0,0.0,0.0,0.0,0.0,0.0,0.0,0.0,0.0,0.0,0.0,0.0,0.0,0.0,0.0,0.0,0.0,0.0,0.0,0.0,0.0,0.0,0.0,0.0,0.0,0.0,0.0,0.0,0.0,0.0,0.0,0.0,0.0,0.0,0.0,0.0,0.0,0.0,0.0,0.0,0.0,0.0,0.0,0.0,0.0,0.0,0.0,0.0,0.0,0.0,0.0,0.0,0.0,0.0,0.0,0.0,0.0,0.0,0.0,0.0,0.0,0.0,0.0,0.0,0.0,0.0,0.0,0.0,0.0,0.0,0.0,0.0,0.0,0.0,0.0,0.0,0.0,0.0,0.0,0.0,0.0,0.0,0.0,0.0,0.0,0.0,0.0,0.0,0.0,0.0,0.0,0.0,0.0,0.0,0.0,0.0,0.0,0.0,0.0,0.0,0.0,0.0,0.0,0.0,0.0,0.0,0.0,0.0,0.0,0.0,0.0,0.0,0.0,0.0,0.0,0.0,0.0,0.0,0.0,0.0,0.0,0.0,0.0,0.0,0.0,0.0,0.0,0.0,0.0,0.0,0.0,0.0,0.0,0.0,0.0,0.0,0.0,0.0,0.0,0.0,0.0,0.0,0.0,0.0,0.0,0.0,0.0,0.0,0.0,0.0,0.0,0.0,0.0,0.0,0.0,0.0,0.0,0.0,0.0,0.0,0.0,0.0,0.0,0.0,0.0,0.0,0.0,0.0,0.0,0.0,0.0,0.0,0.0,0.0,0.0,0.0,0.0,0.0,0.0,0.0,0.0,0.0,0.0,0.0,0.0,0.0,0.0,0.0,0.0,0.0,0.0,0.0,0.0,0.0,0.0,0.0,0.0,0.0,0.0,0.0,0.0,0.0,0.0,0.0,0.0,0.0,0.0,0.0,0.0,0.0,0.0,0.0,0.0,0.0,0.0,0.0,0.0,0.0,0.0,0.0,0.0,0.0,0.0,0.0,0.0,0.0,0.0,0.0,0.0,0.0,0.0,0.0,0.0,0.0,0.0,0.0,0.0,0.0,0.0,0.0,0.0,0.0,0.0,0.0,0.0,0.0,0.0,0.0,0.0,0.0,0.0,0.0,0.0,0.0,0.0,0.0,0.0,0.0,0.0,0.0,0.0,0.0,0.0,0.0,0.0,0.0,0.0,0.0,0.0,0.0,0.0,0.0,0.0,0.0,0.0,0.0,0.0,0.0,0.0,0.0,0.0,0.0,0.0,0.0,0.0,0.0,0.0,0.0,0.0,0.0,0.0,0.0,0.0,0.0,0.0,0.0,0.0,0.0,0.0,0.0,0.0,0.0,0.0,0.0,0.0,0.0,0.0,0.0,0.0,0.0,0.0,0.0,0.0,0.0,0.0,0.0,0.0,0.0,0.0,0.0,0.0,0.0,0.0,0.0,0.0,0.0,0.0,0.0,0.0,0.0,0.0,0.0,0.0,0.0,0.0,0.0,0.0,0.0,0.0,0.0,0.0,0.0,0.0,0.0,0.0,0.0,0.0,0.0,0.0,0.0,0.0,0.0,0.0,0.0,0.0,0.0,0.0,0.0,0.0,0.0,0.0,0.0,0.0,0.0,0.0,0.0,0.0,0.0,0.0,0.0,0.0,0.0,0.0,0.0,0.0,0.0,0.0,0.0,0.0,0.0,0.0,0.0,0.0,0.0,0.0,0.0,0.0,0.0,0.0,0.0,0.0,0.0,0.0,0.0,0.0,0.0,0.0,0.0,0.0,0.0,0.0,0.0,0.0,0.0,0.0,0.0,0.0,0.0,0.0,0.0,0.0,0.0,0.0,0.0,0.0,0.0,0.0,0.0,0.0,0.0,0.0,0.0,0.0,0.0,0.0,0.0,0.0,0.0,0.0,0.0,0.0,0.0,0.0,0.0,0.0,0.0,0.0,0.0,0.0,0.0,0.0,0.0,0.0,0.0,0.0,0.0,0.0,0.0,0.0,0.0,0.0,0.0,0.0,0.0,0.0,0.0,0.0,0.0,0.0,0.0,0.0,0.0,0.0,0.0,0.0,0.0,0.0,0.0,0.0,0.0,0.0,0.0,0.0,0.0,0.0,0.0,0.0,0.0,0.0,0.0,0.0,0.0,0.0,0.0,0.0,0.0,0.0,0.0,0.0,0.0,0.0,0.0,0.0,0.0,0.0,0.0,0.0,0.0,0.0,0.0,0.0,0.0,0.0,0.0,0.0,0.0,0.0,0.0,0.0,0.0,0.0,0.0,0.0,0.0,0.0,0.0,0.0,0.0,0.0,0.0,0.0,0.0,0.0,0.0,0.0,0.0,0.0,0.0,0.0,0.0,0.0,0.0,0.0,0.0,0.0,0.0,0.0,0.0,0.0,0.0,0.0,0.0,0.0,0.0,0.0,0.0,0.0,0.0,0.0,0.0,0.0,0.0,0.0,0.0,0.0,0.0,0.0,0.0,0.0,0.0,0.0,0.0,0.0,0.0,0.0,0.0,0.0,0.0,0.0,0.0,0.0,0.0,0.0,0.0,0.0,0.0,0.0,0.0,0.0,0.0,0.0,0.0,0.0,0.0,0.0,0.0,0.0,0.0,0.0,0.0,0.0,0.0,0.0,0.0,0.0,0.0,0.0,0.0,0.0,0.0,0.0,0.0,0.0,0.0,0.0,0.0,0.0,0.0,0.0,0.0,0.0,0.0,0.0,0.0,0.0,0.0,0.0,0.0,0.0,0.0,0.0,0.0,0.0,0.0,0.0,0.0,0.0,0.0,0.0,0.0,0.0,0.0,0.0,0.0,0.0,0.0,0.0,0.0,0.0,0.0,0.0,0.0,0.0,0.0,0.0,0.0,0.0,0.0,0.0,0.0,0.0,0.0,0.0,0.0,0.0,0.0,0.0,0.0,0.0,0.0,0.0,0.0,0.0,0.0,0.0,0.0,0.0,0.0,0.0,0.0,0.0,0.0,0.0,0.0,0.0,0.0,0.0,0.0,0.0,0.0,0.0,0.0,0.0,0.0,0.0,0.0,0.0,0.0,0.0,0.0,0.0,0.0,0.0,0.0,0.0,0.0,0.0,0.0,0.0,0.0,0.0,0.0,0.0,0.0,0.0,0.0,0.0,0.0,0.0,0.0,0.0,0.0,0.0,0.0,0.0,0.0,0.0,0.0,0.0,0.0,0.0,0.0,0.0,0.0,0.0,0.0,0.0,0.0,0.0,0.0,0.0,0.0,0.0,0.0,0.0,0.0,0.0,0.0,0.0,0.0,0.0,0.0,0.0,0.0,0.0,0.0,0.0,0.0,0.0,0.0,0.0,0.0,0.0,0.0,0.0,0.0,0.0,0.0,0.0,0.0,0.0,0.0,0.0,0.0,0.0,0.0,0.0,0.0,0.0,0.0,0.0,0.0,0.0,0.0,0.0,0.0,0.0,0.0,0.0,0.0,0.0,0.0,0.0,0.0,0.0,0.0,0.0,0.0,0.0,0.0,0.0,0.0,0.0,0.0,0.0,0.0,0.0,0.0,0.0,0.0,0.0,0.0,0.0,0.0,0.0,0.0,0.0,0.0,0.0,0.0,0.0,0.0,0.0,0.0,0.0,0.0,0.0,0.0,0.0,0.0,0.0,0.0,0.0,0.0,0.0,0.0,0.0,0.0,0.0,0.0,0.0,0.0,0.0,0.0,0.0,0.0,0.0,0.0,0.0,0.0,0.0,0.0,0.0,0.0,0.0,0.0,0.0,0.0,0.0,0.0,0.0,0.0,0.0,0.0,0.0,0.0,0.0,0.0,0.0,0.0,0.0,0.0,0.0,0.0,0.0,0.0,0.0,0.0,0.0,0.0,0.0,0.0,0.0,0.0,0.0,0.0,0.0,0.0,0.0,0.0,0.0,0.0,0.0,0.0,0.0,0.0,0.0,0.0,0.0,0.0,0.0,0.0,0.0,0.0,0.0,0.0,0.0,0.0,0.0,0.0,0.0,0.0,0.0,0.0,0.0,0.0,0.0,0.0,0.0,0.0,0.0,0.0,0.0,0.0,0.0,0.0,0.0,0.0,0.0,0.0,0.0,0.0,0.0,0.0,0.0,0.0,0.0,0.0,0.0,0.0,0.0,0.0,0.0,0.0,0.0,0.0,0.0,0.0,0.0,0.0,0.0,0.0,0.0,0.0,0.0,0.0,0.0,0.0,0.0,0.0,0.0,0.0,0.0,0.0,0.0,0.0,0.0,0.0,0.0,0.0,0.0,0.0,0.0,0.0,0.0,0.0,0.0,0.0,0.0,0.0,0.0,0.0,0.0,0.0,0.0,0.0,0.0,0.0,0.0,0.0,0.0,0.0,0.0,0.0,0.0,0.0,0.0,0.0,0.0,0.0,0.0,0.0,0.0,0.0,0.0,0.0,0.0,0.0,0.0,0.0,0.0,0.0,0.0,0.0,0.0,0.0,0.0,0.0,0.0,0.0,0.0,0.0,0.0,0.0,0.0,0.0,0.0,0.0,0.0,0.0,0.0,0.0,0.0,0.0,0.0,0.0,0.0,0.0,0.0,0.0,0.0,0.0,0.0,0.0,0.0,0.0,0.0,0.0,0.0,0.0,0.0,0.0,0.0,0.0,0.0,0.0,0.0,0.0,0.0,0.0,0.0,0.0,0.0,0.0,0.0,0.0,0.0,0.0,0.0,0.0,0.0,0.0,0.0,0.0,0.0,0.0,0.0,0.0,0.0,0.0,0.0,0.0,0.0,0.0,0.0,0.0,0.0,0.0,0.0,0.0,0.0,0.0,0.0,0.0,0.0,0.0,0.0,0.0,0.0,0.0,0.0,0.0,0.0,0.0,0.0,0.0,0.0,0.0,0.0,0.0,0.0,0.0,0.0,0.0,0.0,0.0,0.0,0.0,0.0,0.0,0.0,0.0,0.0,0.0,0.0,0.0,0.0,0.0,0.0,0.0,0.0,0.0,0.0,0.0,0.0,0.0,0.0,0.0,0.0,0.0,0.0,0.0,0.0,0.0,0.0,0.0,0.0,0.0,0.0,0.0,0.0,0.0,0.0,0.0,0.0,0.0,0.0,0.0,0.0,0.0,0.0,0.0,0.0,0.0,0.0,0.0,0.0,0.0,0.0,0.0,0.0,0.0,0.0,0.0,0.0,0.0,0.0,0.0,0.0,0.0,0.0,0.0,0.0,0.0,0.0,0.0,0.0,0.0,0.0,0.0,0.0,0.0,0.0,0.0,0.0,0.0,0.0,0.0,0.0,0.0,0.0,0.0,0.0,0.0,0.0,0.0,0.0,0.0,-3.9496,-4.0825,0.0,0.0,0.0,0.0,0.0,0.0,0.0,0.0,0.0,0.0,0.0,0.0,0.0,0.0,0.0,0.0,0.0,0.0,0.0,0.0,0.0,0.0,0.0,0.0,0.0,0.0,0.0,0.0,0.0,0.0,0.0,0.0,0.0,0.0,-4.8906,-4.8906,-4.9336,-5.0195,-5.0625,-5.0391,-4.9531,-5.043,-5.082,-5.0859,0.0,0.0,0.0,0.0,0.0,0.0,0.0,0.0,0.0,0.0,0.0,0.0,0.0,0.0,0.0,0.0,0.0,0.0,0.0,0.0,0.0,0.0,0.0,0.0,0.0,0.0,0.0,0.0,0.0,0.0,0.0,0.0,0.0,0.0,0.0,0.0,0.0,0.0,0.0,0.0,0.0,0.0,0.0,0.0,0.0,0.0,0.0,0.0,0.0,0.0,0.0,0.0,0.0,0.0,0.0,0.0,0.0,0.0,0.0,0.0,0.0,0.0,0.0,0.0,0.0,0.0,0.0,0.0,0.0,0.0,-4.0861,-4.1013,0.0,0.0,0.0,0.0,0.0,0.0,0.0,0.0,0.0,0.0,0.0,0.0,0.0,0.0,0.0,0.0,0.0,0.0,0.0,0.0,0.0,0.0,0.0,-4.875,-4.8594,-4.8476,-4.8711,-4.8789,0.0,0.0,0.0,0.0,0.0,-4.8164,-4.8867,-4.9062,-4.9492,-5.0195,-5.0039,-5.0195,-5.0625,-5.0625,-5.0703,-5.0859,-5.1054,0.0,0.0,0.0,0.0,0.0,0.0,0.0,0.0,0.0,0.0,0.0,0.0,0.0,0.0,0.0,0.0,0.0,0.0,0.0,0.0,0.0,0.0,0.0,0.0,0.0,0.0,0.0,0.0,0.0,0.0,0.0,0.0,0.0,0.0,0.0,0.0,0.0,0.0,0.0,0.0,0.0,0.0,0.0,0.0,0.0,0.0,0.0,0.0,0.0,0.0,0.0,0.0,0.0,0.0,0.0,0.0,0.0,0.0,0.0,0.0,0.0,0.0,0.0,-4.0729,-4.0689,-4.1609,-4.1212,-4.1993,-4.3669,-4.3155,-4.2099,-4.0914,-4.2466,0.0,0.0,0.0,0.0,0.0,0.0,0.0,0.0,0.0,0.0,0.0,0.0,0.0,0.0,0.0,0.0,0.0,0.0,0.0,0.0,0.0,-4.8203,-4.7461,-4.6719,-4.8047,-4.8242,-4.6758,-4.8047,-4.8203,-4.6719,-4.7969,-4.8789,-4.8906,-4.9648,-5.0078,-5.0195,-4.9453,-5.0195,-5.2383,-5.2383,-5.2773,-5.3398,-5.1196,-5.1042,-5.2344,0.0,0.0,0.0,0.0,0.0,0.0,0.0,0.0,0.0,0.0,0.0,0.0,0.0,0.0,0.0,0.0,0.0,0.0,0.0,0.0,0.0,0.0,0.0,0.0,0.0,0.0,0.0,0.0,0.0,0.0,0.0,0.0,0.0,0.0,0.0,0.0,0.0,0.0,0.0,0.0,0.0,-3.8888,-3.9059,0.0,0.0,0.0,0.0,0.0,0.0,0.0,0.0,0.0,0.0,0.0,0.0,0.0,-4.2326,-4.1777,-4.2856,-4.2938,-4.1994,-4.2938,-4.3067,-4.2508,-4.3772,-4.443,-4.4578,-4.5167,0.0,-4.4262,-4.2255,0.0,0.0,0.0,0.0,0.0,0.0,0.0,0.0,0.0,0.0,0.0,0.0,0.0,0.0,0.0,0.0,0.0,0.0,0.0,0.0,0.0,-4.8281,-4.8164,-4.7773,-5.0664,-5.1133,-4.7969,-4.9805,-4.9609,-4.6445,-4.75,-4.8398,-4.8906,-4.9258,-4.9922,-5.0859,-5.1484,-5.2344,-5.3437,-5.3437,-5.3359,-5.3203,-5.2012,-5.1613,-5.1782,-5.0043,0.0,0.0,0.0,0.0,0.0,0.0,0.0,0.0,0.0,0.0,0.0,0.0,0.0,0.0,0.0,0.0,0.0,0.0,0.0,0.0,0.0,0.0,0.0,0.0,0.0,0.0,0.0,0.0,0.0,0.0,0.0,0.0,0.0,0.0,0.0,0.0,0.0,0.0,0.0,-4.0084,-4.0561,-4.0104,-4.1772,-4.2506,0.0,0.0,0.0,0.0,0.0,0.0,0.0,0.0,0.0,-4.111,-4.2056,-4.2427,-4.2219,-4.3142,-4.3534,-4.3465,-4.3975,-4.4237,-4.4178,-4.4471,-4.5194,-4.6122,-4.5621,-4.5717,-4.6059,-4.397,-4.2158,-4.076,0.0,0.0,0.0,0.0,-4.1487,-4.1813,0.0,0.0,0.0,0.0,0.0,0.0,0.0,0.0,0.0,0.0,0.0,0.0,-4.8906,-4.9297,-4.9726,-5.0156,-5.2734,-5.3047,-5.0078,-5.0625,-4.9844,-4.7109,-4.7578,-4.8242,-4.8906,-4.9531,-5.0703,-5.2383,-5.3906,-5.4765,-5.5,-5.5234,-5.4883,-5.4023,-5.3925,-5.3316,-5.214,-5.0252,-4.9352,-4.9063,0.0,0.0,0.0,0.0,0.0,0.0,0.0,0.0,0.0,0.0,0.0,0.0,0.0,0.0,0.0,0.0,0.0,0.0,0.0,0.0,0.0,0.0,0.0,0.0,0.0,0.0,0.0,0.0,0.0,0.0,0.0,0.0,0.0,0.0,0.0,0.0,0.0,-4.0084,-4.0928,-4.0508,-4.2103,-4.2873,0.0,0.0,0.0,0.0,0.0,0.0,-4.3044,-4.2255,-4.1832,-4.1986,-4.2945,-4.342,-4.342,-4.4113,-4.4803,-4.5431,-4.5142,-4.5381,-4.5943,-4.5243,-4.5894,-4.7526,-4.6198,-4.6114,-4.6779,-4.5315,-4.3141,-4.0851,-4.1648,-4.1338,-4.0529,-4.1323,-4.1651,-4.1742,0.0,0.0,0.0,0.0,0.0,0.0,0.0,0.0,0.0,0.0,0.0,-4.9805,-5.2187,-5.1758,-5.1953,-5.3594,-5.2422,-5.1875,-5.2461,-4.8828,-4.7266,-4.8711,-4.8828,-4.8867,-4.8906,-5.1289,-5.3359,-5.5117,-5.6015,-5.6875,-5.7734,-5.8555,-5.8476,-5.7617,-5.7512,-5.6509,-5.4627,-5.0381,-4.9487,-5.0741,-4.8241,0.0,0.0,0.0,0.0,0.0,0.0,0.0,0.0,0.0,0.0,0.0,0.0,0.0,0.0,0.0,0.0,0.0,0.0,0.0,0.0,0.0,0.0,0.0,0.0,0.0,0.0,0.0,0.0,0.0,0.0,0.0,0.0,0.0,0.0,0.0,0.0,0.0,0.0,-3.8726,-4.0928,0.0,0.0,0.0,0.0,-4.3404,-4.2739,-4.3006,-4.4527,-4.4233,-4.4327,-4.4952,-4.5965,-4.649,-4.649,-4.7218,-4.76,-4.7615,-4.6988,-4.7016,-4.7561,-4.6819,-4.7181,-4.8409,-4.7601,-4.6922,-4.6266,-4.515,-4.46,-4.4381,-4.3683,-4.3353,-4.3225,-4.2509,-4.2252,-4.2142,0.0,0.0,0.0,0.0,0.0,0.0,0.0,0.0,-5.1406,-5.1406,-5.1367,-5.1914,-5.3398,-5.4765,-5.6055,-5.7226,-5.7773,-5.7226,-5.5312,-5.2734,-5.1016,-5.0547,-5.0,-5.0508,-5.2148,-5.3086,-5.4687,-5.6953,-5.8359,-5.8945,-5.875,-5.9062,-5.8437,-5.707,-5.7028,-5.6565,-5.5589,-5.2236,-5.017,-4.8948,-4.646,-4.5648,0.0,0.0,0.0,0.0,0.0,0.0,0.0,0.0,0.0,0.0,0.0,0.0,0.0,0.0,0.0,0.0,0.0,0.0,0.0,0.0,0.0,0.0,0.0,0.0,0.0,0.0,0.0,0.0,0.0,0.0,0.0,0.0,0.0,0.0,0.0,0.0,0.0,-4.3057,-4.4562,0.0,-4.5718,-4.5076,-4.5186,-4.6507,-4.5084,-4.5064,-4.7114,-4.6776,-4.7044,-4.8254,-4.8645,-4.9046,-4.9538,-4.9699,-4.9841,-4.9934,-4.9151,-4.8916,-4.9145,-4.7975,-4.7877,-4.8591,-4.7855,-4.7557,-4.7541,-4.7166,-4.5673,-4.3616,-4.3734,-4.3204,-4.241,-4.252,-4.2559,-4.2559,0.0,0.0,0.0,0.0,0.0,0.0,0.0,0.0,-5.0547,-5.0547,-5.1797,-5.3359,-5.5117,-5.7617,-5.9648,-6.082,-6.0625,-5.9453,-5.7187,-5.3789,-5.1719,-5.1406,-5.1172,-5.2109,-5.4375,-5.5312,-5.6601,-5.8359,-5.9726,-5.9844,-5.875,-5.875,-5.8164,-5.7031,-5.7031,-5.6885,-5.6503,-5.466,-5.1982,-4.8788,-4.6592,-4.622,-4.6684,0.0,0.0,0.0,0.0,0.0,0.0,0.0,0.0,0.0,0.0,0.0,0.0,0.0,0.0,0.0,0.0,0.0,0.0,0.0,0.0,0.0,0.0,0.0,0.0,0.0,0.0,0.0,0.0,0.0,0.0,0.0,0.0,0.0,0.0,-4.1792,-4.3314,-4.5993,-4.7278,-4.8159,-4.8673,-4.8012,-4.8012,-4.9077,-4.8084,-4.8272,-5.0076,-4.9877,-5.0154,-5.1076,-5.1112,-5.1219,-5.1444,-5.1359,-5.1359,-5.1444,-5.0693,-5.033,-5.0335,-4.913,-4.8885,-4.9399,-4.8366,-4.8243,-4.871,-4.8416,-4.6584,-4.4027,-4.4403,-4.3674,-4.2406,-4.2827,-4.2995,-4.3032,0.0,0.0,0.0,0.0,0.0,0.0,0.0,-4.8906,-4.8945,-4.8945,-5.1211,-5.418,-5.7617,-6.0273,-6.25,-6.4219,-6.039,-5.789,-5.789,-5.1445,-4.875,-5.1328,-5.2266,-5.3594,-5.543,-5.789,-5.9219,-5.9297,-6.0078,-5.9609,-5.7969,-5.7969,-5.7969,-5.793,-5.793,-5.7744,-5.7453,-5.7448,-5.4936,-5.0798,-4.8933,-4.8663,-4.9125,0.0,0.0,0.0,0.0,0.0,0.0,0.0,0.0,0.0,0.0,0.0,0.0,0.0,0.0,0.0,0.0,0.0,0.0,0.0,0.0,0.0,0.0,0.0,0.0,0.0,0.0,0.0,0.0,0.0,0.0,0.0,0.0,0.0,-4.0985,-4.326,-4.5388,-4.7076,-4.871,-4.9757,-4.9794,-5.0472,-5.0912,-5.0949,-5.1696,-5.2499,-5.3219,-5.3468,-5.3518,-5.3388,-5.3351,-5.2954,-5.2172,-5.2136,-5.2136,-5.2136,-5.1444,-5.1138,-5.1102,-5.0394,-5.0352,-5.0813,-4.9298,-4.8992,-4.9537,-4.8673,-4.7352,-4.5883,-4.5883,-4.4929,-4.3515,-4.3515,-4.3515,-4.3515,0.0,0.0,0.0,0.0,0.0,0.0,-4.793,-4.9023,-4.9844,-4.9844,-5.3711,-5.7305,-5.9492,-6.2578,-6.4961,-6.6094,-6.1094,-5.789,-5.789,-5.1445,-4.9023,-5.2187,-5.3164,-5.5312,-5.8906,-5.8515,-5.914,-6.1015,-6.1211,-6.0781,-5.9726,-5.9726,-5.9414,-5.8828,-5.8828,-5.8699,-5.8464,-5.8379,-5.756,-5.5995,-5.1712,-4.974,-4.9125,0.0,0.0,0.0,0.0,0.0,0.0,0.0,0.0,0.0,0.0,0.0,0.0,0.0,0.0,0.0,0.0,0.0,0.0,0.0,0.0,0.0,0.0,0.0,0.0,0.0,0.0,0.0,0.0,0.0,0.0,0.0,-4.1295,-4.3204,-4.3627,-4.5278,-4.748,-5.0325,-5.2087,-5.3298,-5.3907,-5.3628,-5.3665,-5.4216,-5.3954,-5.4115,-5.4913,-5.4989,-5.5007,-5.4984,-5.4377,-5.3975,-5.3756,-5.3208,-5.2915,-5.2893,-5.2196,-5.1814,-5.179,-5.1104,-5.0827,-5.0849,-4.9816,-4.948,-4.9537,-4.8673,-4.7352,-4.5883,-4.5883,-4.4929,-4.3515,-4.3515,-4.3515,-4.3515,0.0,0.0,0.0,0.0,0.0,0.0,-4.707,-4.8242,-4.9101,-4.9101,-5.3906,-5.7851,-5.9219,-6.2422,-6.457,-6.4726,-6.0195,-5.7031,-5.6328,-5.2187,-5.0625,-5.2617,-5.457,-5.6953,-5.9844,-5.9648,-6.0039,-6.1172,-6.1172,-6.0703,-5.9883,-5.9883,-5.9844,-5.9687,-5.9687,-5.9602,-5.9474,-5.9732,-5.932,-5.8286,-5.5611,-5.3976,-5.2779,-4.9471,-4.9009,-4.9894,-4.8279,-4.8327,-4.8879,-4.7049,0.0,0.0,0.0,0.0,0.0,0.0,0.0,0.0,0.0,0.0,0.0,0.0,0.0,0.0,0.0,0.0,0.0,0.0,0.0,0.0,0.0,0.0,0.0,0.0,-4.315,-4.5443,-4.7462,-4.8563,-4.9994,-5.2234,-5.4216,-5.5574,-5.6051,-5.5978,-5.5941,-5.6088,-5.5978,-5.5978,-5.6088,-5.6418,-5.6455,-5.6088,-5.5317,-5.473,-5.4399,-5.3592,-5.3203,-5.3167,-5.2769,-5.2554,-5.2554,-5.2172,-5.1762,-5.134,-5.0519,-4.9945,-4.95,-4.8306,-4.7058,-4.5883,0.0,0.0,0.0,0.0,-4.3515,-4.3515,0.0,0.0,0.0,0.0,0.0,0.0,-4.6289,-4.7109,-4.7734,-4.7734,-5.2891,-5.6875,-5.7656,-6.0703,-6.2383,-6.1601,-5.8359,-5.5586,-5.3828,-5.2969,-5.2773,-5.3242,-5.6328,-5.8515,-5.9453,-6.0937,-6.1328,-6.0547,-6.0547,-6.0195,-5.9492,-5.9492,-5.9844,-6.0547,-6.0547,-6.0463,-6.0427,-6.1197,-6.0468,-5.8909,-5.9636,-5.9157,-5.7588,-5.3692,-5.3049,-5.3895,-5.1558,-5.0166,-4.927,-4.8228,0.0,0.0,0.0,0.0,0.0,0.0,0.0,0.0,0.0,0.0,0.0,0.0,0.0,0.0,0.0,0.0,0.0,0.0,0.0,0.0,0.0,0.0,0.0,0.0,-4.5095,-4.6985,-5.1499,-5.238,-5.2821,-5.3518,-5.5574,-5.6932,-5.6932,-5.7483,-5.7593,-5.6969,-5.7519,-5.7593,-5.6969,-5.7593,0.0,0.0,0.0,-5.5244,-5.4546,-5.3665,-5.3203,-5.3203,-5.3203,-5.3203,-5.3203,-5.3203,-5.2821,-5.2087,-5.1206,-5.0398,-4.961,-4.7939,-4.6709,-4.5883,-4.57,-4.4745,-4.3515,-4.3515,-4.3515,-4.3515,0.0,0.0,0.0,0.0,0.0,0.0,-4.6149,-4.7573,-4.8633,-4.8633,-5.3281,-5.664,-5.6836,-5.9297,-6.082,-6.0664,-5.6875,-5.375,-5.2031,-5.1758,-5.3203,-5.6758,-5.8203,-5.9648,-6.1172,-6.1523,-6.1601,-6.1445,-6.1445,-6.1367,-6.1211,-6.1211,-6.1289,-6.1445,-6.1445,-6.1445,-6.1403,-6.1488,-6.129,-6.0889,-6.0793,-5.8925,-5.6049,-5.4549,-5.3318,-5.2231,-5.1125,-5.1864,-5.3009,-5.0412,-5.0773,-5.1802,-4.8805,-4.7049,0.0,0.0,0.0,0.0,0.0,0.0,0.0,0.0,0.0,0.0,0.0,0.0,0.0,0.0,0.0,0.0,0.0,0.0,0.0,-4.4342,-4.7462,-5.0398,-5.2674,-5.4656,-5.5941,-5.6088,-5.7079,-5.7776,-5.7776,-5.7336,-5.7262,-5.774,-5.7299,-5.7262,-5.774,-5.7923,-5.7923,-5.7776,-5.6345,-5.5537,-5.5354,-5.3922,-5.3203,-5.3203,-5.3203,0.0,-5.3203,-5.3203,-5.3115,-5.2894,-5.1426,-5.0729,-5.0435,-4.8783,-4.7205,-4.5773,-4.4452,-4.3772,-4.3515,-4.3515,-4.3515,-4.3515,0.0,0.0,0.0,0.0,0.0,0.0,-4.6136,-4.7687,-4.8906,-4.8906,-5.2656,-5.5312,-5.5312,-5.6445,-5.7031,-5.6562,-5.418,-5.2695,-5.2695,-5.3516,-5.5351,-5.8437,-5.9336,-6.039,-6.168,-6.1719,-6.1719,-6.1719,-6.1719,-6.1719,-6.1719,-6.1719,-6.1719,-6.1719,-6.1719,-6.1719,-6.1719,-6.1633,-6.1573,-6.1491,-6.1226,-5.9528,-5.7062,-5.6564,-5.5318,-5.3703,-5.2895,-5.3003,-5.3177,-5.0858,-5.0748,-5.1185,-4.8933,-4.7586,-4.6858,0.0,0.0,0.0,0.0,0.0,0.0,0.0,0.0,0.0,0.0,0.0,0.0,0.0,0.0,-4.1434,-4.1825,0.0,-4.4892,-4.7352,-4.9481,-5.1499,-5.3518,-5.5207,-5.6345,-5.6748,-5.7519,-5.7997,-5.7997,-5.7629,-5.7556,-5.796,-5.7629,-5.7593,-5.796,-5.7997,-5.7997,-5.7997,-5.6822,-5.6014,-5.5596,-5.4399,-5.3592,-5.3203,-5.3203,-5.3203,-5.3203,-5.3203,-5.3004,-5.2564,-5.1756,-5.0949,-5.0068,-4.8379,-4.6985,-4.5773,-4.4562,-4.3864,-4.3515,-4.3515,-4.3515,-4.3515,0.0,0.0,0.0,0.0,0.0,0.0,0.0,-4.7687,-4.8906,-4.8866,-5.1718,-5.3593,-5.3241,-5.3398,-5.3086,-5.2031,-5.1601,-5.2226,-5.4141,-5.5898,-5.7773,-5.9844,-6.0703,-6.1484,-6.2187,-6.2226,-6.2226,-6.2226,-6.2226,-6.2226,-6.2226,-6.2226,-6.2226,-6.2226,-6.2226,-6.2109,-6.1953,-6.1953,-6.1791,-6.1517,-6.1383,-6.0197,-5.8537,-5.8394,-5.7142,-5.5357,-5.4549,-5.3141,-5.1556,-5.0465,-4.9619,-4.8923,-4.8274,-4.7914,-4.7659,-4.7261,-4.6394,0.0,0.0,0.0,0.0,0.0,0.0,0.0,0.0,-4.0606,-4.0935,-4.2103,-4.2816,-4.3828,-4.5773,-4.6397,-4.7535,-5.0325,-5.1059,-5.2013,-5.4106,-5.5097,-5.5831,-5.6492,-5.7409,-5.7997,-5.7997,-5.7997,-5.7997,-5.7997,-5.7997,-5.7997,-5.7997,-5.7997,-5.7997,-5.7997,-5.7226,-5.6418,-5.5633,-5.4803,-5.3995,-5.3203,-5.3203,-5.3203,-5.3203,-5.3203,-5.2858,-5.2197,-5.1903,-5.0839,-4.9243,-4.77,-4.6709,-4.6067,-4.5259,-4.4452,-4.3718,-4.3551,-4.3515,-4.3515,0.0,0.0,0.0,0.0,0.0,0.0,0.0,0.0,-4.8865,-4.8755,-5.1126,-5.2224,-5.0631,-5.1205,-5.1055,-4.9453,-5.0586,-5.2461,-5.5,-5.6797,-5.9219,-6.2422,-6.3398,-6.3906,-6.4023,-6.4023,-6.4023,-6.4023,-6.4023,-6.4023,-6.4023,-6.4023,-6.4023,-6.4023,-6.4023,-6.3594,-6.2851,-6.2851,-6.2383,-6.1678,-6.152,-6.0343,-5.8659,-5.8545,-5.6888,-5.4511,-5.3664,-5.1298,-4.873,-4.9675,-4.8997,-4.7971,-4.9288,-4.9224,-4.8548,-4.8116,-4.6855,-4.5441,-4.4662,-4.2709,-4.1152,-4.2115,-4.0994,-4.0516,0.0,0.0,-4.3551,-4.5092,-4.6012,-4.6636,-4.6929,-4.8122,-4.9481,-5.0618,-5.2013,-5.3298,-5.4252,-5.5097,-5.5633,-5.5721,-5.7079,-5.7997,-5.7997,-5.7997,-5.7997,-5.7997,-5.7997,-5.7997,-5.7997,-5.7997,-5.7997,-5.7997,-5.7226,-5.6418,-5.5633,-5.4803,-5.3995,-5.3203,-5.3203,-5.3203,-5.3203,-5.3203,-5.313,-5.3004,-5.1573,-4.9994,-4.8379,-4.748,-4.7039,-4.6892,-4.6067,-4.5259,-4.4488,-4.3754,-4.3515,-4.3515,0.0,0.0,0.0,0.0,0.0,0.0,0.0,0.0,0.0,-4.8742,-5.0233,-5.0976,-5.0188,-4.9569,-4.9101,-4.8906,-5.043,-5.2734,-5.5859,-5.8125,-6.0664,-6.3633,-6.4609,-6.5273,-6.5781,-6.582,-6.582,-6.582,-6.5312,-6.5078,-6.5039,-6.4531,-6.4297,-6.4297,-6.4297,-6.4101,-6.375,-6.375,-6.3242,-6.2422,-6.2312,-6.0864,-5.8671,-5.7552,-5.4865,-5.1757,-5.2252,-5.0894,0.0,-4.7749,-4.7466,-4.7472,-4.7454,-4.739,-4.7289,-4.7386,-4.6547,-4.521,-4.3355,-4.3162,-4.3188,-4.2096,-4.2286,-4.3211,-4.4871,-4.5228,-4.5662,-4.7003,-4.7939,-4.8783,-4.9774,-5.0508,-5.1242,0.0,-5.2763,-5.3314,-5.3665,-5.3995,-5.4032,-5.3555,-5.4509,-5.5757,-5.7189,-5.7299,-5.7483,-5.796,-5.7997,-5.7997,-5.7997,-5.7997,-5.7997,-5.7997,-5.7666,-5.6895,-5.5633,-5.5721,-5.4913,-5.3203,-5.4142,-5.4106,-5.3203,-5.3702,-5.3665,-5.313,-5.1977,-5.0839,-4.9701,-4.8857,-4.8233,-4.77,-4.6892,-4.6379,-4.5938,-4.4672,-4.3901,-4.3515,0.0,0.0,0.0,0.0,0.0,0.0,0.0,0.0,0.0,0.0,-4.9296,-4.9766,-4.9492,-4.8125,-4.75,-4.8125,-4.9961,-5.2344,-5.5312,-5.8398,-6.1328,-6.418,-6.5351,-6.6484,-6.7578,-6.7578,-6.7617,-6.7617,-6.6953,-6.664,-6.664,-6.6015,-6.5703,-6.5703,-6.5703,-6.5469,-6.5039,-6.5039,-6.4258,-6.3008,-6.2874,-6.1132,-5.8379,-5.6507,-5.3288,-4.9831,-5.061,-4.9208,-4.6848,-4.592,-4.5908,-4.6243,-4.6022,-4.633,-4.6762,-4.6868,-4.6124,-4.4825,-4.3008,-4.3508,-4.4187,-4.2717,-4.3573,-4.4966,-4.5937,-4.647,-4.7136,-4.8255,-4.9026,-4.9904,-5.1116,-5.1683,-5.2197,-5.2784,-5.3261,-5.3445,-5.3203,-5.3004,-5.2637,-5.205,-5.1903,-5.2821,-5.5244,-5.5868,-5.6565,-5.7593,-5.7666,-5.7776,-5.7997,-5.7997,-5.7997,-5.7997,-5.7997,-5.7226,-5.5611,-5.6161,-5.55,-5.3555,-5.4473,-5.4546,-5.3885,-5.4252,-5.3849,-5.2858,-5.2234,-5.1426,-5.0398,-4.9774,-4.904,-4.8233,-4.7663,-4.7296,-4.6966,-4.5792,-4.4709,-4.3791,0.0,0.0,0.0,0.0,0.0,0.0,0.0,0.0,0.0,0.0,0.0,0.0,0.0,-4.6875,-4.6367,-4.6367,-4.875,-5.0976,-5.2695,-5.6836,-6.0742,-6.414,-6.5937,-6.7617,-6.9297,-6.9336,-6.9375,-6.9414,-6.9336,-6.9297,-6.9297,-6.9258,-6.9258,-6.9258,-6.9258,-6.8359,-6.6836,-6.6836,-6.5351,-6.3008,-6.3008,-6.0889,-5.7562,-5.5801,-5.2898,-4.9663,-4.8722,-4.5201,-4.1455,-4.4537,-4.4547,-4.3654,-4.6077,-4.7385,-4.7875,-4.7115,-4.5663,-4.4316,-4.4239,-4.3085,-4.2411,-4.4454,-4.4418,-4.4597,-4.7562,-4.7927,-4.7909,-4.8712,-4.927,-4.961,-4.9647,-5.0969,-5.2013,-5.2013,-5.3335,-5.4106,-5.3314,-5.2527,-5.2013,-5.1977,-4.9884,-4.9407,0.0,-5.3555,-5.5133,-5.6712,-5.6859,-5.7189,-5.796,-5.7997,-5.7997,-5.7997,-5.7997,-5.7226,-5.5611,-5.5611,-5.5207,-5.4363,-5.3628,-5.4069,-5.55,-5.473,-5.3555,-5.2013,-5.2013,-5.1116,-4.9647,-4.961,-4.9077,-4.8306,-4.8269,-4.7773,-4.7076,-4.7039,-4.6012,-4.4562,0.0,0.0,0.0,0.0,0.0,0.0,0.0,0.0,0.0,0.0,0.0,0.0,0.0,0.0,0.0,0.0,-4.8516,-5.0273,-5.2539,-5.625,-5.9336,-6.1601,-6.5039,-6.7148,-6.7734,-6.9414,-7.0273,-7.0312,-7.0273,-7.0273,-7.0234,-6.9726,-6.9453,-6.9453,-6.9453,-6.914,-6.8476,-6.7383,-6.6055,-6.4492,-6.1601,-5.9413,-5.7455,-5.3978,-5.1199,-4.915,0.0,-4.6666,-4.4122,-4.4047,-4.4032,-4.3965,-4.3627,-4.447,-4.5547,-4.524,-4.5163,-4.494,-4.3816,-4.3893,-4.4645,-4.5947,-4.6493,-4.7152,-4.9073,-4.9351,-4.9249,-4.9235,-4.8779,-4.8393,-4.8555,-4.8678,-4.9154,-5.0453,-5.1423,-5.2307,-5.3093,-5.2968,-5.2197,-5.0602,-5.0141,0.0,0.0,0.0,0.0,-5.5097,-5.6198,-5.6932,-5.7189,-5.7703,-5.7997,-5.7997,-5.7997,-5.7483,-5.6418,-5.6932,-5.6235,-5.4378,-5.357,-5.4032,-5.5559,-5.4216,-5.3298,-5.2821,-5.2821,-5.2197,-5.1153,-5.0618,-4.9921,-4.9114,-4.8526,-4.8122,-4.781,-4.7296,-4.6746,-4.6085,0.0,0.0,0.0,0.0,0.0,0.0,0.0,0.0,0.0,0.0,0.0,0.0,0.0,0.0,0.0,0.0,0.0,-4.9726,-5.168,-5.4453,-5.707,-5.9414,-6.2187,-6.4101,-6.5039,-6.664,-6.7656,-6.7969,-6.7969,-6.8125,-6.8398,-6.8203,-6.8125,-6.8125,-6.8437,-6.8359,-6.7969,-6.6562,-6.5273,-6.3906,-6.0547,-5.8281,-5.6562,-5.2812,-5.0547,0.0,-4.8545,-4.7543,-4.632,-4.505,-4.4793,-4.4757,-4.3595,-4.3728,-4.4316,-4.4316,-4.494,-4.5441,-4.4662,-4.5432,-4.6701,-4.7586,-4.8163,-4.8769,-4.963,-4.9713,-4.9175,-4.768,-4.692,-4.6397,-4.6003,-4.578,-4.6325,-4.839,-4.9582,-5.086,-5.2532,-5.2635,-5.2106,-5.1006,-5.0582,-5.0068,0.0,0.0,0.0,-5.3885,-5.5464,-5.6492,-5.6785,-5.7556,-5.7997,-5.7997,-5.7997,-5.7593,-5.6822,-5.7299,-5.6492,-5.4414,-5.4451,-5.4583,-5.473,-5.3959,-5.3482,-5.3203,-5.3203,-5.2747,-5.194,-5.1132,-5.0325,-4.95,-4.8636,-4.8306,-4.8233,-4.77,-4.7333,-4.6892,0.0,0.0,0.0,0.0,0.0,0.0,0.0,0.0,0.0,0.0,0.0,0.0,0.0,0.0,0.0,0.0,0.0,0.0,-5.0078,-5.1758,-5.418,-5.75,-5.7812,-5.9023,-6.1406,-6.1562,-6.2031,-6.2851,-6.289,-6.3359,-6.418,-6.5,-6.539,-6.543,-6.625,-6.6172,-6.5351,-6.4414,-6.3086,-6.1406,-5.9609,-5.7422,-5.4961,-5.2344,-5.0898,-5.0039,-4.8398,-4.7734,-4.7615,-4.732,-4.6574,-4.577,-4.5693,-4.5063,-4.4355,-4.4355,-4.5009,-4.5941,-4.6778,-4.7586,-4.8394,-4.924,-4.9394,-4.9317,-4.9317,-4.8963,-4.7682,-4.4467,-4.3992,-4.364,0.0,0.0,-4.3737,-4.6009,-4.8038,-4.999,-5.1922,-5.1824,-5.1992,0.0,0.0,0.0,0.0,0.0,0.0,-5.3203,-5.4693,-5.5941,-5.6748,-5.7556,-5.7997,-5.7997,-5.7997,-5.7629,-5.6859,-5.6859,-5.6088,-5.4583,-5.6014,-5.55,-5.3371,-5.4032,-5.3922,-5.3203,-5.3203,-5.2784,-5.1977,-5.1206,-5.0398,-4.9647,-4.871,-4.8379,-4.8379,-4.8343,-4.781,-4.7039,0.0,0.0,0.0,0.0,0.0,0.0,0.0,0.0,0.0,0.0,0.0,0.0,0.0,0.0,0.0,0.0,0.0,0.0,-4.918,-5.1406,-5.3086,-5.3984,-5.6523,-5.789,-5.789,-5.9765,-6.0859,-6.1055,-6.1719,-6.2148,-6.2383,-6.2578,-6.2695,-6.2695,-6.293,-6.289,-6.2617,-6.1133,-6.0234,-5.9531,-5.5859,-5.4336,-5.4062,-5.1484,-5.0742,-5.1055,-5.0586,-4.9648,-4.8436,-4.7515,-4.6505,-4.5448,-4.4176,-4.4482,-4.5287,-4.5287,-4.6317,-4.7663,-4.8548,-4.8894,-4.9279,-5.0164,-4.9394,-4.8432,-4.8432,-4.6877,-4.5217,-4.4334,-4.2048,-4.0183,-4.0003,-4.0762,0.0,-4.5723,-4.8036,0.0,-5.4242,-5.4875,0.0,-5.4648,0.0,-5.3665,-5.2674,-5.3335,0.0,-5.4069,-5.5023,-5.5941,-5.6748,-5.7556,-5.7997,-5.7997,-5.7997,-5.7886,-5.7703,-5.7703,-5.7483,-5.7079,-5.5662,-5.5001,-5.495,-5.3959,-5.3408,-5.3203,-5.3203,-5.3078,-5.2821,-5.2013,-5.1573,-5.1263,-4.9831,-4.928,-4.9206,-4.8526,-4.8196,-4.7957,0.0,0.0,0.0,0.0,0.0,0.0,0.0,0.0,0.0,0.0,0.0,0.0,0.0,0.0,0.0,0.0,0.0,0.0,0.0,-5.0586,-5.1445,-5.1055,-5.2891,-5.3906,-5.3789,-5.4805,-5.5898,-5.7031,-5.6758,-5.7031,-5.7773,-5.8125,-5.832,-5.8359,-5.9101,-5.9453,-5.9375,-5.8047,-5.75,0.0,0.0,-5.3008,-5.3242,-5.1406,-5.1016,-5.1406,-5.1406,-5.0272,-4.8581,-4.7201,-4.6274,-4.5565,-4.4966,-4.5663,-4.6778,-4.7163,-4.8202,-4.9433,-5.0279,-5.0779,-5.1087,-5.1202,-5.024,-4.8933,-4.7817,-4.6163,-4.4355,-4.247,-4.0449,-3.8818,-3.8254,-3.8941,-4.0535,0.0,0.0,0.0,-5.3527,-5.4839,-5.5603,0.0,-5.6124,0.0,-5.4363,-5.4987,-5.5464,-5.5464,-5.5868,-5.6308,-5.6785,-5.7556,-5.7997,-5.7997,-5.7997,-5.7997,-5.7997,-5.7997,-5.7629,-5.6932,-5.5574,-5.4803,-5.4509,-5.3628,-5.3203,-5.3203,-5.3203,-5.3203,-5.3151,-5.2344,-5.1793,-5.1353,-5.0088,-4.939,-4.8967,-4.8489,-4.8306,-4.8306,0.0,0.0,0.0,0.0,0.0,0.0,0.0,0.0,0.0,0.0,0.0,0.0,0.0,0.0,0.0,0.0,0.0,0.0,0.0,0.0,-4.9726,-4.9101,-4.8945,-4.9258,-5.0,-4.9297,-5.0039,-5.2383,-5.0898,-5.1016,-5.2539,-5.3281,-5.3633,-5.3711,-5.5234,-5.5898,-5.5859,-5.5117,-5.4765,-5.4648,-5.3125,-5.2539,-5.2422,0.0,-5.1406,-5.1367,-5.1133,-4.9914,-4.8125,-4.6687,-4.6158,-4.6255,-4.6744,-4.764,-4.8632,-4.9481,-5.0433,-5.1395,-5.2202,-5.2972,-5.3318,-5.2308,-5.1279,-4.9856,-4.7317,-4.5893,-4.3978,-4.0092,-3.913,-3.8469,-3.6846,-3.7353,-3.8823,-4.1294,0.0,-4.8255,-5.2144,-5.3823,-5.5425,-5.749,-5.7339,-5.6765,-5.6,-5.6565,-5.6969,-5.6969,-5.6969,-5.6969,-5.6969,-5.7629,-5.7997,-5.7997,-5.7997,-5.7997,-5.7997,-5.7997,-5.7299,-5.5904,-5.5684,-5.4876,-5.3518,-5.3298,-5.3203,-5.3203,-5.3203,-5.3203,-5.313,-5.2454,-5.1756,-5.1059,-5.0235,-4.9444,-4.8783,-4.8563,-4.8489,-4.8453,0.0,0.0,0.0,0.0,0.0,0.0,0.0,0.0,0.0,0.0,-4.7656,-4.6289,0.0,0.0,0.0,0.0,0.0,0.0,0.0,0.0,0.0,-4.9961,-4.9297,-4.8984,-4.9101,-4.8984,-4.9453,-5.0625,-5.0351,-5.0703,-5.1641,-5.1797,-5.1836,-5.1875,-5.2187,-5.2305,-5.2305,-5.2148,-5.207,-5.2031,-5.1758,-5.1641,-5.1601,-5.1445,0.0,0.0,-4.9844,-4.8118,-4.6526,-4.621,-4.6973,-4.7908,-4.7282,-4.8614,-5.055,-5.126,-5.2587,-5.401,-5.4818,-5.5164,-5.4895,-5.3356,-5.1279,-4.8971,-4.6402,-4.4085,0.0,-3.9746,-3.8161,-3.6846,-3.5885,-3.6969,-3.9262,-4.315,-4.5559,-4.9048,-5.5274,-5.6026,-5.674,0.0,-5.865,-5.818,-5.7638,-5.7703,0.0,0.0,-5.7776,-5.7776,-5.7776,-5.7923,-5.7997,-5.7997,-5.7997,-5.7997,-5.7997,-5.7997,-5.785,-5.7556,-5.6235,-5.5471,-5.5147,-5.3797,-5.3203,-5.3203,-5.3203,-5.3203,-5.3167,-5.3078,-5.2931,-5.2711,-5.1903,-5.1499,-5.1206,-4.9867,-4.939,-4.928,0.0,0.0,0.0,0.0,0.0,0.0,0.0,-4.8437,-4.9883,-5.25,-5.2148,-5.082,-4.8555,-4.7109,-4.6641,0.0,0.0,0.0,0.0,0.0,0.0,0.0,-4.8203,-4.8203,-4.8203,-4.8203,-4.8867,-5.0195,0.0,-4.9961,-5.0781,-5.0781,-5.0781,-5.0781,-5.1211,-5.1406,-5.1406,-5.1406,-5.1172,-5.0781,-5.0781,-5.0781,-5.0781,0.0,0.0,0.0,0.0,-4.8045,-4.6945,-4.7413,-4.8066,-4.8696,-4.854,-4.9886,-5.1765,-5.2996,-5.4188,-5.5318,-5.6137,-5.6703,-5.6626,-5.4934,-5.2587,-4.9817,-4.6402,0.0,0.0,-3.8469,-3.7276,-3.6462,-3.5654,-3.6892,-3.8815,-4.1316,-4.3508,-4.6971,-5.2905,-5.4075,-5.5493,-5.8713,-5.8858,-5.8611,-5.8375,-5.8142,-5.7997,-5.7997,-5.7997,-5.7997,-5.7997,-5.7997,-5.7997,-5.7997,-5.7997,-5.7997,-5.7997,-5.7997,-5.7556,-5.6748,-5.5955,-5.517,-5.4332,-5.3555,-5.3203,-5.3203,-5.3203,-5.3203,-5.3203,-5.3203,-5.2968,-5.2527,-5.216,-5.172,-5.1279,-5.0508,-5.0215,-5.0105,0.0,0.0,0.0,0.0,0.0,0.0,0.0,-5.0391,-5.2031,-5.5664,-5.6562,-5.5469,-5.1719,-4.9141,-4.7656,0.0,0.0,0.0,0.0,0.0,0.0,0.0,0.0,0.0,0.0,0.0,0.0,-4.9922,-4.9414,0.0,0.0,0.0,0.0,0.0,-5.1133,-5.1406,-5.1406,-5.1211,-5.0781,0.0,0.0,-4.9922,0.0,0.0,0.0,0.0,0.0,0.0,-4.7422,-4.8125,-4.8476,-4.8709,-4.9178,-5.0529,-5.2259,-5.3948,-5.5034,-5.5959,-5.6994,-5.7896,-5.8127,-5.6395,-5.3933,-5.0846,-4.6778,-4.3893,0.0,-3.7692,-3.6962,-3.6731,-3.5923,-3.6692,-3.7969,-3.9585,-4.1508,-4.4662,-4.9981,-5.1825,-5.4116,-5.8068,-5.8583,0.0,-5.8696,-5.8282,0.0,-5.7997,-5.7997,-5.7997,-5.7997,-5.7997,-5.7997,-5.7997,-5.7997,-5.7997,-5.7997,-5.7997,-5.7299,-5.5845,-5.5676,-5.4833,-5.3466,-5.3298,-5.3203,-5.3203,-5.3203,-5.3203,-5.3203,-5.3203,-5.2821,-5.227,-5.227,-5.1867,-5.1279,-5.1132,-5.1059,-5.0912,0.0,0.0,0.0,0.0,0.0,0.0,0.0,-5.0976,-5.3984,-5.8281,-5.8203,-5.7031,-5.5039,-5.3203,-5.0898,0.0,0.0,0.0,0.0,0.0,0.0,0.0,0.0,0.0,0.0,0.0,0.0,-4.9023,-4.9726,0.0,0.0,0.0,0.0,0.0,0.0,-5.1406,-5.1367,-5.0625,0.0,0.0,0.0,0.0,0.0,0.0,0.0,0.0,0.0,-4.7148,-4.6445,0.0,0.0,-4.7734,-4.7772,-4.9389,-5.1561,-5.3078,0.0,0.0,-5.7758,-5.8781,-5.8973,-5.7291,-5.4357,-5.1,-4.7538,0.0,-4.2008,-3.8584,-3.7892,-3.7623,-3.6731,-3.6115,-3.7,-4.0923,-4.1769,-4.397,-4.9865,-5.2105,-5.4281,-5.7371,0.0,0.0,-5.8641,-5.8282,-5.7997,-5.7997,-5.7997,-5.7997,-5.7997,-5.7997,-5.7997,-5.7997,-5.7997,-5.7997,-5.7997,-5.7997,-5.7547,-5.6672,-5.5933,-5.514,-5.4249,-5.354,-5.3203,-5.3203,-5.3203,-5.3203,-5.3203,-5.3203,-5.3188,-5.3115,-5.3115,-5.302,-5.2894,-5.216,-5.1867,-5.1646,0.0,0.0,0.0,0.0,0.0,0.0,-5.0703,-5.1172,-5.3476,-5.9883,-6.039,-5.9922,-5.9219,-5.7148,-5.3398,-4.7344,0.0,0.0,0.0,0.0,0.0,0.0,0.0,0.0,0.0,0.0,-4.8281,-4.8125,-5.0,0.0,0.0,0.0,0.0,0.0,0.0,-5.1133,-5.0703,-5.0859,0.0,0.0,0.0,0.0,0.0,0.0,0.0,0.0,0.0,0.0,-4.6289,-4.6289,0.0,0.0,-4.6836,-4.7498,0.0,0.0,-5.3185,-5.489,-5.7052,-5.8554,-5.9204,-5.805,-5.4818,-5.1,-4.7654,0.0,-4.07,-3.7815,-3.7623,-3.7738,-3.6846,-3.6423,-3.7115,-3.9854,-3.9431,-4.0623,-4.6086,-4.7855,-5.0384,-5.5178,-5.6491,0.0,0.0,0.0,-5.8304,-5.802,-5.7556,-5.7483,-5.796,-5.7997,-5.7997,-5.7997,-5.7997,-5.7997,-5.7997,-5.7997,-5.735,-5.608,-5.5757,-5.4935,-5.3671,-5.3335,-5.3203,-5.3203,-5.3203,-5.3203,-5.3203,-5.3203,-5.3203,-5.3203,-5.3203,-5.3203,-5.3188,-5.2858,-5.2711,-5.2564,0.0,0.0,0.0,0.0,0.0,-4.7187,-5.1016,-5.1445,-5.3555,-5.9765,-6.0781,-6.1055,-6.1289,-5.8125,-5.3867,-4.8633,-4.7031,0.0,0.0,0.0,0.0,0.0,0.0,0.0,0.0,0.0,-4.8359,-4.7969,-5.0039,-5.043,0.0,0.0,-5.0273,-4.8945,0.0,0.0,0.0,0.0,0.0,0.0,0.0,0.0,0.0,0.0,0.0,0.0,0.0,0.0,0.0,0.0,0.0,0.0,0.0,0.0,-4.6835,0.0,-5.1527,-5.3235,-5.5744,-5.739,-5.8165,-5.7396,-5.4126,-5.0356,0.0,0.0,-4.0239,-3.793,-3.7969,-3.82,-3.7584,-3.7276,-3.7661,-3.9361,-3.8623,-3.9354,-4.3701,-4.5278,-4.7817,-5.2779,0.0,-5.5755,-5.8229,-5.8615,-5.8524,-5.8042,-5.7483,-5.7276,-5.762,-5.7657,-5.7753,-5.7997,-5.7997,-5.7886,-5.7657,-5.7643,-5.6859,-5.5258,-5.5244,-5.4509,-5.3203,-5.3203,-5.3203,-5.3203,-5.3203,-5.3203,-5.3203,-5.3203,-5.3203,-5.3203,-5.3203,-5.3203,-5.3203,-5.3203,-5.3203,-5.3078,0.0,0.0,0.0,0.0,0.0,0.0,-4.8555,-5.1797,-5.4922,-5.7578,-5.8672,-5.9531,-6.0312,-5.5078,-5.1797,-5.2578,-4.875,0.0,0.0,0.0,0.0,0.0,0.0,0.0,0.0,0.0,-4.8047,-4.8906,-4.9766,-5.0195,-5.0195,-5.0195,-4.9726,-4.8906,0.0,0.0,0.0,0.0,0.0,0.0,0.0,0.0,0.0,0.0,0.0,0.0,0.0,0.0,0.0,0.0,0.0,0.0,0.0,-4.6289,-4.664,-4.824,-4.9827,-5.1564,-5.3987,-5.5181,-5.5549,-5.4741,-5.1972,-4.874,0.0,-4.3624,-4.1316,-3.9623,-3.9284,-3.9284,-3.9284,-3.8584,-3.8546,-4.0208,-4.0477,-4.1362,-4.3932,-4.5778,-4.7855,0.0,0.0,-5.2589,-5.5982,-5.7783,-5.8524,-5.8042,-5.7997,-5.762,-5.6832,-5.6795,-5.7171,-5.796,-5.7997,-5.762,-5.6832,-5.6813,-5.6006,-5.4415,-5.4393,-5.3995,-5.3203,-5.3203,-5.3203,-5.3203,-5.3203,-5.3203,-5.3203,-5.3203,-5.3203,-5.3203,-5.3203,-5.3203,-5.3203,-5.3203,-5.3203,-5.3078,0.0,0.0,0.0,0.0,0.0,0.0,0.0,-4.8047,-5.0078,-5.3867,-5.4609,-5.5742,-5.8398,-5.539,-5.3047,-5.2734,-4.8789,0.0,0.0,0.0,0.0,0.0,0.0,0.0,0.0,-4.7734,-4.8633,-4.8906,-5.0312,-5.043,-4.9336,-4.9922,-4.9414,-4.8047,-4.9258,-4.9805,0.0,0.0,0.0,0.0,0.0,0.0,0.0,0.0,0.0,0.0,0.0,0.0,0.0,0.0,0.0,0.0,0.0,0.0,0.0,-4.691,-4.7708,-4.8847,-5.0781,-5.137,-5.1318,-5.1087,-4.8894,-4.6441,-4.5009,-4.2739,-4.0585,-3.9515,-3.9746,-3.9938,-3.94,-3.8584,-3.8738,-4.1008,-4.0431,-4.0554,-4.3124,0.0,0.0,-5.1087,-5.4634,-5.6911,0.0,0.0,-5.8164,-5.802,-5.7483,-5.7056,-5.6813,-5.5235,-5.5212,-5.7134,-5.6644,-5.6483,-5.6822,-5.6242,-5.5449,-5.4393,-5.4406,-5.3986,-5.3203,-5.3203,-5.3203,-5.3203,-5.3203,-5.3203,-5.3203,-5.3203,-5.3203,-5.3203,-5.3203,-5.3203,-5.3203,-5.3203,-5.3203,-5.3078,0.0,0.0,0.0,0.0,0.0,0.0,0.0,-4.6445,-4.8242,-5.0937,-5.1289,-5.2695,-5.6523,-5.3711,-5.1875,-5.2617,-4.9062,0.0,0.0,0.0,0.0,0.0,0.0,0.0,-4.6289,-4.7695,-4.8867,-4.9844,-5.1211,-5.1523,-5.0859,-5.1367,-5.0547,-4.8633,-4.9726,-5.0039,0.0,0.0,0.0,0.0,0.0,0.0,-5.0547,0.0,0.0,0.0,0.0,0.0,0.0,0.0,0.0,0.0,0.0,0.0,0.0,0.0,-4.5999,-4.6191,-4.8244,-4.8178,-4.7548,-4.7894,-4.6047,-4.4008,-4.347,-4.1893,-4.0362,-3.9861,-3.99,-3.99,-3.94,-3.8584,-3.8507,-4.0123,-3.9777,-4.0085,-4.2316,0.0,0.0,-5.0741,-5.4822,0.0,0.0,-5.6677,-5.7287,-5.7101,-5.6638,-5.6212,-5.5925,-5.4466,-5.4342,-5.586,-5.5507,-5.5493,-5.589,-5.5397,-5.4736,-5.3959,-5.3928,-5.3671,-5.3203,-5.3203,-5.3203,-5.3203,-5.3203,-5.3203,0.0,-5.3203,-5.3203,-5.3203,-5.3203,-5.3203,-5.3203,-5.3203,-5.3203,-5.3078,0.0,0.0,0.0,0.0,0.0,0.0,0.0,-4.6562,-4.8711,-4.8711,-4.8789,-5.0312,-5.4219,-5.0508,-4.8945,-5.207,0.0,0.0,0.0,0.0,0.0,0.0,0.0,0.0,-4.6289,-4.7226,-4.8867,-5.1328,-5.2305,-5.3203,-5.3984,-5.4062,-5.2773,-5.0391,-5.0391,-4.9844,0.0,0.0,0.0,0.0,-5.0195,-5.0664,0.0,0.0,0.0,0.0,0.0,0.0,0.0,0.0,0.0,0.0,0.0,0.0,0.0,0.0,0.0,0.0,0.0,-4.5467,-4.4201,-4.4979,-4.3431,-4.1692,-4.1692,-4.1085,0.0,-4.0516,-3.99,-3.94,-3.9477,-3.8661,-3.8084,-3.8315,-3.8931,-3.9969,-4.1739,-4.4316,0.0,0.0,-5.2412,-5.3625,-5.2642,-5.48,-5.6054,-5.5618,-5.5596,-5.5273,-5.4458,-5.4422,-5.4384,-5.4323,-5.4583,-5.4591,-5.4414,-5.4363,-5.3959,-5.3203,-5.3203,-5.3203,-5.3203,-5.3203,-5.3203,-5.3203,-5.3203,-5.3203,-5.3203,-5.3203,-5.3203,-5.3203,-5.3203,-5.3203,-5.3203,-5.3203,-5.3203,-5.3078,0.0,0.0,0.0,0.0,0.0,0.0,0.0,0.0,0.0,0.0,-4.75,-4.8047,-4.8398,-4.8516,-4.8633,0.0,0.0,0.0,0.0,0.0,0.0,0.0,0.0,0.0,-4.6289,-4.7812,-4.9219,-5.0469,-5.2656,-5.3789,-5.4023,-5.4687,-5.3945,-5.2109,-5.2109,-5.1289,0.0,0.0,0.0,0.0,-5.0195,-5.0664,0.0,0.0,0.0,0.0,-4.7148,-4.6484,0.0,0.0,0.0,0.0,0.0,0.0,0.0,0.0,-4.4246,-4.3253,-4.3214,0.0,-4.1285,-4.09,-4.0785,-4.0823,0.0,-4.0669,0.0,0.0,0.0,0.0,0.0,-3.9469,-3.8854,-4.147,-4.0931,-4.1054,-4.3393,-4.7586,0.0,-5.052,-5.3891,-5.5362,-5.3216,-5.4702,-5.5711,-5.5596,-5.5596,-5.5244,-5.4429,-5.4414,-5.4106,-5.3503,-5.3555,-5.3849,-5.4375,-5.3797,-5.3408,-5.3203,-5.3203,-5.3203,-5.3203,-5.3203,-5.3203,-5.3203,-5.3203,-5.3203,-5.3203,-5.3203,-5.3203,-5.3203,-5.3203,-5.3203,-5.3203,-5.3203,-5.3203,-5.3004,0.0,0.0,0.0,0.0,0.0,0.0,0.0,0.0,0.0,0.0,0.0,0.0,0.0,0.0,0.0,0.0,0.0,0.0,0.0,0.0,0.0,0.0,0.0,-4.6914,-4.6914,-4.8203,-4.9687,-5.1367,-5.3516,-5.5155,-5.6236,-5.6014,-5.5155,-5.3736,-5.2616,-5.1601,-5.0742,-5.0351,-5.0391,-5.0703,-5.0351,0.0,0.0,0.0,0.0,0.0,-4.6797,-4.6289,0.0,-4.6289,-4.6289,-4.6289,0.0,0.0,0.0,0.0,-4.434,-4.3021,-4.2124,-4.0945,-4.0015,-4.0354,-4.02,-4.0169,-4.0931,0.0,0.0,0.0,0.0,0.0,0.0,-3.92,-3.8738,-4.0969,-4.0862,-4.167,0.0,0.0,-5.096,-5.1502,-5.3694,-5.4767,-5.36,-5.4107,-5.4509,-5.4509,-5.4142,-5.3922,-5.3849,-5.3482,-5.3261,-5.3203,-5.3203,-5.3429,-5.3839,-5.3429,-5.3203,-5.3203,-5.3203,-5.3004,-5.2674,-5.3041,-5.3004,-5.2674,-5.3041,-5.3203,-5.3203,-5.3203,-5.3203,-5.3203,-5.3203,-5.3203,-5.3203,-5.3203,-5.2968,-5.2491,0.0,0.0,0.0,0.0,0.0,0.0,0.0,0.0,0.0,0.0,0.0,0.0,0.0,0.0,0.0,0.0,0.0,0.0,0.0,0.0,0.0,0.0,-4.7617,-4.7656,-4.7812,-4.8516,-5.0078,-5.25,-5.4648,-5.6672,-5.8493,-5.7723,-5.655,-5.5017,-5.265,-5.1523,-5.1328,-5.0391,-5.0547,-5.1328,-5.0391,0.0,0.0,0.0,0.0,0.0,0.0,0.0,0.0,-4.6289,-4.6289,-4.6289,-4.6289,0.0,0.0,0.0,0.0,0.0,-4.2248,-4.0969,-4.0123,-4.1162,-4.0546,-4.0008,-4.1316,0.0,0.0,0.0,0.0,0.0,0.0,-3.8969,0.0,0.0,0.0,0.0,-4.6894,-4.8933,-5.063,-5.2387,-5.3072,-5.3461,-5.3609,-5.335,-5.3203,-5.3203,-5.2454,-5.2307,-5.3004,-5.2234,-5.2123,-5.2821,-5.2858,-5.2858,-5.2858,-5.2968,-5.3041,-5.3041,-5.2894,-5.2527,-5.2013,-5.2601,-5.2454,-5.1867,-5.2674,-5.3041,-5.3041,-5.313,-5.3203,-5.3203,-5.3203,-5.3203,-5.3188,-5.3078,-5.2601,-5.1867,0.0,0.0,0.0,0.0,0.0,0.0,0.0,0.0,0.0,0.0,0.0,0.0,0.0,0.0,0.0,0.0,0.0,0.0,0.0,0.0,0.0,-4.7656,-4.7617,-4.7969,-4.8672,-4.8828,-4.9805,-5.1601,-5.5547,-5.7258,-5.6851,-5.9488,-5.8746,-5.5023,-5.3276,-5.2109,-5.1289,-4.9766,-5.0,-5.1289,-4.9726,0.0,0.0,0.0,0.0,0.0,0.0,0.0,0.0,-4.6289,-4.6289,-4.6289,-4.6289,0.0,0.0,0.0,0.0,0.0,-4.3132,-4.2701,-4.2047,-4.0162,-4.0546,-4.1277,-4.0816,-4.0593,0.0,0.0,0.0,0.0,0.0,-4.07,-4.0631,-4.2277,-4.4432,-4.6894,-4.9702,-5.1548,-5.2598,-5.2615,-5.3594,-5.3908,-5.2899,-5.3038,-5.3203,-5.3203,-5.2454,-5.205,-5.216,-5.1426,-5.1059,-5.1169,-5.1169,-5.1169,-5.1169,-5.183,-5.216,-5.216,-5.1499,-5.1463,-5.1977,-5.1426,-5.1096,-5.1022,-5.183,-5.216,-5.2234,-5.2931,-5.3203,-5.3203,-5.3203,-5.3203,-5.3093,-5.2454,-5.2087,-5.1793,0.0,0.0,0.0,0.0,0.0,0.0,0.0,0.0,0.0,0.0,0.0,0.0,0.0,0.0,0.0,0.0,0.0,0.0,0.0,0.0,-5.0078,-4.9687,-4.9648,-4.9648,-4.9609,-5.0039,-5.1562,-5.4219,-5.706,-5.866,-5.9035,-5.8724,-5.657,-5.2952,-5.2299,-5.1289,-5.0039,-4.9726,-4.9766,-5.0039,0.0,0.0,0.0,0.0,0.0,0.0,0.0,0.0,0.0,0.0,-4.6289,-4.6289,-4.6289,0.0,0.0,0.0,0.0,0.0,-4.3316,-4.3085,-4.2701,-4.1046,-4.1239,-4.17,-4.1277,-4.0862,-4.0516,0.0,0.0,0.0,0.0,0.0,-4.2535,-4.4451,-4.6714,-4.8721,-5.0139,-5.1561,-5.2613,-5.2877,-5.3632,-5.4012,-5.3675,-5.3554,-5.3239,-5.2585,-5.1793,-5.1353,-5.1353,-5.0582,-5.0362,-5.0802,-5.0802,-5.0582,-5.0141,-5.0528,-5.0932,-5.1353,-5.0986,-5.0765,-5.0712,-5.0765,-5.0545,-5.0141,-5.0986,-5.161,-5.2013,-5.2417,-5.2821,-5.3203,-5.3203,-5.3203,-5.3078,-5.1793,-5.1059,-5.0528,0.0,0.0,0.0,0.0,0.0,0.0,0.0,0.0,0.0,0.0,0.0,0.0,0.0,0.0,0.0,0.0,0.0,0.0,0.0,-4.9297,-5.0508,-5.0508,-5.0703,-5.1094,-5.168,-5.2109,-5.3906,-5.7226,-5.8953,-6.0417,-6.1467,-5.7787,-5.4491,-5.1717,-5.1221,-5.0187,-4.8859,-4.9332,-4.9294,-4.8904,0.0,0.0,0.0,0.0,0.0,0.0,0.0,0.0,0.0,0.0,0.0,0.0,0.0,0.0,0.0,-4.5879,-4.5138,-4.4162,-4.3547,-4.3239,-4.2893,-4.2,-4.1808,-4.1846,-4.2038,-4.1585,-4.1131,-4.1131,0.0,0.0,0.0,-4.2508,-4.4373,-4.6466,-4.8526,-5.0074,-5.0647,-5.1859,-5.2905,-5.3558,-5.39,-5.4074,-5.4192,-5.3659,-5.2842,-5.1797,-5.0949,-5.0508,-5.0508,-4.9738,-4.9554,-5.0215,-5.0215,-4.9921,-4.9317,-4.9317,-4.9701,-5.0508,-5.0325,-4.9994,-4.961,-5.0031,-4.9848,-4.926,-5.0141,-5.0875,-5.1426,-5.1646,-5.2197,-5.2931,-5.2931,-5.2821,-5.2491,-5.1059,-4.9994,-4.9187,0.0,0.0,0.0,0.0,0.0,0.0,0.0,0.0,0.0,0.0,0.0,0.0,0.0,0.0,0.0,0.0,0.0,0.0,0.0,-4.7305,-4.7851,-4.7851,-4.8633,-5.1289,-5.6055,-5.539,-5.6328,-5.9023,-6.1375,-6.2411,-6.2125,-5.7885,-5.4979,-5.3134,-5.0923,-4.9391,-4.8495,-4.7869,-4.8012,-4.8718,-4.8904,0.0,0.0,0.0,0.0,0.0,0.0,0.0,0.0,0.0,0.0,0.0,0.0,0.0,-4.5879,-4.5879,-4.5138,-4.4278,-4.4239,-4.3662,-4.2893,-4.2,-4.1808,-4.2,-4.2816,-4.297,-4.2893,-4.2893,-4.3547,-4.3855,-4.3047,-4.4278,-4.611,-4.8269,-5.0049,-5.1598,-5.281,-5.4064,-5.488,-5.4956,-5.4871,-5.442,-5.3399,-5.2363,-5.1527,-5.0912,-5.0141,-4.9684,-4.9684,-4.8857,-4.8416,-4.8489,-4.8489,-4.8453,-4.8379,-4.8379,-4.882,-4.9684,-4.8857,-4.8857,-4.9574,-4.882,-4.8453,-4.8416,-4.9297,-4.9721,-4.9831,-5.0582,-5.1353,-5.2087,-5.2087,-5.161,-5.0875,-4.9994,-4.9114,-4.8379,0.0,0.0,0.0,0.0,0.0,0.0,0.0,0.0,0.0,0.0,0.0,0.0,0.0,0.0,0.0,0.0,0.0,0.0,0.0,-4.7617,-4.8633,-4.918,-5.0,-5.1875,-5.4922,-5.625,-5.8711,-6.2383,-6.259,-6.17,-5.9734,-5.6051,-5.3166,-5.0998,-4.9609,-4.8193,-4.6943,-4.7727,-4.7694,-4.7186,-4.8338,-4.7963,0.0,0.0,0.0,0.0,0.0,0.0,0.0,0.0,-4.6289,-4.6289,-4.6289,-4.5785,-4.5144,-4.5144,-4.4401,-4.3431,-4.2893,-4.2931,-4.2893,-4.2,-4.1808,-4.2038,-4.2893,-4.3085,-4.3239,-4.3739,-4.4509,-4.5017,-4.471,-4.5171,-4.6205,-4.8098,-5.005,-5.1492,-5.1994,-5.3148,-5.3707,-5.3243,-5.3141,-5.2808,-5.2156,-5.1243,-5.0306,-4.9317,-4.8489,-4.8049,-4.8049,-4.7736,-4.7773,-4.8269,-4.781,-4.7773,-4.8306,-4.7773,-4.7957,-4.8783,-4.8453,-4.8489,-4.8783,-4.8453,-4.8306,-4.8343,-4.8636,-4.9077,-4.961,-4.9941,-5.0508,-5.1242,-5.1242,-5.0765,-5.0014,-4.9721,-4.904,-4.8306,0.0,0.0,0.0,0.0,0.0,0.0,0.0,0.0,0.0,0.0,0.0,0.0,0.0,0.0,0.0,0.0,0.0,0.0,-4.6367,-4.7656,-4.875,-4.9336,-5.0156,-5.1562,-5.3555,-5.6406,-5.9453,-6.2695,-6.2368,-6.0738,-5.787,-5.4803,-5.2404,-5.0657,-4.8813,-4.7621,-4.7028,-4.7445,-4.703,-4.6178,-4.7684,-4.7485,0.0,0.0,0.0,0.0,0.0,0.0,0.0,0.0,-4.6289,-4.6289,-4.6289,-4.5746,-4.5071,-4.5071,-4.3943,-4.2547,-4.1962,-4.1854,-4.1777,-4.1162,0.0,-4.2162,-4.3585,-4.3893,-4.4201,-4.5278,-4.597,-4.6317,-4.6047,-4.6009,-4.6472,-4.7947,-4.9621,-5.0799,-5.1136,-5.203,-5.2425,-5.1876,-5.1704,-5.1458,-5.1045,-4.9852,-4.8752,-4.7995,-4.7186,-4.6709,-4.6709,-4.6709,-4.6966,-4.7535,-4.7003,-4.6985,-4.7535,-4.7021,-4.7021,-4.7535,-4.7535,-4.7829,-4.8306,-4.8049,-4.8086,-4.8306,-4.8306,-4.8636,-4.9206,-4.9206,-4.9664,-5.0398,-5.0398,-5.0068,-4.9574,-4.928,-4.882,-4.8306,0.0,0.0,0.0,0.0,0.0,0.0,0.0,0.0,0.0,0.0,0.0,0.0,0.0,0.0,0.0,0.0,0.0,0.0,-4.6367,-4.7109,-4.7578,-4.7578,-4.8437,-5.0078,-5.2578,-5.6055,-5.8281,-5.9219,-6.0566,-5.986,-5.7069,-5.441,-5.3164,-5.2972,-4.8769,-4.7817,-4.9221,-4.6815,-4.5836,-4.6005,-4.6961,-4.6937,-4.6406,0.0,0.0,0.0,0.0,0.0,0.0,0.0,-4.6289,-4.6289,-4.6289,-4.6095,-4.5879,-4.5879,-4.3943,-4.1808,-4.1808,-4.0585,-3.9323,-3.9323,0.0,0.0,-4.5017,-4.5594,-4.6095,-4.774,-4.8125,-4.7855,-4.7038,-4.6923,-4.72,-4.8022,-4.8851,-4.9717,-5.0647,-5.112,-5.1354,-5.1354,-5.1016,-5.0586,-5.0216,-4.807,-4.6782,-4.7076,-4.6324,-4.5883,-4.5883,-4.5883,-4.5883,-4.5883,-4.5883,-4.5883,-4.5883,-4.5883,-4.5883,-4.5883,-4.5883,-4.6728,-4.8269,-4.7443,-4.7516,-4.8306,-4.8306,-4.8306,-4.8306,-4.8306,-4.882,-4.961,-4.961,-4.961,-4.95,-4.8636,-4.8306,-4.8306,0.0,0.0,0.0,0.0,0.0,0.0,0.0,0.0,0.0,0.0,0.0,0.0,0.0,0.0,0.0,0.0,0.0,0.0,-4.6328,-4.6523,-4.668,-4.668,-4.7539,-4.8047,-4.8203,-5.1016,-5.4606,-5.8992,-5.8745,-5.6607,-5.2686,-5.1856,-5.0471,-4.874,-4.8048,-4.7355,-4.6672,-4.5971,-4.5733,-4.5869,-4.6199,-4.6254,-4.6192,0.0,0.0,0.0,0.0,0.0,0.0,0.0,0.0,0.0,-4.6289,-4.5746,-4.5071,-4.5071,-4.3516,-4.1808,-4.1808,-4.1008,-4.0285,-4.0893,0.0,0.0,0.0,-4.5594,0.0,0.0,-4.8586,-4.8586,-4.7163,-4.7355,-4.7479,-4.6628,-4.765,-4.8415,-4.7979,-4.8182,-4.8606,-4.9141,-4.8107,-4.7535,-4.7996,-4.6378,-4.5351,-4.5422,-4.4688,-4.4452,-4.5039,-4.5076,-4.5333,-4.5883,-4.5369,-4.5333,-4.5883,-4.5333,-4.5333,-4.5883,-4.5333,-4.559,-4.6617,-4.6361,-4.6691,-4.7443,-4.7443,-4.7773,-4.8306,-4.8306,-4.8453,-4.8673,-4.8673,-4.8673,-4.8636,-4.8416,-4.8306,-4.8306,0.0,0.0,0.0,0.0,0.0,0.0,0.0,0.0,0.0,0.0,-4.6289,-4.6289,0.0,0.0,0.0,0.0,0.0,0.0,0.0,-4.6289,-4.6445,-4.6797,-4.6992,-4.7305,-4.7851,-5.0039,-5.2575,-5.5445,-5.5432,-5.3524,-4.9899,-5.0782,-5.0356,-4.8923,-4.9385,-4.9048,-4.8048,-4.7009,-4.6298,-4.579,-4.5847,-4.5948,-4.6093,0.0,0.0,0.0,0.0,0.0,0.0,0.0,0.0,0.0,-4.6289,-4.5838,-4.5124,-4.4386,-4.2831,-4.1275,-4.0916,-4.0431,-4.0246,-4.1085,-4.2701,-4.4432,-4.5817,0.0,0.0,-4.8933,-4.9548,-4.951,-4.8125,-4.774,-4.7366,-4.6606,-4.7095,-4.7289,-4.6675,-4.6433,-4.6562,-4.7261,-4.6507,-4.6067,-4.6562,-4.5443,-4.469,-4.4723,-4.3936,-4.3718,-4.4195,-4.4232,-4.4452,-4.4929,-4.4488,-4.4452,-4.4929,-4.4452,-4.4452,-4.4929,-4.4452,-4.4488,-4.4966,-4.5296,-4.5883,-4.6636,-4.6966,-4.7369,-4.7846,-4.8196,-4.8306,-4.8306,-4.8306,-4.8306,-4.8306,-4.8306,-4.8306,-4.8306,0.0,0.0,-4.5117,-4.5117,0.0,0.0,0.0,0.0,0.0,0.0,-4.6289,-4.6289,0.0,0.0,0.0,0.0,0.0,0.0,0.0,0.0,-4.668,-4.7578,-4.6992,-4.7773,-5.0156,-5.1601,-5.1562,-4.9921,-5.1356,-5.0758,-4.8306,-5.0687,-5.1692,-5.1577,-5.1731,-5.1692,-5.1385,-4.8933,-4.7053,-4.5796,-4.5815,-4.5915,-4.6082,-4.6087,0.0,0.0,0.0,0.0,0.0,0.0,0.0,0.0,-4.6289,-4.6202,-4.5767,-4.4093,-4.2354,-4.0775,-3.9959,-3.9592,-3.9631,-4.0593,-4.3286,-4.5932,-4.6817,-4.8817,-5.0481,-5.0481,-5.0596,-5.0404,-4.9471,-4.8048,-4.7069,-4.7236,-4.6822,-4.6361,-4.6174,-4.5451,-4.5168,-4.5773,-4.5736,-4.57,-4.5773,-4.5076,-4.4599,-4.4599,-4.3901,-4.3515,-4.3515,-4.3515,-4.3515,-4.3515,-4.3515,-4.3515,-4.3515,-4.3515,-4.3515,-4.3515,-4.3515,-4.3515,-4.3515,-4.4268,-4.5039,-4.5847,-4.6636,-4.7003,-4.7039,-4.7792,-4.8086,-4.8086,-4.8086,-4.8086,-4.8086,-4.8159,-4.8196,-4.8196,0.0,0.0,-4.6016,-4.6016,0.0,0.0,0.0,0.0,0.0,0.0,0.0,0.0,0.0,-4.6289,0.0,0.0,0.0,0.0,0.0,0.0,-4.668,-4.7578,-4.8711,-4.9609,-5.0195,-4.9883,-4.9138,-4.7982,-4.9581,-4.9011,-4.6541,-4.9567,-5.024,-4.8971,-5.0356,-5.0202,-4.8817,-4.6932,-4.5967,-4.564,-4.5761,-4.5859,-4.5963,-4.6069,-4.6196,0.0,0.0,0.0,0.0,0.0,0.0,0.0,-4.6289,-4.6202,-4.5999,-4.5527,-4.4088,-4.2731,-4.3111,-4.1747,0.0,-4.2931,-4.5047,-4.6817,-4.7663,-4.8279,-4.8663,-4.8663,-4.974,-5.0202,-4.8663,-4.8086,-4.7348,-4.5846,-4.5811,-4.5533,-4.4311,-4.3972,-4.4195,-4.5185,-4.4543,-4.4268,-4.4892,-4.4232,-4.3754,-4.3754,-4.3625,-4.3515,-4.3515,-4.3515,-4.3515,-4.3515,-4.3515,-4.3515,-4.3515,-4.3515,-4.3515,-4.3515,-4.3515,-4.3515,-4.3515,-4.3698,-4.4195,-4.5002,-4.581,-4.6177,-4.6177,-4.6324,-4.6434,-4.6434,-4.6434,-4.6434,-4.6507,-4.7113,-4.7369,-4.7443,0.0,0.0,0.0,0.0,0.0,0.0,0.0,0.0,0.0,0.0,0.0,0.0,0.0,-4.6289,0.0,0.0,-4.6289,0.0,0.0,-4.6289,-4.6484,-4.6953,-4.9062,-4.9609,-4.8359,-4.8629,-4.8146,-4.6793,-4.7527,-4.7201,-4.5897,-4.8321,-4.8971,-4.8202,-4.9933,-4.974,-4.8048,-4.7163,-4.6317,-4.5612,-4.5747,-4.5842,-4.5892,-4.6064,-4.6196,-4.6289,-4.6289,0.0,0.0,0.0,0.0,0.0,0.0,0.0,-4.5994,-4.5,-4.402,-4.3181,-4.2641,0.0,0.0,-4.4893,0.0,-4.7,-4.7432,-4.7817,-4.8009,-4.7586,-4.8894,-4.9663,-4.8355,-4.8086,-4.7616,-4.6176,-4.5807,-4.5306,-4.4168,-4.3937,-4.3972,-4.4284,-4.3845,-4.3644,-4.4085,-4.3754,-4.3515,-4.3515,-4.3515,-4.3515,-4.3515,-4.3515,-4.3515,-4.3515,-4.3515,-4.3515,-4.3515,-4.3515,-4.3515,-4.3515,-4.3515,-4.3515,-4.3515,-4.3515,-4.3718,-4.4158,-4.4966,-4.5333,-4.5369,-4.5736,-4.5883,-4.5883,-4.5883,-4.5883,-4.5957,-4.6361,-4.6746,-4.7149,0.0,0.0,0.0,0.0,0.0,0.0,0.0,0.0,0.0,0.0,0.0,0.0,0.0,0.0,-4.6289,0.0,0.0,0.0,0.0,-4.6445,-4.6601,-4.6758,-4.8984,-4.918,-4.7031,-4.8107,-4.7923,-4.6309,-4.5963,-4.588,-4.6039,-4.7444,-4.8086,-4.8163,-4.9625,-4.9356,-4.7855,-4.7586,-4.6624,-4.5381,-4.5515,-4.5725,-4.5892,-4.6064,-4.6196,-4.6289,-4.6289,-4.6289,-4.6289,-4.6288,0.0,0.0,0.0,0.0,-4.5691,-4.4111,-4.3506,-4.3059,-4.1588,0.0,-4.4008,-4.597,-4.6547,0.0,-4.6701,-4.7201,-4.7471,-4.6817,-4.7894,-4.874,-4.8048,-4.7778,-4.7471,-4.6778,-4.6031,-4.5316,-4.4777,-4.4402,-4.4023,-4.3631,-4.3549,-4.3515,-4.3515,-4.3351,-4.3277,-4.3277,-4.3277,-4.3277,-4.3277,-4.3441,-4.3515,-4.3515,-4.3515,-4.3515,-4.3515,-4.3515,-4.3515,-4.3515,-4.3515,-4.3515,-4.3515,-4.3515,-4.3515,-4.3551,-4.4195,-4.4488,-4.4562,-4.5223,-4.548,-4.548,-4.548,-4.548,-4.548,-4.5626,-4.6104,-4.6746,0.0,0.0,0.0,0.0,0.0,0.0,0.0,0.0,0.0,0.0,-4.6289,-4.6289,0.0,0.0,0.0,-4.6289,-4.6289,0.0,-4.6289,0.0,0.0,-4.8516,-4.9609,-5.0039,-4.9687,-4.9044,-4.8173,-4.7038,-4.6224,-4.6119,-4.6784,-4.7672,-4.8086,-4.8125,-4.8355,-4.7932,-4.6962,-4.5432,-4.4662,-4.4496,-4.4626,-4.5182,-4.5892,-4.6064,-4.6196,-4.6289,-4.6289,-4.6289,-4.6289,-4.6152,-4.614,0.0,0.0,0.0,-4.4872,-4.4604,-4.3899,-4.3329,-4.3847,0.0,-4.5171,0.0,-4.5201,-4.5787,0.0,0.0,-4.5902,0.0,-4.6547,-4.7201,-4.7077,-4.6432,-4.5902,-4.5787,-4.5418,-4.5143,-4.506,-4.4441,-4.4004,-4.3958,-4.366,-4.3515,-4.3515,-4.2873,-4.247,-4.247,-4.247,-4.247,-4.247,-4.313,-4.3515,-4.3515,-4.3515,-4.3515,-4.3515,-4.3515,-4.3515,-4.3515,-4.3515,-4.3515,-4.3515,-4.3515,-4.3515,-4.3515,-4.3608,-4.3644,-4.3644,-4.3754,-4.3845,-4.3845,-4.3845,-4.3845,-4.3901,-4.4599,-4.4929,-4.5205,0.0,0.0,0.0,0.0,0.0,0.0,0.0,0.0,0.0,0.0,0.0,-4.6289,0.0,0.0,0.0,0.0,0.0,0.0,-4.6289,-4.6641,0.0,-4.7422,-4.7812,-4.8008,-4.8008,-4.7416,-4.6906,-4.6467,-4.5964,-4.5841,-4.6201,-4.7048,-4.7432,-4.7432,-4.6932,-4.6509,-4.6086,-4.4816,-4.4586,-4.4996,-4.4626,-4.4432,-4.452,-4.566,-4.556,-4.4914,-4.5937,-4.6247,-4.6195,-4.6136,-4.6064,-4.5981,-4.5935,0.0,0.0,0.0,-4.4399,-4.3989,-4.3814,-4.3691,-4.3689,0.0,-4.4586,-4.5017,-4.5479,-4.5594,-4.5594,-4.5594,-4.5893,-4.6163,-4.6163,-4.6278,-4.6163,-4.5671,-4.5466,-4.5293,-4.5137,-4.4811,-4.4468,-4.4043,-4.3865,-4.3525,-4.2907,-4.2506,-4.2103,-4.1645,-4.1609,-4.1609,-4.1609,-4.1956,-4.2176,-4.2176,-4.2176,-4.2176,-4.2176,-4.2176,-4.2396,-4.2837,-4.3277,-4.3515,-4.3515,-4.3515,-4.3515,-4.3515,-4.3515,-4.3515,-4.3515,-4.3515,-4.3515,-4.3515,-4.3515,-4.3515,-4.3551,-4.3901,-4.4599,-4.548,0.0,0.0,0.0,0.0,0.0,0.0,0.0,0.0,0.0,0.0,0.0,0.0,0.0,0.0,0.0,0.0,0.0,0.0,-4.6289,0.0,0.0,0.0,0.0,-4.6289,-4.6289,-4.6075,-4.5948,-4.5879,-4.5736,-4.5761,-4.5932,-4.6355,-4.6701,-4.6885,-4.6201,-4.5663,-4.521,-4.4355,-4.4355,-4.488,-4.3936,-4.3272,-4.303,-4.4306,-4.4126,-4.3433,-4.4984,-4.5636,-4.5752,-4.5962,-4.5948,-4.5867,-4.5831,-4.5509,0.0,0.0,0.0,0.0,0.0,0.0,-4.2846,-4.3559,-4.4052,-4.4506,0.0,0.0,-4.5325,0.0,-4.5594,-4.5594,-4.5594,-4.6124,-4.6355,-4.571,-4.5594,-4.5494,-4.5253,-4.5159,-4.4794,-4.4045,-4.3818,-4.328,-4.221,-4.1875,-4.1442,-4.0838,-4.0818,-4.0818,-4.0818,-4.0985,-4.1095,-4.1095,-4.1095,-4.1095,-4.1095,-4.1095,-4.1389,-4.1992,-4.28,-4.3204,-4.3204,-4.3404,-4.3515,-4.3515,-4.3515,-4.3515,-4.3515,-4.3515,-4.3515,-4.3515,-4.3515,-4.3515,-4.3515,-4.3515,-4.4286,-4.5333,0.0,0.0,0.0,0.0,0.0,0.0,0.0,0.0,0.0,0.0,0.0,0.0,-4.6289,-4.6289,-4.6289,-4.6289,0.0,0.0,0.0,0.0,0.0,0.0,0.0,0.0,-4.6289,-4.6152,-4.6014,-4.5879,-4.5813,0.0,-4.6817,-4.6009,-4.6124,-4.6885,-4.6846,-4.5893,-4.4316,-4.3508,-4.3201,-4.311,-4.1551,-4.1385,-4.2017,-4.14,-4.1601,-4.2291,-4.3226,-4.4079,-4.4868,-4.5586,-4.5803,-4.5764,-4.5657,-4.4551,-4.3235,0.0,0.0,0.0,0.0,-4.3333,0.0,-4.2542,-4.3324,0.0,0.0,0.0,-4.4586,-4.5441,-4.5594,-4.5594,-4.5594,-4.5633,-4.5671,-4.5594,-4.5594,-4.5586,-4.5577,-4.5283,-4.4799,-4.3918,-4.3237,-4.2545,-4.1719,-4.0649,-4.001,-3.9974,-3.9974,-3.9974,-3.9974,-4.0708,-4.1095,-4.1095,-4.1095,-4.1095,-4.1095,-4.1095,-4.1132,-4.1168,-4.1992,-4.2359,-4.2396,-4.313,-4.3515,-4.3515,-4.3515,-4.3515,-4.3515,-4.3515,-4.3515,-4.3515,-4.3515,-4.3515,-4.3515,-4.3515,-4.3551,-4.3828,0.0,0.0,0.0,0.0,0.0,0.0,0.0,0.0,0.0,0.0,0.0,0.0,0.0,-4.6247,-4.6289,-4.6289,-4.6289,0.0,0.0,0.0,0.0,0.0,0.0,0.0,0.0,-4.6153,-4.6017,-4.5879,-4.5825,-4.588,-4.6086,-4.6317,-4.6317,-4.6086,-4.6086,-4.5701,-4.5056,-4.3662,-4.3393,-4.3671,-4.1446,-4.044,-4.0307,-4.0643,-4.0587,-4.0558,-4.2031,-4.3436,-4.4622,-4.4873,-4.5276,-4.5657,-4.562,-4.4778,-4.3665,0.0,0.0,0.0,0.0,0.0,0.0,-4.2072,-4.1976,-4.2325,-4.3327,-4.3085,-4.3085,-4.447,-4.4355,-4.4316,-4.5402,-4.5594,-4.5594,-4.5594,-4.5594,-4.5594,-4.5594,-4.5015,-4.4394,-4.3857,-4.3088,-4.2109,-4.0896,-4.0391,-3.9882,-3.9182,-3.9129,-3.9129,-3.9129,-3.9423,-3.957,-3.957,-3.957,-3.957,-3.957,-4.0084,-4.0341,-4.0341,-4.1148,-4.1809,-4.2323,-4.2616,-4.302,-4.3515,-4.3515,-4.3515,-4.3515,-4.3515,-4.3515,-4.3515,-4.3515,-4.3515,-4.3515,-4.3515,-4.3828,-4.4342,0.0,0.0,0.0,0.0,0.0,0.0,0.0,0.0,0.0,-4.5971,0.0,0.0,0.0,0.0,-4.6289,-4.6289,-4.6289,-4.6289,-4.6289,-4.6289,0.0,0.0,0.0,0.0,0.0,-4.6145,-4.6005,-4.5857,-4.5834,-4.5725,-4.5594,-4.6201,-4.6163,-4.5594,-4.5594,-4.5594,0.0,0.0,-4.3547,-4.4047,-4.0893,-3.9854,-4.01,-3.9863,-3.9991,-4.0352,-4.1585,-4.2864,-4.4032,-4.4032,-4.4361,-4.4825,-4.5094,-4.4586,-4.3588,0.0,0.0,0.0,-4.098,0.0,0.0,0.0,-4.1506,-4.1474,-4.2787,-4.2431,-4.22,-4.3624,-4.347,-4.3431,-4.4547,-4.4748,-4.4863,-4.5133,-4.5402,-4.5518,-4.521,-4.4662,-4.4102,-4.3618,-4.2687,-4.1602,-4.0353,-4.0021,-3.9602,-3.8877,-3.8765,-3.8689,-3.8689,-3.8689,-3.8689,-3.8689,-3.8689,-3.8689,-3.8689,-3.9239,-3.9496,-3.9496,-4.0304,-4.1111,-4.1919,-4.2176,-4.2727,-4.3515,-4.3515,-4.3515,-4.3515,-4.3515,-4.3515,-4.3515,-4.3515,-4.3515,-4.3515,-4.3515,-4.3828,-4.4378,0.0,0.0,0.0,0.0,0.0,0.0,0.0,0.0,-4.5948,-4.6072,0.0,0.0,0.0,0.0,0.0,-4.6328,-4.6328,-4.6328,-4.6289,-4.6289,0.0,0.0,0.0,0.0,-4.6091,-4.6089,-4.6013,-4.579,-4.5783,-4.5725,-4.5594,-4.5594,-4.5594,-4.5594,-4.5556,-4.5556,-4.5441,0.0,-4.3547,-4.3932,-3.9738,-3.9546,-4.15,-3.9008,-3.9585,-4.1731,-4.1731,-4.2316,-4.3047,-4.3047,-4.3085,-4.3278,-4.4047,-4.3739,0.0,0.0,0.0,0.0,0.0,0.0,0.0,0.0,0.0,0.0,-4.2864,-4.2354,-4.2008,-4.2854,-4.3008,-4.3008,-4.3008,-4.3008,-4.3239,-4.4047,-4.494,-4.5248,-4.4393,-4.4239,-4.3932,-4.3162,-4.201,-4.0978,-4.0196,-3.9498,-3.9093,-3.9093,-3.884,-3.8689,-3.8689,-3.8689,-3.8689,-3.8689,-3.8689,-3.8689,-3.8689,-3.8689,-3.8689,-3.8726,-3.9496,-4.0304,-4.1095,-4.1919,-4.269,-4.3478,-4.3515,-4.3515,-4.3515,-4.3515,-4.3515,-4.3515,-4.3515,-4.3515,-4.3515,-4.3515,-4.3515,-4.3772,0.0,0.0,0.0,0.0,0.0,0.0,-4.5687,-4.5696,-4.5711,0.0,0.0,0.0,-4.5925,-4.6544,-4.6934,-4.6934,-4.7021,-4.685,-4.6188,-4.6247,-4.6248,-4.615,-4.6247,-4.6246,-4.6091,-4.6089,-4.6047,-4.5867,-4.5801,-4.5725,-4.5594,-4.5594,-4.5594,-4.5556,-4.4932,-4.4662,-4.4586,-4.3547,-4.3547,-4.4047,-4.1016,-4.0246,-4.07,-3.9431,-3.9392,-3.9969,-3.9969,-4.0931,-4.2162,-4.2162,-4.297,-4.4008,-4.4239,-4.3739,0.0,0.0,0.0,0.0,-4.1767,0.0,0.0,0.0,0.0,0.0,-4.1177,-4.1016,-4.0939,-4.117,-4.1208,-4.1208,-4.1208,-4.0746,-4.0623,-4.1439,-4.2816,-4.3701,-4.347,-4.2893,-4.2431,-4.22,-4.1306,-4.0551,-4.0139,-3.9202,-3.8726,-3.9069,-3.8301,-3.808,-3.8689,-3.8689,-3.8689,-3.8689,-3.8689,-3.8689,-3.8689,-3.8689,-3.8689,-3.8689,-3.8946,-3.946,-4.0267,-4.1075,-4.1882,-4.2653,-4.324,-4.3515,-4.3515,-4.3515,-4.3515,-4.3515,-4.3515,-4.3515,-4.3515,-4.3515,-4.3864,-4.4452,0.0,0.0,-4.6137,-4.6333,0.0,-4.6366,-4.6621,-4.6355,-4.6159,0.0,0.0,0.0,-4.6341,-4.7499,-4.7967,-4.7276,-4.7256,-4.6953,-4.6165,-4.6136,-4.6138,-4.6089,-4.6136,-4.6075,-4.599,-4.5988,-4.5939,-4.5783,-4.5796,-4.5725,-4.5594,-4.5594,-4.5594,-4.5556,-4.4701,-4.4316,-4.4201,-4.3047,-4.3239,-4.4047,-4.117,-4.0823,-4.1939,-4.04,-4.0246,-4.0854,-4.0469,-4.12,-4.2239,-4.1508,-4.2393,-4.3739,-4.3355,-4.3162,0.0,0.0,0.0,0.0,0.0,0.0,0.0,-4.3118,0.0,0.0,-4.1155,-4.0746,-4.0285,-3.9592,-3.9746,-3.99,-3.9508,-3.9354,-3.9438,-3.9908,-4.0862,-4.1777,-4.247,-4.2124,-4.1808,-4.1808,-4.1046,-4.043,-4.0286,-3.9454,-3.902,-3.9277,-3.8497,-3.8212,-3.8689,-3.8689,-3.8689,-3.8689,-3.8689,-3.8689,-3.8689,-3.8689,-3.8689,-3.8689,-3.8689,-3.9129,-3.99,-4.0377,-4.1222,-4.2323,-4.28,-4.3167,-4.3515,-4.3515,-4.3515,-4.3515,-4.3515,-4.3515,-4.3515,-4.3515,-4.4011,-4.4728,0.0,0.0,-4.6254,-4.6901,-4.6982,-4.7264,-4.8114,-4.7471,-4.7041,0.0,-4.6788,-4.6694,-4.7605,-4.8888,-4.9077,-4.7577,-4.7281,-4.6874,-4.6103,-4.5967,-4.5959,-4.6064,-4.5963,-4.5862,-4.5783,-4.588,-4.5819,-4.5629,-4.5718,-4.5703,-4.5594,-4.5594,-4.5556,-4.5441,-4.4547,-4.4124,-4.3932,-4.2431,-4.2662,-4.3778,-4.0777,-4.1431,-4.3893,-4.1554,-4.1546,-4.2701,-4.1931,-4.2162,-4.2585,-4.1131,-4.1662,-4.2854,-4.2277,-4.247,-4.2854,-4.2239,-4.2547,0.0,0.0,0.0,0.0,-4.4316,-4.3778,0.0,-4.2,-4.1277,-4.0285,-3.8507,-3.8815,-3.9123,-3.8185,-3.8615,-3.9207,-3.9292,-3.9292,-3.9815,-4.1316,-4.1508,-4.1508,-4.1385,-4.07,-4.0246,-4.0362,-3.9766,-3.9426,-3.958,-3.9055,-3.8689,-3.8689,-3.8689,-3.8689,-3.8689,-3.8689,-3.8689,-3.8689,-3.8689,-3.8689,-3.8689,-3.8689,-3.9056,-3.9753,-3.9937,-4.0818,-4.2176,-4.2359,-4.2837,-4.3515,-4.3515,-4.3515,-4.3515,-4.3515,-4.3515,-4.3515,-4.3625,-4.4121,-4.4966,-4.6247,-4.5982,-4.6084,-4.6861,-4.6955,-4.74,-4.8903,-4.7855,-4.7634,-4.9729,-4.9854,-5.0055,-5.0901,-5.0061,-4.9337,-4.899,-4.778,-4.6687,-4.5914,-4.5877,-4.5886,-4.5842,-4.5881,-4.5862,-4.5783,-4.5815,-4.5796,-4.5768,-4.5688,-4.5637,-4.5594,-4.5594,-4.5248,-4.4509,-4.3701,-4.2931,-4.2277,-4.1923,0.0,-4.2239,-4.1585,-4.2124,-4.3201,-4.2008,-4.1316,-4.0977,-4.0823,-4.0862,-4.1054,-4.1431,-4.1777,-4.2277,-4.3431,-4.3008,-4.2277,-4.347,-4.347,0.0,0.0,0.0,-4.5171,-4.447,-4.4162,0.0,-4.2162,-4.22,-4.1931,-3.9546,-3.9708,-3.9785,-3.8277,-3.8123,-3.8469,-3.9207,-3.9284,-3.94,-3.9738,-3.9777,-3.9546,-3.8815,-3.8584,-3.8738,-3.9477,-3.8597,-3.8449,-3.9528,-3.9055,-3.8689,-3.8689,-3.8689,-3.8689,-3.8689,-3.8689,-3.8689,-3.8689,-3.8689,-3.8689,-3.8689,-3.8689,-3.8799,-3.8982,-4.0304,-4.1022,-4.1389,-4.269,-4.3368,-4.3515,-4.3515,-4.3515,-4.3515,-4.3515,-4.3515,-4.3588,-4.4232,-4.4966,-4.5773,-4.6083,-4.5901,-4.6176,-4.7341,-4.7503,-4.8202,-5.0317,-4.9586,-4.9394,-5.1087,-5.1318,-5.1125,-5.0702,-5.0279,-4.9548,-4.8279,-4.7414,-4.6638,-4.5854,-4.5783,-4.5783,-4.5783,-4.5783,-4.5736,-4.5681,-4.5775,-4.5775,-4.5719,-4.5719,-4.5665,-4.5594,-4.5594,-4.494,-4.3662,-4.3278,-4.2624,-4.1808,-4.1808,-4.2277,-4.297,-4.2162,-4.2038,-4.2354,-4.147,-4.0893,-4.0516,-4.0516,-4.0516,-4.0631,-4.1508,-4.2085,-4.2585,-4.3431,-4.3393,-4.3201,-4.4047,-4.4008,-4.3778,-4.4201,-4.494,-4.5518,-4.5056,-4.494,0.0,0.0,-4.2777,-4.247,-4.0362,-4.0208,-4.0131,-3.8861,-3.8669,-3.8777,-3.9231,-3.8931,-3.8815,-3.9246,-3.9284,-3.8977,-3.8084,-3.8007,-3.8354,-3.9207,-3.8623,-3.8505,-3.9302,-3.8956,-3.8689,-3.8689,-3.8689,-3.8689,-3.8689,-3.8689,-3.8689,-3.8689,-3.8689,-3.8689,-3.8689,-3.8689,-3.8909,-3.9313,-4.012,-4.0928,-4.1735,-4.2543,-4.313,-4.3515,-4.3515,-4.3515,-4.3515,-4.3515,-4.3515,-4.3551,-4.3938,-4.4856,-4.5957,-4.5939,-4.5853,-4.6225,-4.7622,-4.7855,-4.8663,-5.1038,-5.0587,-5.0394,-5.151,-5.1808,-5.15,-5.0471,-5.0433,-4.9817,-4.824,-4.7048,-4.6433,-4.6489,-4.5772,-4.5478,-4.5761,-4.5648,-4.5594,-4.5594,-4.5727,-4.5688,-4.5594,-4.5688,-4.5727,-4.5594,-4.5594,-4.4786,-4.3316,-4.3162,-4.2701,0.0,0.0,0.0,-4.3701,-4.2547,-4.2162,-4.2162,-4.1123,-4.0746,-4.0746,-4.0554,-4.0516,-4.0631,-4.1508,-4.2277,-4.2893,-4.3239,-4.3662,-4.4124,-4.447,-4.4432,-4.4355,-4.4509,-4.5056,-4.5594,-4.5594,-4.5594,-4.521,0.0,0.0,0.0,-4.1085,-4.0785,-4.0554,0.0,0.0,-3.9469,-3.9331,-3.8731,-3.8392,-3.8738,-3.8815,-3.8546,-3.7815,-3.7738,-3.8084,-3.8977,-3.8991,-3.8969,-3.8963,-3.8662,-3.8469,-3.8469,-3.8469,-3.8542,-3.8689,-3.8689,-3.8689,-3.8689,-3.8689,-3.8799,-3.8946,-3.8946,-3.935,-4.012,-4.0267,-4.1075,-4.2323,-4.247,-4.291,-4.3515,-4.3515,-4.3515,-4.3515,-4.3515,-4.3515,-4.3515,-4.3644,-4.4562,-4.57,-4.5884,-4.5853,-4.6071,-4.6891,-4.7038,-4.7625,-4.9394,-4.8355,-4.8163,-5.051,-5.1471,-5.2423,-5.378,-5.1279,-5.0356,-5.2318,-4.7663,-4.5864,-4.8816,-4.6142,-4.4795,-4.559,-4.5603,-4.5594,-4.5594,-4.562,-4.562,-4.5594,-4.562,-4.562,-4.5594,-4.5594,-4.5094,-4.4124,-4.3431,0.0,0.0,0.0,-4.2624,0.0,-4.2739,-4.3393,-4.3855,-4.2277,-4.1662,-4.1546,-4.0785,-4.0516,-4.0631,-4.1508,-4.1885,-4.22,-4.3701,-4.3739,-4.3547,-4.5017,-4.4902,-4.447,-4.5248,-4.5518,-4.5594,-4.5594,-4.5594,-4.5364,-4.4393,0.0,-4.3385,-4.1962,0.0,-4.167,-4.0554,0.0,0.0,-3.9431,-3.92,-3.8661,-3.7199,-3.7,-3.6962,-3.6846,-3.6846,-3.7199,-3.8046,-3.8985,-3.9226,-3.8527,-3.7978,-3.7639,-3.7639,-3.7639,-3.797,-3.8689,-3.8689,-3.8689,-3.8689,-3.8689,-3.9056,-3.9753,-3.9753,-4.0194,-4.0985,-4.1699,-4.2139,-4.2323,-4.3057,-4.3441,-4.3515,-4.3515,-4.3515,-4.3515,-4.3515,-4.3515,-4.3571,-4.4305,-4.4654,-4.4966,-4.589,-4.5828,-4.6032,-4.6775,0.0,0.0,0.0,0.0,-5.0779,-5.1318,-5.2125,-5.2933,-5.3664,-5.201,-5.1087,-5.1702,-4.9009,-4.7471,-4.7932,-4.6624,-4.597,-4.6355,-4.6355,-4.6355,-4.6355,-4.5864,-4.5594,-4.5594,-4.5594,-4.5594,-4.5594,-4.5594,-4.4902,-4.3585,-4.3239,0.0,-4.2393,0.0,-4.3162,0.0,-4.3662,-4.4008,-4.4047,-4.1893,-4.1046,-4.1008,-4.0631,-4.0516,-4.0554,-4.0931,-4.1739,-4.2585,-4.2777,-4.3624,-4.4586,-4.4778,-4.4932,-4.5133,-4.5518,-4.5594,-4.5594,-4.5594,-4.5594,-4.5518,-4.5133,-4.497,-4.4701,-4.4124,0.0,0.0,0.0,0.0,0.0,0.0,-3.9508,-3.8469,-3.8238,-3.693,-3.6,-3.6,-3.6,-3.6538,-3.7853,-3.8707,-3.8925,-3.8444,-3.7542,-3.6971,-3.6795,-3.7235,-3.7639,-3.7991,-3.8469,-3.8689,-3.8689,-3.8689,-3.9093,-3.99,-3.99,-4.0561,-4.1809,-4.2139,-4.2543,-4.302,-4.3368,-4.3515,-4.3515,-4.3515,-4.3515,-4.3515,-4.3515,-4.3515,-4.3551,-4.3864,-4.4305,-4.4728,-4.5803,-4.5783,-4.597,-4.6446,-4.6547,0.0,0.0,-5.0087,-5.1241,-5.1548,-5.1702,-5.2241,-5.3433,-5.2577,-5.2164,-5.2741,-5.0702,-4.9163,-4.8663,-4.7538,-4.6778,-4.6547,-4.6778,-4.6778,-4.6547,-4.5932,-4.5594,-4.5594,-4.5594,-4.5594,-4.5594,-4.5594,-4.494,-4.3778,-4.3547,-4.3085,-4.2508,0.0,-4.3431,-4.397,-4.397,-4.397,-4.3739,-4.1662,-4.0708,-4.0516,-4.0516,-4.0516,-4.0554,-4.0785,-4.17,-4.2662,-4.2277,-4.3431,-4.4786,-4.4162,-4.4432,0.0,-4.5171,-4.5248,-4.5287,-4.5556,-4.5594,-4.5594,-4.5594,-4.5594,-4.5518,-4.5287,-4.4662,0.0,0.0,0.0,-4.2008,-4.1508,0.0,-3.8661,-3.8584,-3.7199,-3.6115,-3.5846,-3.6038,-3.6776,-3.82,-3.8644,-3.8546,-3.7871,-3.6928,-3.6307,-3.6104,-3.6765,-3.7272,-3.7492,-3.8285,-3.8689,-3.8689,-3.8689,-3.9093,-3.99,-4.012,-4.0965,-4.2323,-4.2543,-4.2947,-4.3515,-4.3515,-4.3515,-4.3515,-4.3515,-4.3515,-4.3515,-4.3515,-4.3515,-4.3515,-4.3515,-4.3864,-4.4378,-4.5657,-4.5764,0.0,0.0,-4.5633,-4.5932,-4.6855,-4.6317,-4.7018,-5.0327,-4.9279,-4.9856,-5.401,-5.2933,-5.3538,-5.7703,-5.2741,-5.0433,-5.2856,-4.9163,-4.6509,-4.5671,-4.6432,-4.6509,-4.5671,-4.5594,-4.5594,-4.5594,-4.5594,-4.5594,-4.5594,-4.5594,-4.5556,-4.5479,-4.4624,-4.4239,-4.4162,-4.3431,-4.3124,-4.3124,-4.3124,-4.3124,-4.3047,-4.2124,-4.1239,-4.0516,-4.0516,-4.0516,-4.0631,-4.147,-4.1808,-4.1962,-4.2816,-4.3124,-4.3162,-4.3162,-4.3162,-4.3355,-4.4124,-4.4355,-4.4547,-4.5402,-4.5594,-4.5594,-4.5594,-4.5594,-4.5364,-4.4509,-4.4115,-4.3731,-4.3239,-4.3085,-4.2508,-4.0823,-4.0477,0.0,0.0,-3.743,-3.7623,-3.6769,-3.743,-3.8277,-3.9169,-3.8997,-3.8118,-3.6497,-3.5851,-3.5529,-3.5529,-3.6058,-3.6721,-3.7492,-3.8285,-3.8689,-3.8689,-3.8689,-3.9093,-3.9916,-4.0708,-4.1515,-4.2323,-4.3094,-4.3478,-4.3515,-4.3515,-4.3515,-4.3515,-4.3515,-4.3515,-4.3515,-4.3515,-4.3515,-4.3515,-4.3515,-4.3515,-4.3551,-4.5736,-4.579,-4.5796,-4.5646,-4.5594,-4.5893,-4.6778,-4.8086,-4.9788,-5.2049,-5.2818,-5.4318,-5.7473,-5.728,-5.7319,-5.8242,-5.5934,-5.3818,-5.2423,-5.1,-4.9308,-4.7355,-4.7548,-4.7548,-4.7278,-4.6172,-4.5893,-4.6471,-4.5893,-4.5594,-4.5594,-4.5594,-4.5594,-4.5556,-4.4701,-4.4008,0.0,0.0,0.0,0.0,0.0,-4.2585,-4.3008,-4.2124,-4.197,-4.22,-4.22,-4.1854,-4.1393,-4.1692,-4.22,-4.2508,-4.1662,-4.2547,-4.3778,-4.3278,-4.347,-4.4085,-4.494,-4.5171,-4.5248,-4.5518,-4.5594,-4.5594,-4.5594,-4.5594,-4.5518,-4.521,-4.5086,-4.497,-4.4778,-4.4278,-4.3547,-4.2393,-4.1247,-4.0015,0.0,-3.8161,-3.8084,-3.8392,-3.8661,-3.8738,-3.8469,-3.8324,-3.7729,-3.64,-3.5463,-3.4854,-3.4659,-3.5688,-3.6413,-3.6721,-3.7991,-3.8689,-3.8689,-3.8689,-3.9093,-3.9916,-4.0744,-4.1499,-4.2323,-4.313,-4.3515,-4.3515,-4.3515,-4.3515,-4.3515,-4.3515,-4.3515,-4.3515,-4.3515,-4.3515,-4.3515,-4.3515,-4.3515,-4.3515,-4.587,-4.5718,-4.5719,-4.562,-4.5864,-4.6355,-4.7201,-4.924,-5.1395,-5.3395,-5.4587,-5.6357,-5.9204,-5.9242,-5.9088,-5.9165,-5.8127,-5.6126,-5.3049,-5.2818,-5.1433,-4.824,-4.8394,-4.8279,-4.7702,-4.6624,-4.6201,-4.6432,-4.6201,-4.5893,-4.5594,-4.5594,-4.5594,-4.5594,0.0,-4.4316,-4.3547,-4.3547,-4.3201,0.0,0.0,-4.3201,-4.3893,-4.3008,-4.2854,-4.3085,-4.3085,-4.2739,-4.2277,-4.2277,-4.2431,-4.2431,-4.1316,-4.2085,-4.3316,-4.2777,-4.3239,-4.4047,-4.4902,-4.5133,-4.521,-4.5518,-4.5594,-4.5594,-4.5594,-4.5594,-4.5594,-4.5594,-4.5594,-4.5518,-4.521,-4.4662,-4.3932,-4.2816,-4.17,-4.0662,0.0,-3.9008,-3.8777,-3.9631,-3.9477,-3.8977,-3.8084,-3.8007,-3.7456,-3.6135,-3.5182,-3.4743,-3.4821,-3.5755,-3.6413,-3.6721,-3.8028,-3.8689,-3.8689,-3.8689,-3.9093,-3.9916,-4.0744,-4.1499,-4.2323,-4.313,-4.3515,-4.3515,-4.3515,-4.3515,-4.3515,-4.3515,-4.3515,-4.3515,-4.3515,-4.3515,-4.3515,-4.3515,-4.3515,-4.3515,-4.6014,-4.571,-4.571,-4.571,-4.6394,-4.7231,-4.8048,-4.9702,-5.1789,-5.428,-5.4741,-5.6049,-5.9281,-5.8934,-5.9088,-6.0589,-5.9281,-5.728,-5.4741,-5.4549,-5.2664,-4.8394,-4.9009,-4.8663,-4.7,-4.6923,-4.6509,-4.5671,-4.6432,-4.6394,0.0,0.0,0.0,0.0,-4.5594,0.0,-4.4316,-4.4316,-4.4316,-4.4316,-4.4239,-4.4778,-4.5518,-4.4624,-4.3855,-4.3201,-4.3201,-4.3201,-4.3162,-4.3162,-4.2624,-4.1923,-4.1808,-4.1846,-4.1923,-4.1885,-4.247,-4.3355,-4.4124,-4.4355,-4.4547,-4.5402,-4.5594,-4.5594,-4.5594,-4.5594,-4.5586,-4.5577,-4.5547,-4.5278,-4.4414,-4.4269,-4.3701,-4.2077,0.0,-4.147,-4.0669,-3.9861,-3.9631,-4.04,-3.9823,-3.9008,-3.8084,-3.8007,-3.7315,-3.5615,-3.5008,-3.5063,-3.5861,-3.6183,-3.6699,-3.7492,-3.8285,-3.8689,-3.8689,-3.8689,-3.9093,-3.9916,-4.0744,-4.1499,-4.2323,-4.313,-4.3515,-4.3515,-4.3515,-4.3515,-4.3515,-4.3515,-4.3515,-4.3515,-4.3515,-4.3515,-4.3515,-4.3515,-4.3515,-4.3515,-4.6672,-4.7048,-4.7471,-4.7471,-4.7625,-4.8086,-4.8933,-5.1587,-5.4203,-5.6099,-5.8011,-5.9742,-6.1281,-6.1243,-6.0781,-5.9896,-5.9435,-5.8127,-5.5549,-5.5395,-5.378,-5.0202,-5.025,-4.9548,-4.7817,-4.7192,-4.6778,-4.6586,-4.6124,-4.5825,-4.5594,0.0,0.0,0.0,0.0,0.0,-4.4316,-4.4316,-4.4316,-4.4239,-4.3662,-4.4278,-4.5518,-4.4624,-4.4586,-4.4979,-4.4979,-4.4547,-4.397,-4.397,-4.3855,-4.3431,-4.2192,-4.2662,-4.3547,-4.2931,-4.3355,-4.4162,-4.5017,-4.5287,-4.5325,-4.5556,-4.5594,-4.5594,-4.5594,-4.5594,-4.5541,-4.5273,-4.4921,-4.4495,-4.4029,-4.3655,-4.3047,-4.1962,0.0,0.0,-4.1393,-4.0739,-4.0285,-4.0477,-4.0323,-3.9631,-3.8123,-3.8007,-3.7315,-3.5615,-3.519,-3.5249,-3.5872,-3.6348,-3.6865,-3.747,-3.8285,-3.8689,-3.8689,-3.8689,-3.9093,-3.9916,-4.0744,-4.1499,-4.2323,-4.313,-4.3515,-4.3515,-4.3515,-4.3515,-4.3515,-4.3515,-4.3515,-4.3515,-4.3515,-4.3515,-4.3515,-4.3515,-4.3515,-4.3515,-4.7038,-4.8163,-4.924,-4.924,-5.0164,-5.0818,-5.0548,-5.2433,-5.4664,-5.6714,-5.8588,-6.0012,-6.0858,-6.1281,-6.0973,-5.9627,-5.9511,-5.8434,-5.5857,-5.6049,-5.4741,-5.1356,-5.1202,-5.024,-4.8163,-4.7663,-4.7086,-4.6317,-4.6201,-4.597,-4.5594,0.0,0.0,0.0,0.0,-4.5325,-4.4855,-4.4855,-4.4855,-4.4816,-4.4393,-4.4748,0.0,-4.5056,-4.5171,-4.5594,-4.5594,-4.5287,-4.4855,-4.4855,-4.4624,-4.4085,-4.2777,-4.3278,-4.4124,-4.3355,-4.3932,-4.4979,-4.5479,-4.5594,-4.5594,-4.5594,-4.5594,-4.5594,-4.5594,-4.5475,-4.5351,-4.5148,-4.4728,-4.4162,-4.3236,-4.3145,-4.2896,0.0,-4.1619,-4.1433,-4.1577,-4.1289,-4.0931,-4.0554,-4.0516,-3.9977,-3.87,-3.8238,-3.7469,-3.6115,-3.5438,-3.5495,-3.6389,-3.6607,-3.7094,-3.8006,-3.8799,-3.9056,-3.8689,-3.9056,-3.9643,-4.0414,-4.0875,-4.1699,-4.2837,-4.3277,-4.3515,-4.3515,-4.3515,-4.3515,-4.3515,-4.3515,-4.3515,-4.3515,-4.3515,-4.3515,-4.3515,-4.3515,-4.3515,-4.3515,-4.7663,-4.9433,-5.1174,-5.1058,-5.2933,-5.4049,-5.2769,-5.3395,-5.478,-5.6907,-5.8127,-5.9011,-5.9627,-6.0358,-6.0396,-5.9435,-5.9358,-5.8319,-5.5857,-5.6406,-5.5395,-5.2192,-5.2077,-5.0808,-4.8163,-4.8086,-4.7278,-4.5594,-4.6355,-4.6355,0.0,0.0,0.0,0.0,0.0,0.0,0.0,-4.5594,-4.5594,-4.5594,-4.5594,-4.5594,-4.5594,-4.5594,-4.5594,-4.5594,-4.5594,-4.5594,-4.5586,-4.5559,-4.5042,-4.4273,-4.3466,-4.3735,-4.4235,-4.3462,-4.4355,-4.5594,-4.5594,-4.5594,-4.5594,-4.5594,-4.5594,-4.5594,-4.5594,-4.5381,-4.5148,-4.5033,-4.4761,-4.4033,-4.2461,-4.2624,-4.2787,0.0,-4.2234,-4.2106,-4.1639,-4.1647,-4.1459,-4.0699,-4.0531,0.0,-3.9515,-3.8661,-3.7777,-3.6769,-3.5844,-3.5807,-3.6912,-3.6855,-3.731,-3.8544,-3.9344,-3.946,-3.8872,-3.946,-4.0267,-4.1242,-4.1132,-4.1956,-4.3515,-4.3515,-4.3515,-4.3515,-4.3515,-4.3515,-4.3515,-4.3515,-4.3515,-4.3515,-4.3515,-4.3515,-4.3515,-4.3515,-4.3515,-4.3515,-4.9933,-5.2087,-5.3626,-5.2895,-5.3741,-5.4857,-5.5934,-5.7396,-5.8319,-5.8088,-6.0012,-6.1204,-6.0627,-6.0704,-6.0165,-5.8627,-5.8511,-5.7703,-5.5818,-5.5818,-5.5049,-5.3049,-5.2972,-5.1433,-4.8163,-4.8086,-4.7278,-4.5594,-4.5748,-4.5748,-4.5594,0.0,0.0,0.0,0.0,0.0,-4.5594,-4.5594,0.0,-4.5594,-4.5594,-4.5594,-4.5594,-4.5594,-4.5594,-4.5594,-4.5594,-4.5594,-4.5559,-4.5273,-4.5076,-4.4809,-4.3958,-4.4263,-4.485,-4.4255,-4.4816,-4.5594,-4.5594,-4.5594,-4.5594,-4.5594,-4.5594,-4.5594,-4.5594,-4.5559,-4.5371,-4.4812,-4.4279,-4.3687,-4.2829,-4.1903,-4.1656,-4.2875,-4.197,-4.1515,-4.2761,-4.2042,-4.1341,-4.1189,-4.0778,-4.0439,-4.0285,-3.9554,-3.8392,-3.6808,-3.651,-3.6435,-3.6444,-3.681,-3.7341,-3.8029,-3.8619,-3.9166,-3.968,-3.9166,-3.9974,-4.2103,-4.1425,-4.1956,-4.3515,-4.3515,-4.3515,-4.3515,-4.3515,-4.3515,-4.3515,-4.3515,-4.3515,-4.3515,-4.3515,-4.3515,-4.3515,-4.3515,-4.3515,-4.3515,-5.3049,-5.428,-5.5126,-5.5164,-5.6242,-5.7357,-5.8165,-5.9358,-5.9704,-5.8473,-5.9358,-5.9781,-5.8896,-5.9588,-5.9435,-5.7769,-5.7627,-5.7088,-5.578,-5.5703,-5.4934,-5.328,-5.2779,-5.1164,-4.8163,-4.7702,-4.6855,-4.5594,-4.5594,-4.5594,-4.5594,-4.5594,0.0,0.0,0.0,-4.5594,0.0,0.0,-4.5594,-4.5594,-4.5594,-4.5594,-4.5594,-4.5594,-4.5594,-4.5577,-4.541,-4.5361,-4.5341,-4.5159,-4.4977,-4.4697,-4.3839,-4.4258,-4.4946,-4.424,-4.4795,-4.5594,-4.5594,-4.5594,-4.5594,-4.5594,-4.5594,-4.5594,-4.5594,-4.5313,-4.4988,-4.4676,-4.41,-4.3557,-4.3235,-4.1942,-4.1481,-4.3133,-4.2884,-4.2585,-4.2997,-4.2392,-4.1777,-4.1348,-4.0828,-4.0516,-4.0516,-4.0169,-3.94,-3.8123,-3.7199,-3.6757,-3.6907,-3.7045,-3.7338,-3.7886,-3.9239,-3.9753,-3.9276,-4.0157,-4.0928,-4.1699,-4.1699,-4.2359,-4.3515,-4.3515,-4.3515,-4.3515,-4.3515,-4.3515,-4.3515,-4.3515,-4.3515,-4.3515,-4.3515,-4.3515,-4.3515,-4.3515,-4.3515,-4.3515,-5.5434,-5.6011,-5.6472,-5.7165,-5.8511,-5.9511,-5.9511,-6.0242,-6.0319,-5.9011,-5.8819,-5.8511,-5.7627,-5.8704,-5.8819,-5.7165,-5.7011,-5.6637,-5.5742,-5.5703,-5.4934,-5.328,-5.2538,-5.0885,-4.8163,-4.7471,-4.6624,-4.5594,-4.5594,-4.5594,-4.5594,-4.5594,-4.5594,0.0,0.0,-4.5594,-4.5594,-4.5594,-4.5594,-4.5594,-4.5594,-4.5594,-4.5594,-4.5594,-4.5594,-4.5568,-4.5283,-4.5169,-4.5115,-4.5115,-4.4837,-4.4355,-4.3767,-4.4245,-4.4897,-4.4319,-4.4863,-4.5586,-4.5494,-4.5475,-4.5475,-4.5475,-4.5438,-4.5429,-4.5568,-4.5066,-4.4612,-4.4612,-4.4004,-4.3515,-4.3515,-4.2323,-4.1846,-4.3294,-4.3578,-4.3488,-4.3011,-4.2636,-4.2178,-4.1521,-4.0908,-4.0516,-4.0516,-4.0516,-4.0246,-3.9592,-3.7969,-3.7164,-3.7597,-3.7265,-3.7373,-3.7965,-3.9874,-4.0341,-3.9224,-4.1111,-4.1919,-4.1625,-4.2103,-4.2727,-4.3515,-4.3515,-4.3515,-4.3515,-4.3515,-4.3515,-4.3515,-4.3515,-4.3515,-4.3515,-4.3515,-4.3515,-4.3515,-4.3515,-4.3515,-4.3515,-5.5665,-5.6973,-5.8088,-5.8165,-5.8896,-5.9511,-5.9511,-6.0242,-6.0742,-6.0589,-6.055,-6.0242,-5.9358,-5.9396,-5.8819,-5.7137,-5.6983,-5.6637,-5.5742,-5.5703,-5.4934,-5.328,-5.3126,-5.151,-4.8163,-4.8048,-4.7201,-4.5594,-4.5594,-4.5594,-4.5594,-4.5594,-4.5594,-4.5594,-4.5594,-4.5594,-4.5594,-4.5594,-4.5594,-4.5594,-4.5594,-4.5594,-4.5594,-4.5594,-4.5594,-4.5586,-4.5568,-4.5371,-4.5115,-4.5115,-4.4638,-4.4117,-4.4393,-4.4549,-4.4738,-4.5275,-4.55,-4.5541,-4.5232,-4.5159,-4.5159,-4.5159,-4.4919,-4.4861,-4.5457,-4.5066,-4.4612,-4.4612,-4.4004,-4.3515,-4.3515,-4.2763,-4.247,-4.3368,-4.2907,-4.2684,-4.3345,-4.2632,-4.202,-4.1945,-4.1094,-4.0516,-4.0516,-4.0516,-4.0477,-4.04,-3.8815,-3.7885,-3.7939,-3.7413,-3.7476,-3.8256,-3.9392,-4.0304,-4.0875,-4.1095,-4.1919,-4.3294,-4.2616,-4.2727,-4.3515,-4.3515,-4.3515,-4.3515,-4.3515,-4.3515,-4.3515,-4.3515,-4.3515,-4.3515,-4.3515,-4.3515,-4.3515,-4.3515,-4.3515,-4.3515,-5.7973,-5.8165,-5.8627,-5.9627,-5.9627,-5.9858,-6.0896,-6.0896,-6.0781,-6.0781,-6.0781,-6.0281,-5.8934,-5.8781,-5.8088,-5.6357,-5.6214,-5.6049,-5.5703,-5.5703,-5.4934,-5.328,-5.2692,-5.1318,-4.8933,-4.7894,-4.7048,-4.6394,-4.6394,-4.6394,-4.6394,-4.6394,-4.6086,-4.5594,-4.5594,-4.5594,-4.5594,-4.5594,-4.5594,-4.5594,-4.5594,-4.5594,-4.5594,-4.5594,-4.5594,-4.5577,-4.5381,-4.5211,-4.5094,-4.4872,-4.4587,-4.4373,-4.4559,-4.4751,-4.4954,-4.5222,-4.5283,-4.5263,-4.5148,-4.4943,-4.4812,-4.4812,-4.4714,-4.4688,-4.4943,-4.4612,-4.4233,-4.4233,-4.3447,-4.291,-4.3404,-4.2433,-4.1992,-4.3277,-4.28,-4.258,-4.3404,-4.2507,-4.1758,-4.1758,-4.0875,-4.0269,-4.0269,-4.0397,-4.0516,-4.0516,-3.9438,-3.8685,-3.8499,-3.8064,-3.7908,-3.8053,-3.9719,-4.0561,-4.0377,-4.1809,-4.2616,-4.2763,-4.2947,-4.3167,-4.3515,-4.3515,-4.3515,-4.3515,-4.3515,-4.3515,-4.3515,-4.3515,-4.3515,-4.3515,-4.3515,-4.3515,-4.3515,-4.3515,-4.3515,-4.3515,-5.9435,-5.905,-5.9127,-6.055,-6.0281,-6.0281,-6.1524,-6.1204,-6.0704,-6.0435,-6.0435,-5.9896,-5.8434,-5.8088,-5.7319,-5.5818,-5.5703,-5.5703,-5.5703,-5.5703,-5.4934,-5.328,-5.2615,-5.1395,-4.9433,-4.8009,-4.7154,-4.6885,-4.6624,-4.6509,-4.6509,-4.6509,-4.6201,-4.5594,-4.5594,-4.5594,-4.5594,-4.5594,-4.5594,-4.5594,-4.5594,-4.5594,-4.5594,-4.5594,-4.5594,-4.5568,-4.5313,-4.5243,-4.5211,-4.4977,-4.4837,-4.4751,-4.4751,-4.4908,-4.5137,-4.5222,-4.518,-4.5094,-4.4977,-4.4676,-4.4414,-4.4414,-4.4332,-4.4341,-4.4559,-4.419,-4.3849,-4.3849,-4.3201,-4.2837,-4.3387,-4.2396,-4.1809,-4.2947,-4.2653,-4.2433,-4.2763,-4.2088,-4.151,-4.1249,-4.0474,-3.9962,-3.9962,-4.0139,-4.0266,-4.0372,-3.9776,-3.9344,-3.9195,-3.8845,-3.8638,-3.8606,-4.0456,-4.1185,-4.0598,-4.2523,-4.3221,-4.2653,-4.3204,-4.3515,-4.3515,-4.3515,-4.3515,-4.3515,-4.3515,-4.3515,-4.3515,-4.3515,-4.3515,-4.3515,-4.3515,-4.3515,-4.3515,-4.3515,-4.3662,-4.3864,-5.9358,-5.9473,-5.9742,-6.0666,-6.0781,-6.0781,-6.0819,-6.0819,-6.0473,-5.9627,-5.9511,-5.9204,-5.8396,-5.7511,-5.6676,-5.578,-5.5703,-5.5703,-5.5703,-5.5703,-5.4934,-5.328,-5.3203,-5.201,-4.9471,-4.8548,-4.7702,-4.6885,-4.6047,-4.5633,-4.5633,-4.5633,-4.5594,-4.5594,-4.5594,-4.5594,-4.5594,-4.5594,-4.5594,-4.5594,-4.5594,-4.5594,-4.5594,-4.5594,-4.5594,-4.5594,-4.5586,-4.5586,-4.5586,-4.5586,-4.5381,-4.5077,-4.5077,-4.5115,-4.5169,-4.5514,-4.5371,-4.5011,-4.4701,-4.4304,-4.3998,-4.3998,-4.3775,-4.3677,-4.4414,-4.402,-4.3515,-4.3515,-4.3515,-4.3515,-4.3515,-4.2837,-4.2286,-4.2323,-4.2323,-4.2029,-4.1242,-4.1422,-4.1287,-4.043,-3.9902,-3.963,-3.963,-3.9592,-3.9754,-4.0062,-3.9797,-3.9716,-4.0062,-3.9716,-3.9727,-4.0258,-4.1578,-4.2286,-4.2286,-4.3094,-4.3515,-4.3515,-4.3515,-4.3515,-4.3515,-4.3515,-4.3515,-4.3515,-4.3515,-4.3515,-4.3515,-4.3515,-4.3515,-4.3515,-4.3515,-4.3515,-4.3515,-4.3515,-4.4011,-4.4709,-6.0319,-6.0396,-6.0473,-6.0742,-6.0781,-6.0781,-6.0781,-6.0781,-6.0473,-5.9627,-5.9011,-5.8588,-5.8319,-5.7511,-5.6907,-5.6599,-5.6049,-5.5703,-5.5703,-5.5703,-5.4934,-5.328,-5.3203,-5.2279,-5.0327,-4.8856,-4.7971,-4.774,-4.6894,-4.6509,-4.6509,-4.6509,-4.6163,-4.5594,-4.5594,-4.5594,-4.5594,-4.5594,-4.5594,-4.5594,-4.5594,-4.5594,-4.5594,-4.5594,-4.5594,-4.5594,-4.5594,-4.5594,-4.5568,-4.5351,-4.5361,-4.541,-4.518,-4.5115,-4.5169,-4.5485,-4.5211,-4.4751,-4.4637,-4.4154,-4.3644,-4.3644,-4.358,-4.3546,-4.3791,-4.3681,-4.3515,-4.3515,-4.3515,-4.3515,-4.3515,-4.2837,-4.2286,-4.2286,-4.1846,-4.1389,-4.1132,-4.0709,-4.036,-4.005,-3.9584,-3.9251,-3.9251,-3.9462,-3.9626,-3.9754,-3.9861,-4.0127,-4.0526,-4.0253,-4.0282,-4.0824,-4.1801,-4.2286,-4.2286,-4.3094,-4.3515,-4.3515,-4.3515,-4.3515,-4.3515,-4.3515,-4.3515,-4.3515,-4.3515,-4.3515,-4.3515,-4.3515,-4.3515,-4.3515,-4.3515,-4.3515,-4.3515,-4.3515,-4.4011,-4.4691,-6.0781,-6.0781,-6.0781,-6.0781,-6.0781,-6.0781,-6.0781,-6.0781,-6.0358,-5.9204,-5.8627,-5.8319,-5.8319,-5.7242,-5.6637,-5.6983,-5.6214,-5.5703,-5.5703,-5.5703,-5.4934,-5.328,-5.3203,-5.2433,-5.075,-4.9317,-4.8586,-4.8586,-4.7471,-4.674,-4.6394,-4.6394,-4.6124,-4.5594,-4.5594,-4.5594,-4.5594,-4.5594,-4.5594,-4.5594,-4.5594,-4.5594,-4.5594,-4.5594,-4.5594,-4.5594,-4.5594,-4.5532,-4.54,-4.5341,-4.5253,-4.5232,-4.5263,-4.5201,-4.5148,-4.5361,-4.5022,-4.4585,-4.4401,-4.3943,-4.3515,-4.3515,-4.3515,-4.3515,-4.3515,-4.3515,-4.3515,-4.3515,-4.3515,-4.3515,-4.3515,-4.2837,-4.2213,-4.1919,-4.1425,-4.0875,-4.0288,-4.0047,-3.979,-3.9496,-3.9136,-3.8947,-3.8947,-3.9154,-3.9301,-3.9401,-3.9512,-4.0039,-4.1053,-4.1012,-4.1146,-4.1532,-4.2323,-4.2763,-4.2763,-4.324,-4.3515,-4.3515,-4.3515,-4.3515,-4.3515,-4.3515,-4.3515,-4.3515,-4.3515,-4.3515,-4.3515,-4.3515,-4.3515,-4.3515,-4.3515,-4.3515,-4.3515,-4.3515,-4.4011,-4.4691,-6.0781,-6.0781,-6.0781,-6.0781,-6.0781,-6.0781,-6.0781,-6.0781,-6.0204,-5.8588,-5.8319,-5.8319,-5.8319,-5.6742,-5.6049,-5.6907,-5.6214,-5.5703,-5.5703,-5.5703,-5.4934,-5.328,-5.3203,-5.2433,-5.075,-4.9856,-4.9356,-4.9317,-4.7702,-4.6471,-4.571,-4.5633,-4.5594,-4.5594,-4.5594,-4.5594,-4.5594,-4.5594,-4.5594,-4.5594,-4.5594,-4.5594,-4.5594,-4.5594,-4.5594,-4.5594,-4.5594,-4.54,-4.518,-4.5457,-4.5169,-4.4751,-4.5381,-4.5361,-4.5115,-4.5115,-4.4861,-4.4495,-4.4102,-4.3758,-4.3515,-4.3515,-4.3515,-4.3515,-4.3515,-4.3515,-4.3515,-4.3515,-4.3515,-4.3515,-4.3515,-4.2873,-4.2103,-4.1242,-4.1095,-4.0545,-3.8946,-3.935,-3.957,-3.8872,-3.8799,-3.8799,-3.8872,-3.8872,-3.8951,-3.9212,-3.9039,-3.9733,-4.1526,-4.1914,-4.2165,-4.2376,-4.3094,-4.3515,-4.3515,-4.3515,-4.3515,-4.3515,-4.3515,-4.3515,-4.3515,-4.3515,-4.3515,-4.3515,-4.3515,-4.3515,-4.3515,-4.3515,-4.3515,-4.3515,-4.3515,-4.3515,-4.3515,-4.3515,-4.4048,-4.4764,-6.0781,-6.0781,-6.0781,-6.0781,-6.0781,-6.0781,-6.0781,-6.0781,-6.0435,-5.9358,-5.8665,-5.8319,-5.8319,-5.6742,-5.6049,-5.6907,-5.6214,-5.5703,-5.5703,-5.5703,-5.4934,-5.328,-5.3203,-5.2433,-5.075,-4.9856,-4.9086,-4.8394,-4.7394,-4.6778,-4.6586,-4.5893,-4.5594,-4.5594,-4.5594,-4.5594,-4.5594,-4.5594,-4.5594,-4.5594,-4.5594,-4.5594,-4.5594,-4.5594,-4.5594,-4.5594,-4.5594,-4.5559,-4.5448,-4.5273,-4.5126,-4.5,-4.518,-4.5169,-4.5115,-4.5115,-4.4861,-4.4495,-4.4102,-4.3758,-4.3515,-4.3515,-4.3515,-4.3515,-4.3515,-4.3515,-4.3515,-4.3515,-4.3515,-4.3515,-4.3515,-4.3314,-4.2763,-4.1315,-4.1095,-4.0545,-3.8946,-3.8872,-3.9129,-3.957,-3.9606,-3.9863,-4.0471,-4.0508,-4.0556,-4.0614,-4.0792,-4.1252,-4.2067,-4.2426,-4.2782,-4.3184,-4.3387,-4.3515,-4.3515,-4.3515,-4.3515,-4.3515,-4.3515,-4.3515,-4.3515,-4.3515,-4.3515,-4.3515,-4.3515,-4.3515,-4.3515,-4.3515,-4.3515,-4.3515,-4.3515,-4.3515,-4.3515,-4.3515,-4.4378,-4.5516,-6.0781,-6.0781,-6.0781,-6.0781,-6.0781,-6.0781,-6.0781,-6.0781,-6.0473,-5.9627,-5.9127,-5.8704,-5.8357,-5.7088,-5.6483,-5.6945,-5.6214,-5.5703,-5.5703,-5.5703,-5.4934,-5.328,-5.3203,-5.2433,-5.075,-5.025,-4.9586,-4.8702,-4.8279,-4.7855,-4.7432,-4.6586,-4.6201,-4.6163,-4.5787,-4.5594,-4.5594,-4.5594,-4.5594,-4.5594,-4.5594,-4.5594,-4.5594,-4.5594,-4.5594,-4.5594,-4.5594,-4.5485,-4.5381,-4.5351,-4.5099,-4.4919,-4.5232,-4.5222,-4.5055,-4.4919,-4.4751,-4.4493,-4.3912,-4.3647,-4.3515,-4.3515,-4.3515,-4.3515,-4.3515,-4.3515,-4.3515,-4.3515,-4.3515,-4.3515,-4.3515,-4.3515,-4.2947,-4.1352,-4.1095,-4.0655,-3.9423,-3.9239,-3.9533,-4.0341,-4.0451,-4.0634,-4.1058,-4.1095,-4.1095,-4.1095,-4.1267,-4.163,-4.2266,-4.2447,-4.2848,-4.3478,-4.3515,-4.3515,-4.3515,-4.3515,-4.3515,-4.3515,-4.3515,-4.3515,-4.3515,-4.3515,-4.3515,-4.3515,-4.3515,-4.3515,-4.3515,-4.3515,-4.3515,-4.3515,-4.3515,-4.3515,-4.3515,-4.3515,-4.4268,-4.5296,-6.0781,-6.0781,-6.0781,-6.0781,-6.0781,-6.0781,-6.0781,-6.0781,-6.0512,-5.9781,-5.9588,-5.9204,-5.8396,-5.7511,-5.6945,-5.683,-5.6126,-5.5703,-5.5703,-5.5703,-5.4934,-5.328,-5.3203,-5.2433,-5.075,-5.0712,-5.0327,-4.9586,-4.9471,-4.9009,-4.8279,-4.7471,-4.7077,-4.7038,-4.6317,-4.5902,-4.5787,-4.5787,-4.571,-4.5594,-4.5594,-4.5594,-4.5594,-4.5594,-4.5594,-4.5594,-4.5594,-4.5419,-4.5222,-4.5485,-4.5201,-4.48,-4.541,-4.5381,-4.5022,-4.4714,-4.465,-4.4482,-4.3693,-4.3515,-4.3515,-4.3515,-4.3515,-4.3515,-4.3515,-4.3515,-4.3515,-4.3515,-4.3515,-4.3515,-4.3515,-4.3515,-4.2947,-4.1352,-4.1205,-4.0965,-4.001,-4.001,-4.0377,-4.1168,-4.1279,-4.1315,-4.1462,-4.1462,-4.1462,-4.1462,-4.1462,-4.1772,-4.2433,-4.247,-4.28,-4.3478,-4.3515,-4.3515,-4.3515,-4.3515,-4.3515,-4.3515,-4.3515,-4.3515,-4.3515,-4.3515,-4.3515,-4.3515,-4.3515,-4.3515,-4.3515,-4.3515,-4.3515,-4.3515,-4.3515,-4.3515,-4.3497,-4.3644,-4.4195,-4.4874,-6.0781,-6.0781,-6.0781,-6.0781,-6.0781,-6.0781,-6.0781,-6.0781,-6.0742,-6.0627,-5.9973,-5.9204,-5.8396,-5.7511,-5.6714,-5.5972,-5.578,-5.5703,-5.5703,-5.5703,-5.4934,-5.328,-5.3203,-5.2433,-5.075,-5.0712,-5.0635,-5.0519,-4.974,-4.9317,-4.9163,-4.8317,-4.7932,-4.7932,-4.7778,-4.7317,-4.6701,-4.6701,-4.6278,-4.5594,-4.5594,-4.5594,-4.5594,-4.5594,-4.5594,-4.5594,-4.5594,-4.5568,-4.5541,-4.5577,-4.5323,-4.5105,-4.5466,-4.5381,-4.5022,-4.4714,-4.4812,-4.4812,-4.3775,-4.3515,-4.3515,-4.3515,-4.3515,-4.3515,-4.3515,-4.3515,-4.3515,-4.3515,-4.3515,-4.3515,-4.3515,-4.3515,-4.2947,-4.1352,-4.1662,-4.1589,-4.012,-4.0487,-4.1205,-4.2029,-4.2103,-4.2396,-4.3057,-4.313,-4.313,-4.313,-4.313,-4.3167,-4.3314,-4.3314,-4.3351,-4.3515,-4.3515,-4.3515,-4.3515,-4.3515,-4.3515,-4.3515,-4.3515,-4.3515,-4.3515,-4.3515,-4.3515,-4.3515,-4.3515,-4.3515,-4.3515,-4.3515,-4.3515,-4.3515,-4.3515,-4.3515,-4.3588,-4.4268,-4.5039,-4.5645,-6.0781,-6.0781,-6.0781,-6.0781,-6.0781,-6.0781,-6.0781,-6.0781,-6.0781,-6.0781,-6.0435,-5.9896,-5.905,-5.8204,-5.7357,-5.6483,-5.5972,-5.5703,-5.5703,-5.5703,-5.4934,-5.328,-5.3203,-5.2433,-5.075,-5.0712,-5.0712,-5.0712,-5.0289,-5.0087,-5.0087,-4.9202,-4.8817,-4.8779,-4.8317,-4.7663,-4.6885,-4.6885,-4.6394,-4.5594,-4.5594,-4.5594,-4.5594,-4.5594,-4.5594,-4.5594,-4.5594,-4.5594,-4.5594,-4.5594,-4.539,-4.5169,-4.5475,-4.5381,-4.5094,-4.4919,-4.4561,-4.4161,-4.3849,-4.3647,-4.3515,-4.3515,-4.3515,-4.3515,-4.3515,-4.3515,-4.3515,-4.3515,-4.3515,-4.3515,-4.3515,-4.3515,-4.313,-4.1956,-4.2066,-4.2029,-4.1295,-4.1515,-4.2029,-4.2837,-4.2947,-4.3094,-4.3478,-4.3515,-4.3515,-4.3515,-4.3515,-4.3515,-4.3515,-4.3515,-4.3515,-4.3515,-4.3515,-4.3515,-4.3515,-4.3515,-4.3515,-4.3515,-4.3515,-4.3515,-4.3515,-4.3515,-4.3515,-4.3515,-4.3515,-4.3515,-4.3515,-4.3515,-4.3515,-4.3515,-4.3515,-4.3515,-4.3551,-4.3901,-4.4638,-4.5321,-6.0781,-6.0781,-6.0781,-6.0781,-6.0781,-6.0781,-6.0781,-6.0781,-6.0781,-6.0781,-6.0781,-6.0473,-5.9588,-5.8781,-5.7934,-5.7099,-5.6214,-5.5703,-5.5703,-5.5703,-5.5049,-5.3587,-5.3126,-5.2202,-5.075,-5.0712,-5.0712,-5.0712,-5.0712,-5.0712,-5.0712,-5.001,-4.9702,-4.9663,-4.9009,-4.824,-4.7471,-4.7269,-4.6663,-4.5893,-4.5671,-4.5594,-4.5594,-4.5594,-4.5594,-4.5594,-4.5594,-4.5594,-4.5594,-4.5594,-4.5429,-4.5253,-4.5532,-4.5419,-4.5201,-4.5137,-4.4455,-4.3791,-4.3974,-4.3802,-4.3597,-4.3532,-4.3644,-4.3791,-4.3791,-4.3901,-4.4048,-4.4048,-4.3901,-4.3791,-4.3791,-4.3625,-4.3258,-4.2433,-4.247,-4.2506,-4.2323,-4.247,-4.28,-4.3441,-4.3515,-4.3515,-4.3515,-4.3515,-4.3515,-4.3515,-4.3515,-4.3515,-4.3515,-4.3515,-4.3515,-4.3515,-4.3515,-4.3515,-4.3515,-4.3515,-4.3515,-4.3515,-4.3515,-4.3515,-4.3515,-4.3515,-4.3515,-4.3515,-4.3515,-4.3515,-4.3515,-4.3515,-4.3515,-4.3515,-4.3515,-4.3515,-4.3551,-4.3901,-4.4546,-4.5164,-6.0781,-6.0781,-6.0781,-6.0781,-6.0781,-6.0781,-6.0781,-6.0781,-6.0781,-6.0781,-6.0781,-6.0473,-5.9588,-5.8781,-5.7934,-5.7099,-5.6214,-5.5703,-5.5703,-5.5703,-5.5318,-5.4434,-5.2856,-5.1587,-5.0712,-5.0712,-5.0712,-5.0712,-5.0712,-5.0712,-5.0712,-5.0635,-5.0596,-5.0596,-5.0558,-5.001,-4.9163,-4.8355,-4.7548,-4.674,-4.5932,-4.5594,-4.5594,-4.5594,-4.5594,-4.5594,-4.5594,-4.5594,-4.5594,-4.5594,-4.5577,-4.5568,-4.5586,-4.5577,-4.5485,-4.5191,-4.4837,-4.4428,-4.4087,-4.3967,-4.3896,-4.358,-4.4048,-4.4635,-4.4635,-4.5186,-4.57,-4.57,-4.5149,-4.4635,-4.4635,-4.4011,-4.3258,-4.2433,-4.291,-4.313,-4.2396,-4.2947,-4.3441,-4.3515,-4.3515,-4.3515,-4.3515,-4.3515,-4.3515,-4.3515,-4.3515,-4.3515,-4.3515,-4.3515,-4.3515,-4.3515,-4.3515,-4.3515,-4.3515,-4.3515,-4.3515,-4.3515,-4.3515,-4.3515,-4.3515,-4.3515,-4.3515,-4.3515,-4.3515,-4.3515,-4.3515,-4.3515,-4.3515,-4.3515,-4.3515,-4.3515,-4.3698,-4.5149,-4.5755,-4.5937,-6.0781,-6.0781,-6.0781,-6.0781,-6.0781,-6.0781,-6.0781,-6.0781,-6.0781,-6.0781,-6.0781,-6.0666,-6.0319,-5.9127,-5.8165,-5.7857,-5.6511,-5.5703,-5.5703,-5.5703,-5.5318,-5.4549,-5.2818,-5.2,-5.2241,-5.1241,-5.0933,-5.1433,-5.0933,-5.0712,-5.0712,-5.0712,-5.0712,-5.0712,-5.0712,-5.0212,-4.9356,-4.8471,-4.7625,-4.6808,-4.5932,-4.5594,-4.5594,-4.5594,-4.5594,-4.5594,-4.5594,-4.5594,-4.5594,-4.5594,-4.5594,-4.571,-4.624,-4.6394,-4.6491,-4.6858,-4.6873,-4.6697,-4.6316,-4.5679,-4.5025,-4.4655,-4.5189,-4.5753,-4.5515,-4.5663,-4.5883,-4.5883,-4.5663,-4.5296,-4.4764,-4.4452,-4.3975,-4.3167,-4.3294,-4.3404,-4.3094,-4.3314,-4.3515,-4.3515,-4.3515,-4.3515,-4.3515,-4.3515,-4.3515,-4.3515,-4.3515,-4.3515,-4.3515,-4.3515,-4.3515,-4.3515,-4.3515,-4.3515,-4.3515,-4.3515,-4.3515,-4.3515,-4.3515,-4.3515,-4.3515,-4.3515,-4.3515,-4.3515,-4.3515,-4.3515,-4.3515,-4.3515,-4.3515,-4.3515,-4.3515,-4.3515,-4.3588,-4.4195,-4.4803,-4.5335,-6.0781,-6.0781,-6.0781,-6.0781,-6.0781,-6.0781,-6.0781,-6.0781,-6.0781,-6.0781,-6.0781,-6.0704,-6.0435,-5.9127,-5.8204,-5.7934,-5.6549,-5.5703,-5.5703,-5.5703,-5.5318,-5.4549,-5.3356,-5.2856,-5.3203,-5.1818,-5.1356,-5.1885,-5.1087,-5.0712,-5.0712,-5.0712,-5.0712,-5.0712,-5.0712,-5.0366,-4.974,-4.8894,-4.8202,-4.7625,-4.674,-4.6394,-4.6355,-4.6086,-4.6163,-4.6355,-4.6086,-4.6163,-4.6394,-4.6394,-4.6394,-4.6471,-4.7086,-4.7278,-4.7394,-4.7932,-4.8086,-4.8049,-4.7803,-4.7339,-4.6733,-4.5844,-4.6249,-4.6785,-4.636,-4.6471,-4.6654,-4.6654,-4.6471,-4.6104,-4.5572,-4.5241,-4.4892,-4.4342,-4.4048,-4.3864,-4.3864,-4.3644,-4.3515,-4.3515,-4.3515,-4.3515,-4.3515,-4.3515,-4.3515,-4.3515,-4.3515,-4.3515,-4.3515,-4.3515,-4.3515,-4.3515,-4.3515,-4.3515,-4.3515,-4.3515,-4.3515,-4.3515,-4.3515,-4.3515,-4.3515,-4.3515,-4.3515,-4.3515,-4.3515,-4.3515,-4.3515,-4.3515,-4.3515,-4.3551,-4.3791,-4.3864,-4.3938,-4.4452,-4.5076,-4.5606,-6.0781,-6.0781,-6.0781,-6.0781,-6.0781,-6.0781,-6.0781,-6.0781,-6.0781,-6.0781,-6.0781,-6.0473,-5.9588,-5.8781,-5.7934,-5.7099,-5.6214,-5.5703,-5.5703,-5.5703,-5.5318,-5.4549,-5.4511,-5.4087,-5.3241,-5.2346,-5.1885,-5.1923,-5.1087,-5.0712,-5.0712,-5.0712,-5.0712,-5.0712,-5.0712,-5.0712,-5.0635,-4.9779,-4.9394,-4.9317,-4.8471,-4.8086,-4.8009,-4.7192,-4.7432,-4.8009,-4.7201,-4.7432,-4.8086,-4.8086,-4.8086,-4.8086,-4.8125,-4.8125,-4.8125,-4.8125,-4.8125,-4.8125,-4.8125,-4.874,-4.8945,-4.702,-4.7106,-4.7623,-4.7187,-4.7736,-4.8306,-4.8306,-4.7663,-4.7113,-4.7113,-4.6471,-4.592,-4.5883,-4.5223,-4.4709,-4.4709,-4.4011,-4.3515,-4.3515,-4.3515,-4.3515,-4.3515,-4.3515,-4.3515,-4.3515,-4.3515,-4.3515,-4.3515,-4.3515,-4.3515,-4.3515,-4.3515,-4.3515,-4.3515,-4.3515,-4.3515,-4.3515,-4.3515,-4.3515,-4.3515,-4.3515,-4.3515,-4.3515,-4.3515,-4.3515,-4.3515,-4.3515,-4.3515,-4.3571,-4.4378,-4.4691,-4.4911,-4.6489,-4.7076,-4.7223,-6.0781,-6.0781,-6.0781,-6.0781,-6.0781,-6.0781,-6.0781,-6.0781,-6.0781,-6.0781,-6.0281,-5.9781,-5.9511,-5.8242,-5.728,-5.7022,-5.6214,-5.5703,-5.5703,-5.5703,-5.5588,-5.5357,-5.478,-5.4626,-5.4934,-5.2972,-5.2192,-5.2818,-5.1395,-5.0712,-5.0712,-5.0712,-5.0712,-5.0712,-5.0712,-5.0712,-5.0635,-4.9779,-4.9394,-4.9317,-4.8471,-4.8086,-4.8086,-4.7817,-4.7894,-4.8086,-4.7817,-4.7894,-4.8086,-4.8086,-4.8086,-4.8202,-4.8817,-4.9433,-4.9933,-4.9933,-4.9933,-4.9933,-4.9933,-5.0087,-4.9908,-4.8112,-4.8348,-4.8765,-4.809,-4.8122,-4.8306,-4.8306,-4.8122,-4.7773,-4.7186,-4.6892,-4.6581,-4.5993,-4.57,-4.5553,-4.5553,-4.5333,-4.4966,-4.4415,-4.4342,-4.4121,-4.3551,-4.3515,-4.3515,-4.3515,-4.3515,-4.3515,-4.3515,-4.3515,-4.3515,-4.3515,-4.3515,-4.3515,-4.3515,-4.3515,-4.3515,-4.3515,-4.3515,-4.3515,-4.3515,-4.3515,-4.3515,-4.3515,-4.3515,-4.3515,-4.3515,-4.3515,-4.3828,-4.4378,-4.4635,-4.5039,-4.559,-4.6067,-4.6599,-4.7113,-6.0781,-6.0781,-6.0781,-6.0781,-6.0781,-6.0781,-6.0781,-6.0781,-6.0781,-6.0781,-6.0319,-5.9742,-5.9088,-5.8396,-5.7599,-5.656,-5.6011,-5.5703,-5.5703,-5.5703,-5.5703,-5.5703,-5.5241,-5.5203,-5.5703,-5.3895,-5.3203,-5.3703,-5.201,-5.1164,-5.1164,-5.0866,-5.0712,-5.0712,-5.101,-5.1164,-5.1164,-5.0971,-5.0702,-5.0356,-4.9817,-4.9394,-4.9086,-4.874,-4.9048,-4.95,-4.8856,-4.9279,-5.001,-4.9356,-4.9125,-4.9202,-4.974,-5.0289,-5.075,-5.1087,-5.1164,-5.1241,-5.1587,-5.1582,-5.1182,-4.9986,-4.9829,-4.9768,-4.8974,-4.882,-4.871,-4.8379,-4.8306,-4.8159,-4.7663,-4.7553,-4.7406,-4.6948,-4.6581,-4.6361,-4.6361,-4.6104,-4.559,-4.4819,-4.5002,-4.4856,-4.4048,-4.3975,-4.3828,-4.3515,-4.3515,-4.3515,-4.3515,-4.3515,-4.3515,-4.3515,-4.3515,-4.3515,-4.3515,-4.3515,-4.3515,-4.3515,-4.3515,-4.3515,-4.3515,-4.3515,-4.3515,-4.3515,-4.3515,-4.3681,-4.3938,-4.3625,-4.4158,-4.5186,-4.5186,-4.5663,-4.6434,-4.6728,-4.7168,-4.7553,-6.0781,-6.0781,-6.0781,-6.0781,-6.0781,-6.0781,-6.0781,-6.0781,-6.0781,-6.0781,-6.0742,-6.0089,-5.8588,-5.9011,-5.8473,-5.6126,-5.5934,-5.5895,-5.5818,-5.5818,-5.578,-5.5703,-5.5703,-5.5703,-5.5703,-5.4895,-5.4511,-5.4511,-5.2818,-5.2,-5.2,-5.1279,-5.0943,-5.0981,-5.1702,-5.2,-5.2077,-5.2856,-5.2731,-5.2,-5.2,-5.1587,-5.0827,-5.0048,-5.0702,-5.1808,-5.0279,-5.1241,-5.2972,-5.1433,-5.0943,-5.0943,-5.0943,-5.0943,-5.1048,-5.1808,-5.2,-5.2192,-5.2972,-5.2897,-5.2525,-5.2197,-5.1458,-5.0644,-4.9896,-4.9647,-4.939,-4.86,-4.8343,-4.8306,-4.8306,-4.8306,-4.8306,-4.8306,-4.77,-4.7223,-4.7223,-4.6581,-4.581,-4.5002,-4.5553,-4.57,-4.4892,-4.4745,-4.4415,-4.3772,-4.3588,-4.3551,-4.3625,-4.3551,-4.3515,-4.3515,-4.3515,-4.3515,-4.3515,-4.3515,-4.3515,-4.3515,-4.3515,-4.3515,-4.3515,-4.3515,-4.3515,-4.3515,-4.3588,-4.4011,-4.4654,-4.3975,-4.4599,-4.5993,-4.5993,-4.6507,-4.7296,-4.8049,-4.8306,-4.8306,-6.0781,-6.0781,-6.0781,-6.0781,-6.0781,-6.0781,-6.0781,-6.0781,-6.0781,-6.0781,-6.0204,-5.9627,-5.9281,-5.8819,-5.8357,-5.778,-5.7742,-5.7434,-5.6753,-5.6714,-5.6406,-5.5742,-5.5703,-5.5703,-5.5703,-5.4895,-5.4511,-5.4511,-5.3433,-5.2933,-5.2933,-5.2741,-5.2664,-5.2664,-5.2856,-5.2933,-5.2933,-5.3126,-5.3087,-5.2933,-5.2933,-5.2818,-5.2626,-5.2433,-5.2587,-5.2856,-5.251,-5.2741,-5.3126,-5.2779,-5.2664,-5.2664,-5.2664,-5.2664,-5.2702,-5.2856,-5.2933,-5.2972,-5.3164,-5.2897,-5.2663,-5.29,-5.2536,-5.1822,-5.0758,-5.0031,-4.9537,-4.9353,-4.8783,-4.8306,-4.8306,-4.8306,-4.8306,-4.8306,-4.8159,-4.8049,-4.8049,-4.7902,-4.7498,-4.6672,-4.6746,-4.6526,-4.5736,-4.5076,-4.4892,-4.5333,-4.4195,-4.3754,-4.4415,-4.3828,-4.3515,-4.3515,-4.3515,-4.3515,-4.3515,-4.3515,-4.3515,-4.3515,-4.3515,-4.3515,-4.3515,-4.3515,-4.3515,-4.3551,-4.4158,-4.4562,-4.4745,-4.5186,-4.5957,-4.6819,-4.6819,-4.7333,-4.8086,-4.8233,-4.8306,-4.8306,-6.0781,-6.0781,-6.0781,-6.0781,-6.0781,-6.0781,-6.0781,-6.0781,-6.0781,-6.0781,-6.0396,-5.9973,-5.955,-5.9511,-5.9319,-5.8896,-5.7742,-5.7049,-5.6983,-5.6599,-5.6175,-5.5703,-5.5703,-5.5703,-5.5703,-5.528,-5.5049,-5.5049,-5.4241,-5.3818,-5.3818,-5.3395,-5.3203,-5.3241,-5.3626,-5.3818,-5.3857,-5.4241,-5.4164,-5.3818,-5.3818,-5.3587,-5.3203,-5.3203,-5.3472,-5.378,-5.3356,-5.3203,-5.328,-5.3664,-5.3549,-5.3203,-5.3203,-5.3203,-5.328,-5.3703,-5.3818,-5.3864,-5.4066,-5.3811,-5.3512,-5.3503,-5.3144,-5.2594,-5.1597,-5.1059,-5.0639,-5.0251,-4.9811,-4.9481,-4.9481,-4.9187,-4.893,-4.893,-4.8563,-4.8306,-4.8306,-4.8306,-4.8012,-4.7186,-4.7443,-4.7369,-4.6544,-4.6085,-4.5883,-4.5883,-4.5112,-4.4819,-4.5259,-4.4856,-4.4635,-4.4635,-4.4635,-4.4635,-4.4635,-4.4635,-4.4635,-4.4635,-4.4268,-4.4085,-4.4085,-4.4452,-4.4635,-4.4672,-4.5076,-4.548,-4.5828,-4.5883,-4.6617,-4.7626,-4.7259,-4.759,-4.8306,-4.8306,-4.8306,-4.8306,-6.0781,-6.0781,-6.0781,-6.0781,-6.0781,-6.0781,-6.0781,-6.0781,-6.0781,-6.0781,-6.0781,-6.0512,-5.9819,-6.0358,-6.0512,-5.9781,-5.778,-5.6819,-5.7407,-5.6742,-5.628,-5.6165,-5.6011,-5.5934,-5.5934,-5.578,-5.5703,-5.5703,-5.5011,-5.4703,-5.4703,-5.3972,-5.3626,-5.3664,-5.4395,-5.4703,-5.4741,-5.5434,-5.5318,-5.4703,-5.4703,-5.428,-5.3626,-5.3626,-5.4087,-5.4626,-5.3895,-5.3626,-5.3741,-5.4472,-5.4203,-5.3626,-5.3626,-5.3626,-5.378,-5.4472,-5.4703,-5.4754,-5.5008,-5.4804,-5.4371,-5.3905,-5.3504,-5.3041,-5.2344,-5.2087,-5.1793,-5.1132,-5.0912,-5.0802,-5.0802,-5.0251,-4.9831,-4.9831,-4.9077,-4.8526,-4.8526,-4.8379,-4.803,-4.7369,-4.7902,-4.8049,-4.7369,-4.7186,-4.6856,-4.6361,-4.6067,-4.5957,-4.6104,-4.5957,-4.5883,-4.5883,-4.5883,-4.5883,-4.5883,-4.5883,-4.5883,-4.5883,-4.5369,-4.5039,-4.4929,-4.559,-4.5883,-4.592,-4.6067,-4.6471,-4.7076,-4.6544,-4.7095,-4.8233,-4.7553,-4.77,-4.8306,-4.8306,-4.8306,-4.8306,-6.0781,-6.0781,-6.0781,-6.0781,-6.0781,-6.0781,-6.0781,-6.0781,-6.0781,-6.0781,-6.0781,-6.0742,-6.0627,-6.0742,-6.0742,-6.0627,-6.0319,-5.9819,-5.9204,-5.905,-5.8665,-5.7973,-5.7242,-5.683,-5.683,-5.6088,-5.5703,-5.5703,-5.5588,-5.5549,-5.5549,-5.5434,-5.5357,-5.5357,-5.5472,-5.5549,-5.5549,-5.5665,-5.5626,-5.5549,-5.5549,-5.5472,-5.5357,-5.5357,-5.5434,-5.5511,-5.5395,-5.5357,-5.5395,-5.5511,-5.5472,-5.5357,-5.5357,-5.5357,-5.5395,-5.5511,-5.5549,-5.5484,-5.5174,-5.4804,-5.4371,-5.3905,-5.3504,-5.3167,-5.3078,-5.2491,-5.1977,-5.1867,-5.1279,-5.0802,-5.0802,-5.0729,-5.0655,-5.0655,-4.9958,-4.9427,-4.9427,-4.8783,-4.8269,-4.8159,-4.8233,-4.8269,-4.8159,-4.7516,-4.7333,-4.7939,-4.6691,-4.6214,-4.6892,-4.6287,-4.5883,-4.5883,-4.5883,-4.5883,-4.5883,-4.5883,-4.5883,-4.592,-4.6489,-4.6415,-4.5736,-4.5847,-4.5883,-4.5957,-4.6636,-4.7003,-4.7149,-4.7755,-4.8122,-4.8306,-4.8196,-4.8196,-4.8306,-4.8306,-4.8306,-4.8306,-6.0781,-6.0781,-6.0781,-6.0781,-6.0781,-6.0781,-6.0781,-6.0781,-6.0781,-6.0781,-6.0781,-6.0781,-6.0781,-6.0358,-6.0089,-6.0089,-5.9665,-5.9435,-5.9511,-5.9088,-5.8665,-5.8319,-5.7934,-5.7742,-5.7742,-5.7357,-5.6896,-5.6445,-5.5934,-5.5703,-5.5703,-5.5703,-5.5703,-5.5703,-5.5703,-5.5703,-5.5703,-5.5703,-5.5703,-5.5703,-5.5703,-5.5703,-5.5703,-5.5703,-5.5703,-5.5703,-5.5703,-5.5703,-5.5703,-5.5703,-5.5703,-5.5703,-5.5703,-5.5703,-5.5703,-5.5703,-5.5703,-5.5566,-5.4919,-5.4625,-5.4322,-5.3643,-5.3318,-5.3203,-5.3203,-5.2931,-5.2674,-5.2674,-5.238,-5.216,-5.216,-5.1756,-5.1463,-5.1463,-5.0418,-4.961,-4.961,-4.8857,-4.8306,-4.8306,-4.8306,-4.8306,-4.8306,-4.7976,-4.7939,-4.8269,-4.7645,-4.7388,-4.7736,-4.7425,-4.7241,-4.7241,-4.7241,-4.7241,-4.7241,-4.7241,-4.7241,-4.7241,-4.7609,-4.7333,-4.6581,-4.7058,-4.7241,-4.7278,-4.7645,-4.7773,-4.7773,-4.8159,-4.8306,-4.8306,-4.8306,-4.8306,-4.8306,-4.8306,-4.8306,-4.8306]},{"header":{"parameterUnit":"m.s-1","parameterCategory":1,"la1":30.6,"la2":28.766,"lo1":-90.7593,"lo2":-88.6598,"dy":0.0162,"dx":0.0183,"nx":116,"ny":114,"refTime":"2024-02-10T06:00:00:Z","depth":0,"parameterNumber":3,"parameterNumberName":"V-component_of_WINDS"},"data":[0.0,0.0,0.0,0.0,0.0,0.0,0.0,0.0,0.0,0.0,0.0,0.0,0.0,0.0,0.0,0.0,0.0,0.0,0.0,0.0,0.0,0.0,0.0,0.0,0.0,0.0,0.0,0.0,0.0,0.0,0.0,0.0,0.0,0.0,0.0,0.0,0.0,0.0,0.0,0.0,0.0,0.0,0.0,0.0,0.0,0.0,0.0,0.0,0.0,0.0,0.0,0.0,0.0,0.0,0.0,0.0,0.0,0.0,0.0,0.0,0.0,0.0,0.0,0.0,0.0,0.0,0.0,0.0,0.0,0.0,0.0,0.0,0.0,0.0,0.0,0.0,0.0,0.0,0.0,0.0,0.0,0.0,0.0,0.0,0.0,0.0,0.0,0.0,0.0,0.0,0.0,0.0,0.0,0.0,0.0,0.0,0.0,0.0,0.0,0.0,0.0,0.0,0.0,0.0,0.0,0.0,0.0,0.0,0.0,0.0,0.0,0.0,0.0,0.0,0.0,0.0,0.0,0.0,0.0,0.0,0.0,0.0,0.0,0.0,0.0,0.0,0.0,0.0,0.0,0.0,0.0,0.0,0.0,0.0,0.0,0.0,0.0,0.0,0.0,0.0,0.0,0.0,0.0,0.0,0.0,0.0,0.0,0.0,0.0,0.0,0.0,0.0,0.0,0.0,0.0,0.0,0.0,0.0,0.0,0.0,0.0,0.0,0.0,0.0,0.0,0.0,0.0,0.0,0.0,0.0,0.0,0.0,0.0,0.0,0.0,0.0,0.0,0.0,0.0,0.0,0.0,0.0,0.0,0.0,0.0,0.0,0.0,0.0,0.0,0.0,0.0,0.0,0.0,0.0,0.0,0.0,0.0,0.0,0.0,0.0,0.0,0.0,0.0,0.0,0.0,0.0,0.0,0.0,0.0,0.0,0.0,0.0,0.0,0.0,0.0,0.0,0.0,0.0,0.0,0.0,0.0,0.0,0.0,0.0,0.0,0.0,0.0,0.0,0.0,0.0,0.0,0.0,0.0,0.0,0.0,0.0,0.0,0.0,0.0,0.0,0.0,0.0,0.0,0.0,0.0,0.0,0.0,0.0,0.0,0.0,0.0,0.0,0.0,0.0,0.0,0.0,0.0,0.0,0.0,0.0,0.0,0.0,0.0,0.0,0.0,0.0,0.0,0.0,0.0,0.0,0.0,0.0,0.0,0.0,0.0,0.0,0.0,0.0,0.0,0.0,0.0,0.0,0.0,0.0,0.0,0.0,0.0,0.0,0.0,0.0,0.0,0.0,0.0,0.0,0.0,0.0,0.0,0.0,0.0,0.0,0.0,0.0,0.0,0.0,0.0,0.0,0.0,0.0,0.0,0.0,0.0,0.0,0.0,0.0,0.0,0.0,0.0,0.0,0.0,0.0,0.0,0.0,0.0,0.0,0.0,0.0,0.0,0.0,0.0,0.0,0.0,0.0,0.0,0.0,0.0,0.0,0.0,0.0,0.0,0.0,0.0,0.0,0.0,0.0,0.0,0.0,0.0,0.0,0.0,0.0,0.0,0.0,0.0,0.0,0.0,0.0,0.0,0.0,0.0,0.0,0.0,0.0,0.0,0.0,0.0,0.0,0.0,0.0,0.0,0.0,0.0,0.0,0.0,0.0,0.0,0.0,0.0,0.0,0.0,0.0,0.0,0.0,0.0,0.0,0.0,0.0,0.0,0.0,0.0,0.0,0.0,0.0,0.0,0.0,0.0,0.0,0.0,0.0,0.0,0.0,0.0,0.0,0.0,0.0,0.0,0.0,0.0,0.0,0.0,0.0,0.0,0.0,0.0,0.0,0.0,0.0,0.0,0.0,0.0,0.0,0.0,0.0,0.0,0.0,0.0,0.0,0.0,0.0,0.0,0.0,0.0,0.0,0.0,0.0,0.0,0.0,0.0,0.0,0.0,0.0,0.0,0.0,0.0,0.0,0.0,0.0,0.0,0.0,0.0,0.0,0.0,0.0,0.0,0.0,0.0,0.0,0.0,0.0,0.0,0.0,0.0,0.0,0.0,0.0,0.0,0.0,0.0,0.0,0.0,0.0,0.0,0.0,0.0,0.0,0.0,0.0,0.0,0.0,0.0,0.0,0.0,0.0,0.0,0.0,0.0,0.0,0.0,0.0,0.0,0.0,0.0,0.0,0.0,0.0,0.0,0.0,0.0,0.0,0.0,0.0,0.0,0.0,0.0,0.0,0.0,0.0,0.0,0.0,0.0,0.0,0.0,0.0,0.0,0.0,0.0,0.0,0.0,0.0,0.0,0.0,0.0,0.0,0.0,0.0,0.0,0.0,0.0,0.0,0.0,0.0,0.0,0.0,0.0,0.0,0.0,0.0,0.0,0.0,0.0,0.0,0.0,0.0,0.0,0.0,0.0,0.0,0.0,0.0,0.0,0.0,0.0,0.0,0.0,0.0,0.0,0.0,0.0,0.0,0.0,0.0,0.0,0.0,0.0,0.0,0.0,0.0,0.0,0.0,0.0,0.0,0.0,0.0,0.0,0.0,0.0,0.0,0.0,0.0,0.0,0.0,0.0,0.0,0.0,0.0,0.0,0.0,0.0,0.0,0.0,0.0,0.0,0.0,0.0,0.0,0.0,0.0,0.0,0.0,0.0,0.0,0.0,0.0,0.0,0.0,0.0,0.0,0.0,0.0,0.0,0.0,0.0,0.0,0.0,0.0,0.0,0.0,0.0,0.0,0.0,0.0,0.0,0.0,0.0,0.0,0.0,0.0,0.0,0.0,0.0,0.0,0.0,0.0,0.0,0.0,0.0,0.0,0.0,0.0,0.0,0.0,0.0,0.0,0.0,0.0,0.0,0.0,0.0,0.0,0.0,0.0,0.0,0.0,0.0,0.0,0.0,0.0,0.0,0.0,0.0,0.0,0.0,0.0,0.0,0.0,0.0,0.0,0.0,0.0,0.0,0.0,0.0,0.0,0.0,0.0,0.0,0.0,0.0,0.0,0.0,0.0,0.0,0.0,0.0,0.0,0.0,0.0,0.0,0.0,0.0,0.0,0.0,0.0,0.0,0.0,0.0,0.0,0.0,0.0,0.0,0.0,0.0,0.0,0.0,0.0,0.0,0.0,0.0,0.0,0.0,0.0,0.0,0.0,0.0,0.0,0.0,0.0,0.0,0.0,0.0,0.0,0.0,0.0,0.0,0.0,0.0,0.0,0.0,0.0,0.0,0.0,0.0,0.0,0.0,0.0,0.0,0.0,0.0,0.0,0.0,0.0,0.0,0.0,0.0,0.0,0.0,0.0,0.0,0.0,0.0,0.0,0.0,0.0,0.0,0.0,0.0,0.0,0.0,0.0,0.0,0.0,0.0,0.0,0.0,0.0,0.0,0.0,0.0,0.0,0.0,0.0,0.0,0.0,0.0,0.0,0.0,0.0,0.0,0.0,0.0,0.0,0.0,0.0,0.0,0.0,0.0,0.0,0.0,0.0,0.0,0.0,0.0,0.0,0.0,0.0,0.0,0.0,0.0,0.0,0.0,0.0,0.0,0.0,0.0,0.0,0.0,0.0,0.0,0.0,0.0,0.0,0.0,0.0,0.0,0.0,0.0,0.0,0.0,0.0,0.0,0.0,0.0,0.0,0.0,0.0,0.0,0.0,0.0,0.0,0.0,0.0,0.0,0.0,0.0,0.0,0.0,0.0,0.0,0.0,0.0,0.0,0.0,0.0,0.0,0.0,0.0,0.0,0.0,0.0,0.0,0.0,0.0,0.0,0.0,0.0,0.0,0.0,0.0,0.0,0.0,0.0,0.0,0.0,0.0,0.0,0.0,0.0,0.0,0.0,0.0,0.0,0.0,0.0,0.0,0.0,0.0,0.0,0.0,0.0,0.0,0.0,0.0,0.0,0.0,0.0,0.0,0.0,0.0,0.0,0.0,0.0,0.0,0.0,0.0,0.0,0.0,0.0,0.0,0.0,0.0,0.0,0.0,0.0,0.0,0.0,0.0,0.0,0.0,0.0,0.0,0.0,0.0,0.0,0.0,0.0,0.0,0.0,0.0,0.0,0.0,0.0,0.0,0.0,0.0,0.0,0.0,0.0,0.0,0.0,0.0,0.0,0.0,0.0,0.0,0.0,0.0,0.0,0.0,0.0,0.0,0.0,0.0,0.0,0.0,0.0,0.0,0.0,0.0,0.0,0.0,0.0,0.0,0.0,0.0,0.0,0.0,0.0,0.0,0.0,0.0,0.0,0.0,0.0,0.0,0.0,0.0,0.0,0.0,0.0,0.0,0.0,0.0,0.0,0.0,0.0,0.0,0.0,0.0,0.0,0.0,0.0,0.0,0.0,0.0,0.0,0.0,0.0,0.0,0.0,0.0,0.0,0.0,0.0,0.0,0.0,0.0,0.0,0.0,0.0,0.0,0.0,0.0,0.0,0.0,0.0,0.0,0.0,0.0,0.0,0.0,0.0,0.0,0.0,0.0,0.0,0.0,0.0,0.0,0.0,0.0,0.0,0.0,0.0,0.0,0.0,0.0,0.0,0.0,0.0,0.0,0.0,0.0,0.0,0.0,0.0,0.0,0.0,0.0,0.0,0.0,0.0,0.0,0.0,0.0,0.0,0.0,0.0,0.0,0.0,0.0,0.0,0.0,0.0,0.0,0.0,0.0,0.0,0.0,0.0,0.0,0.0,0.0,0.0,0.0,0.0,0.0,0.0,0.0,0.0,0.0,0.0,0.0,0.0,0.0,0.0,0.0,0.0,0.0,0.0,0.0,0.0,0.0,0.0,0.0,0.0,0.0,0.0,0.0,0.0,0.0,0.0,0.0,0.0,0.0,0.0,0.0,0.0,0.0,0.0,0.0,0.0,0.0,0.0,0.0,0.0,0.0,0.0,0.0,0.0,0.0,0.0,0.0,0.0,0.0,0.0,0.0,0.0,0.0,0.0,0.0,0.0,0.0,0.0,0.0,0.0,0.0,0.0,0.0,0.0,0.0,0.0,0.0,0.0,0.0,0.0,0.0,0.0,0.0,0.0,0.0,0.0,0.0,0.0,0.0,0.0,0.0,0.0,0.0,0.0,0.0,0.0,0.0,0.0,0.0,0.0,0.0,0.0,0.0,0.0,0.0,0.0,0.0,0.0,0.0,0.0,0.0,0.0,0.0,0.0,0.0,0.0,0.0,0.0,0.0,0.0,0.0,0.0,0.0,0.0,0.0,0.0,0.0,0.0,0.0,0.0,0.0,0.0,0.0,0.0,0.0,0.0,0.0,0.0,0.0,0.0,0.0,0.0,0.0,0.0,0.0,0.0,0.0,0.0,0.0,0.0,0.0,0.0,0.0,0.0,0.0,0.0,0.0,0.0,0.0,0.0,0.0,0.0,0.0,0.0,0.0,0.0,0.0,0.0,0.0,0.0,0.0,0.0,0.0,0.0,0.0,0.0,0.0,0.0,0.0,0.0,0.0,0.0,0.0,0.0,0.0,0.0,0.0,0.0,0.0,0.0,0.0,0.0,0.0,0.0,0.0,0.0,0.0,0.0,0.0,0.0,0.0,0.0,0.0,0.0,0.0,0.0,0.0,0.0,0.0,0.0,0.0,0.0,0.0,0.0,0.0,0.0,0.0,0.0,0.0,0.0,0.0,0.0,0.0,0.0,0.0,0.0,0.0,0.0,0.0,0.0,0.0,0.0,0.0,0.0,0.0,0.0,0.0,0.0,0.0,0.0,0.0,0.0,0.0,0.0,0.0,0.0,0.0,0.0,0.0,0.0,0.0,0.0,0.0,0.0,0.0,0.0,0.0,0.0,0.0,0.0,0.0,0.0,0.0,0.0,0.0,0.0,0.0,0.0,0.0,0.0,0.0,0.0,0.0,0.0,0.0,0.0,0.0,0.0,0.0,0.0,0.0,0.0,0.0,0.0,0.0,0.0,0.0,0.0,0.0,0.0,0.0,0.0,0.0,0.0,0.0,0.0,0.0,0.0,0.0,0.0,0.0,0.0,0.0,0.0,0.0,0.0,0.0,0.0,0.0,0.0,0.0,0.0,0.0,0.0,0.0,0.0,0.0,0.0,0.0,0.0,0.0,0.0,0.0,0.0,0.0,0.0,1.4376,1.4607,0.0,0.0,0.0,0.0,0.0,0.0,0.0,0.0,0.0,0.0,0.0,0.0,0.0,0.0,0.0,0.0,0.0,0.0,0.0,0.0,0.0,0.0,0.0,0.0,0.0,0.0,0.0,0.0,0.0,0.0,0.0,0.0,0.0,0.0,0.0,0.0,0.0,0.0,0.0,0.0,0.0,0.0,0.0,0.0,0.0,0.0,0.0,0.0,0.0,0.0,0.0,0.0,0.0,0.0,0.0,0.0,0.0,0.0,0.0,0.0,0.0,0.0,0.0,0.0,0.0,0.0,0.0,0.0,0.0,0.0,0.0,0.0,0.0,0.0,0.0,0.0,0.0,0.0,0.0,0.0,0.0,0.0,0.0,0.0,0.0,0.0,0.0,0.0,0.0,0.0,0.0,0.0,0.0,0.0,0.0,0.0,0.0,0.0,0.0,0.0,0.0,0.0,0.0,0.0,0.0,0.0,0.0,0.0,0.0,0.0,0.0,0.0,0.0,0.0,1.462,1.4776,0.0,0.0,0.0,0.0,0.0,0.0,0.0,0.0,0.0,0.0,0.0,0.0,0.0,0.0,0.0,0.0,0.0,0.0,0.0,0.0,0.0,0.0,0.0,0.0,0.0,0.0,0.0,0.0,0.0,0.0,0.0,0.0,0.0,0.0,0.0,0.0,0.0,0.0,0.0,0.0,0.0,0.0,0.0,0.0,0.0223,0.0,0.0,0.0,0.0,0.0,0.0,0.0,0.0,0.0,0.0,0.0,0.0,0.0,0.0,0.0,0.0,0.0,0.0,0.0,0.0,0.0,0.0,0.0,0.0,0.0,0.0,0.0,0.0,0.0,0.0,0.0,0.0,0.0,0.0,0.0,0.0,0.0,0.0,0.0,0.0,0.0,0.0,0.0,0.0,0.0,0.0,0.0,0.0,0.0,0.0,0.0,0.0,0.0,0.0,0.0,0.0,0.0,0.0,0.0,0.0,0.0,0.0,0.0,1.9318,1.8382,1.7341,1.7176,1.6172,1.4506,1.5282,1.5219,1.4589,1.5352,0.0,0.0,0.0,0.0,0.0,0.0,0.0,0.0,0.0,0.0,0.0,0.0,0.0,0.0,0.0,0.0,0.0,0.0,0.0,0.0,0.0,0.0,0.0,0.0,0.0,0.0,0.0,0.0,0.0,0.0,0.0,0.0,0.0,0.0,0.0,0.0,0.0,0.0,0.0,0.0,0.0,0.0058,0.1229,0.1114,0.0057,0.0,0.0,0.0,0.0,0.0,0.0,0.0,0.0,0.0,0.0,0.0,0.0,0.0,0.0,0.0,0.0,0.0,0.0,0.0,0.0,0.0,0.0,0.0,0.0,0.0,0.0,0.0,0.0,0.0,0.0,0.0,0.0,0.0,0.0,0.0,0.0,0.0,0.0,0.0,0.0,0.0,1.4106,1.3976,0.0,0.0,0.0,0.0,0.0,0.0,0.0,0.0,0.0,0.0,0.0,0.0,0.0,2.0415,2.1516,2.0844,2.0942,2.1861,2.0942,1.957,1.7825,1.8243,1.7557,1.606,1.6384,0.0,1.4703,1.5015,0.0,0.0,0.0,0.0,0.0,0.0,0.0,0.0,0.0,0.0,0.0,0.0,0.0,0.0,0.0,0.0,0.0,0.0,0.0,0.0,0.0,0.0,0.0,0.0,0.0,0.0,0.0,0.0,0.0,0.0,0.0,0.0,0.0,0.0,0.0,0.0,0.0,0.0,0.0,0.0,0.0,0.0058,0.1419,0.169,0.1243,0.2732,0.0,0.0,0.0,0.0,0.0,0.0,0.0,0.0,0.0,0.0,0.0,0.0,0.0,0.0,0.0,0.0,0.0,0.0,0.0,0.0,0.0,0.0,0.0,0.0,0.0,0.0,0.0,0.0,0.0,0.0,0.0,0.0,0.0,0.0,0.0,0.0,0.0,0.0,0.0,1.4589,1.4763,1.4646,1.5204,1.5471,0.0,0.0,0.0,0.0,0.0,0.0,0.0,0.0,0.0,1.9608,2.1486,2.2797,2.3342,2.2279,2.2542,2.4155,2.2709,2.1755,2.125,2.1271,1.9592,1.673,1.7512,1.715,1.5972,1.5787,1.6289,1.7144,0.0,0.0,0.0,0.0,1.629,1.6313,0.0,0.0,0.0,0.0,0.0,0.0,0.0,0.0,0.0,0.0,0.0,0.0,0.0,0.0,0.0,0.0,0.0,0.0,0.0,0.0,0.0,0.0,0.0,0.0,0.0,0.0,0.0,0.0,0.0,0.0,0.0,0.0,0.0,0.0059,0.1471,0.2153,0.222,0.3734,0.4209,0.3915,0.0,0.0,0.0,0.0,0.0,0.0,0.0,0.0,0.0,0.0,0.0,0.0,0.0,0.0,0.0,0.0,0.0,0.0,0.0,0.0,0.0,0.0,0.0,0.0,0.0,0.0,0.0,0.0,0.0,0.0,0.0,0.0,0.0,0.0,0.0,0.0,0.0,1.4589,1.4897,1.4794,1.5324,1.5605,0.0,0.0,0.0,0.0,0.0,0.0,1.7446,2.0382,2.1834,2.1451,2.3317,2.4316,2.4316,2.3455,2.3822,2.5443,2.451,2.4066,2.4172,2.3741,2.1462,1.7888,1.8607,1.8398,1.7432,1.6662,1.6994,1.7922,1.7145,1.7281,1.778,1.7011,1.6723,1.6601,0.0,0.0,0.0,0.0,0.0,0.0,0.0,0.0,0.0,0.0,0.0,0.0,0.0,0.0,0.0,0.0,0.0,0.0,0.0,0.0,0.0,0.0,0.0,0.0,0.0,0.0,0.0,0.0,0.0,0.0,0.0,0.0,0.0,0.0063,0.1757,0.2467,0.2564,0.3578,0.4003,0.3993,0.3903,0.0,0.0,0.0,0.0,0.0,0.0,0.0,0.0,0.0,0.0,0.0,0.0,0.0,0.0,0.0,0.0,0.0,0.0,0.0,0.0,0.0,0.0,0.0,0.0,0.0,0.0,0.0,0.0,0.0,0.0,0.0,0.0,0.0,0.0,0.0,0.0,0.0,0.0,1.4095,1.4897,0.0,0.0,0.0,0.0,1.5744,1.7159,1.754,1.6427,2.0862,2.2708,2.1261,2.3105,2.4137,2.4137,2.4515,2.4713,2.4853,2.618,2.6129,2.4957,2.4437,2.2757,2.0114,1.9717,1.9316,1.8751,1.6993,1.6343,1.6373,1.6007,1.5886,1.5893,1.5577,1.5483,1.5443,0.0,0.0,0.0,0.0,0.0,0.0,0.0,0.0,0.0,0.0,0.0,0.0,0.0,0.0,0.0,0.0,0.0,0.0,0.0,0.0,0.0,0.0,0.0,0.0,0.0,0.0,0.0,0.0,0.0,0.0,0.0,0.0,0.0,0.0,0.0622,0.2037,0.4131,0.526,0.616,0.677,0.5602,0.515,0.0,0.0,0.0,0.0,0.0,0.0,0.0,0.0,0.0,0.0,0.0,0.0,0.0,0.0,0.0,0.0,0.0,0.0,0.0,0.0,0.0,0.0,0.0,0.0,0.0,0.0,0.0,0.0,0.0,0.0,0.0,0.0,0.0,0.0,0.0,0.0,0.0,1.5671,1.6219,0.0,1.6697,1.6406,1.6446,1.6927,1.7816,1.8493,1.8737,2.1132,2.2502,2.2501,2.3137,2.3657,2.3894,2.2912,2.2977,2.4153,2.4506,2.5058,2.572,2.6252,2.4857,2.1953,2.1494,2.0126,1.8071,1.74,1.7704,1.8514,1.7614,1.7675,1.8056,1.7179,1.6872,1.6765,0.0,0.0,0.0,0.0,0.0,0.0,0.0,0.0,0.0,0.0,0.0,0.0,0.0,0.0,0.0,0.0,0.0,0.0,0.0,0.0,0.0,0.0,0.0,0.0,0.0,0.0,0.0,0.0,0.0,0.0,0.0,0.0,0.0,0.0,0.0,0.18,0.4943,0.5745,0.7074,0.8548,0.7223,0.6805,0.6873,0.0,0.0,0.0,0.0,0.0,0.0,0.0,0.0,0.0,0.0,0.0,0.0,0.0,0.0,0.0,0.0,0.0,0.0,0.0,0.0,0.0,0.0,0.0,0.0,0.0,0.0,0.0,0.0,0.0,0.0,0.0,0.0,0.0,0.0,1.5263,1.5765,1.674,1.7208,1.7528,1.7716,1.7475,1.7475,1.7862,1.8941,1.9626,1.9852,2.1752,2.2857,2.2808,2.2823,2.2871,2.3039,2.1867,2.1867,2.3039,2.337,2.4141,2.5371,2.5917,2.4774,2.2253,2.1787,2.0106,1.7729,1.7622,1.8057,1.8745,1.794,1.7867,1.8164,1.7358,1.7044,1.6951,0.0,0.0,0.0,0.0,0.0,0.0,0.0,0.0,0.0,0.0,0.0,0.0,0.0,0.0,0.0,0.0,0.0,0.0,0.0,0.0,0.0,0.0,0.0,0.0,0.0,0.0,0.0,0.0,0.0,0.0,0.0,0.0,0.0,0.0,0.0,0.1827,0.4837,0.49,0.6441,0.8843,0.8628,0.8581,0.8662,0.0,0.0,0.0,0.0,0.0,0.0,0.0,0.0,0.0,0.0,0.0,0.0,0.0,0.0,0.0,0.0,0.0,0.0,0.0,0.0,0.0,0.0,0.0,0.0,0.0,0.0,0.0,0.0,0.0,0.0,0.0,0.0,0.0,1.4968,1.5799,1.6576,1.7192,1.7729,1.8049,1.8062,1.837,1.8531,1.8544,2.0429,2.0945,1.9502,2.2696,2.3758,2.1978,2.1963,2.1799,2.1544,2.1529,2.1529,2.1529,2.3039,2.371,2.3694,2.3365,2.2418,2.1048,2.042,1.9299,1.7969,1.7716,1.7235,1.67,1.67,1.6353,1.5784,1.5784,1.5784,1.5784,0.0,0.0,0.0,0.0,0.0,0.0,0.0,0.0,0.0,0.0,0.0,0.0,0.0,0.0,0.0,0.0,0.0,0.0,0.0,0.0,0.0,0.0,0.0,0.0,0.0,0.0,0.0,0.0,0.0,0.0,0.0,0.0,0.0,0.0,0.0,0.1153,0.3256,0.453,0.6177,0.7994,0.8596,0.8771,0.8662,0.0,0.0,0.0,0.0,0.0,0.0,0.0,0.0,0.0,0.0,0.0,0.0,0.0,0.0,0.0,0.0,0.0,0.0,0.0,0.0,0.0,0.0,0.0,0.0,0.0,0.0,0.0,0.0,0.0,0.0,0.0,1.503,1.5725,1.5933,1.6536,1.734,1.8317,1.8958,1.9399,1.9554,1.9519,1.9533,1.9733,2.0105,2.0233,1.9987,2.0902,2.1184,2.0695,2.0534,2.0382,2.0299,2.0092,1.9982,2.004,2.1487,2.2194,2.2251,2.3222,2.2696,2.1062,2.0698,1.9553,1.7969,1.7716,1.7235,1.67,1.67,1.6353,1.5784,1.5784,1.5784,1.5784,0.0,0.0,0.0,0.0,0.0,0.0,0.0,0.0,0.0,0.0,0.0,0.0,0.0,0.0,0.0,0.0,0.0,0.0,0.0,0.0,0.0,0.0,0.0,0.0,0.0,0.0,0.0,0.0,0.0,0.0,0.0,0.0,0.0,0.0,0.0,0.091,0.2597,0.3653,0.5451,0.7673,0.8187,0.8791,0.9306,0.8723,0.8642,0.8798,0.8513,0.8902,0.9556,0.9145,0.0,0.0,0.0,0.0,0.0,0.0,0.0,0.0,0.0,0.0,0.0,0.0,0.0,0.0,0.0,0.0,0.0,0.0,0.0,0.0,0.0,0.0,0.0,0.0,1.5759,1.654,1.7275,1.7675,1.8196,1.9011,1.9733,2.0227,2.0401,2.0374,2.0361,2.0414,2.0374,2.0374,2.0414,2.0535,2.0548,2.0414,2.0134,1.992,1.98,1.9506,1.943,1.9417,2.0256,2.0702,2.0702,2.1544,2.1308,2.0159,1.99,1.911,1.7955,1.7582,1.7128,1.67,0.0,0.0,0.0,0.0,1.5784,1.5784,0.0,0.0,0.0,0.0,0.0,0.0,-0.0202,-0.0103,0.0,0.0,0.0,0.0,0.0,0.0,0.0,0.0,0.0,0.0,0.0,0.0,0.0,0.0,0.0,0.0,0.0,0.0,0.0,0.0,0.0,0.0,0.0,0.0,0.0,0.0,0.0,0.0857,0.2242,0.2538,0.4361,0.7103,0.7587,0.8775,1.0154,0.9528,0.9354,0.9503,0.9033,0.9694,1.0754,1.0581,0.0,0.0,0.0,0.0,0.0,0.0,0.0,0.0,0.0,0.0,0.0,0.0,0.0,0.0,0.0,0.0,0.0,0.0,0.0,0.0,0.0,0.0,0.0,0.0,1.6469,1.7101,1.8744,1.9065,1.9225,1.9479,2.0227,2.0722,2.0722,2.0922,2.0962,2.0735,2.0935,2.0962,2.0735,2.0962,0.0,0.0,0.0,2.0107,1.9853,1.9533,1.943,1.943,1.943,1.943,1.943,1.943,1.9225,1.8958,1.8637,1.8343,1.7995,1.7448,1.7058,1.67,1.6633,1.6286,1.5784,1.5784,1.5784,1.5784,0.0,0.0,0.0,0.0,0.0,0.0,-0.146,-0.0675,0.0,0.0,0.0,0.0,0.0,0.0,0.0,0.0,0.0,0.0,0.0,0.0,0.0,0.0,0.0,0.0,0.0,0.0,0.0,0.0,0.0,0.0,0.0,0.0,0.0,0.0,0.0,0.0201,0.0603,0.208,0.3078,0.3924,0.6792,0.8741,0.9883,0.9618,0.9401,0.9268,0.9015,0.932,1.0004,1.083,1.1372,1.1603,1.1043,1.0484,0.0,0.0,0.0,0.0,0.0,0.0,0.0,0.0,0.0,0.0,0.0,0.0,0.0,0.0,0.0,0.0,0.0,0.0,0.0,1.6139,1.7275,1.8343,1.9172,1.9893,2.0361,2.0414,2.0775,2.1029,2.1029,2.0869,2.0842,2.1015,2.0855,2.0842,2.1015,2.1082,2.1082,2.1029,2.0508,2.0214,2.0147,1.9626,1.943,1.943,1.943,0.0,1.943,1.943,1.9332,1.9252,1.8718,1.8464,1.8357,1.7756,1.7181,1.666,1.6179,1.5878,1.5784,1.5784,1.5784,1.5784,0.0,0.0,0.0,0.0,0.0,0.0,-0.1813,-0.0884,0.0,0.0,0.0,0.0,0.0,0.0,0.0,0.0,0.0,0.0,0.0,0.0,0.0,0.0,0.0,0.0,0.0,0.0,0.0,0.0,0.0,0.0,0.0,0.0,0.0,0.0,0.0,0.0,0.0067,0.0941,0.1881,0.2954,0.5626,0.7507,0.8783,0.9656,0.9754,0.9469,0.9327,0.9824,1.0578,1.0984,1.1833,1.2525,1.1185,1.0768,1.0442,0.0,0.0,0.0,0.0,0.0,0.0,0.0,0.0,0.0,0.0,0.0,0.0,0.0,0.0,1.4166,1.4351,0.0,1.6339,1.7235,1.8009,1.8744,1.9479,2.0094,2.0508,2.0655,2.0935,2.1109,2.1109,2.0975,2.0949,2.1096,2.0975,2.0962,2.1096,2.1109,2.1109,2.1109,2.0681,2.0388,2.0167,1.98,1.9506,1.943,1.943,1.943,1.943,1.943,1.9292,1.9132,1.8838,1.8544,1.8223,1.7609,1.7101,1.666,1.6219,1.5965,1.5784,1.5784,1.5784,1.5784,0.0,0.0,0.0,0.0,0.0,0.0,0.0,-0.0884,-0.0107,-0.0373,-0.0169,-0.0117,-0.0407,-0.0175,0.0,0.0,0.0,0.0,0.0,0.0,0.0,0.0,0.0,0.0,0.0,0.0,0.0,0.0,0.0,0.0,0.0,0.0,0.0,0.0,0.0,0.0,0.0,0.0,0.0809,0.235,0.4158,0.573,0.7252,0.9118,0.9755,0.9761,0.9618,1.0149,1.09,1.0957,1.1855,1.2709,1.1089,1.0732,1.062,0.8866,0.818,0.0,0.0,0.0,0.0,0.0,0.0,0.0,0.0,1.3194,1.4647,1.4139,1.4952,1.5952,1.666,1.6887,1.7301,1.8317,1.8584,1.8931,1.9693,2.0054,2.0321,2.0561,2.0895,2.1109,2.1109,2.1109,2.1109,2.1109,2.1109,2.1109,2.1109,2.1109,2.1109,2.1109,2.0828,2.0535,2.018,1.9947,1.9653,1.943,1.943,1.943,1.943,1.943,1.9239,1.8998,1.8891,1.8504,1.7862,1.742,1.7058,1.6767,1.6473,1.6179,1.5912,1.5798,1.5784,1.5784,0.0,0.0,0.0,0.0,0.0,0.0,0.0,0.0,-0.048,-0.1809,-0.0837,-0.0513,-0.1823,-0.0782,0.0,0.0,0.0,0.0,0.0,0.0,0.0,0.0,0.0,0.0,0.0,0.0,0.0,0.0,0.0,0.0,0.0,0.0,0.0,0.0,0.0,0.0,0.0,0.0,0.0136,0.0471,0.2283,0.3889,0.539,0.7188,0.8629,0.9612,0.9462,0.9161,0.9087,1.0729,1.1256,1.1185,1.1209,1.1138,1.0763,0.8972,0.8262,0.7961,0.7875,0.7483,0.7534,0.9096,1.0126,1.1331,0.0,0.0,1.5798,1.6245,1.669,1.7032,1.7139,1.7515,1.8009,1.8424,1.8931,1.9399,1.9746,2.0054,2.018,2.0281,2.0775,2.1109,2.1109,2.1109,2.1109,2.1109,2.1109,2.1109,2.1109,2.1109,2.1109,2.1109,2.0828,2.0535,2.018,1.9947,1.9653,1.943,1.943,1.943,1.943,1.943,1.9403,1.9292,1.8771,1.8196,1.7609,1.734,1.7179,1.7125,1.6767,1.6473,1.6192,1.5925,1.5784,1.5784,0.0,0.0,0.0,0.0,0.0,0.0,0.0,0.0,0.0,-0.0851,-0.0384,-0.0222,-0.0876,-0.0379,0.0,0.0,0.0,0.0,0.0,0.0,0.0,0.0,0.0,0.0,0.0,0.0,0.0,0.0,0.0,0.0,0.0,0.0,0.0,0.0,0.0,0.0,0.0,0.0,0.0,0.0136,0.1972,0.299,0.3717,0.5478,0.6372,0.6986,0.8685,0.8974,0.0,0.9227,1.0035,1.0742,0.9709,1.0019,1.0484,0.8836,0.8208,0.7921,0.7645,0.7611,0.7907,0.8996,0.9763,1.0924,1.3558,1.4641,1.5445,1.6934,1.7448,1.7756,1.8116,1.8384,1.8651,0.0,1.9269,1.947,1.9533,1.9653,1.9666,1.9492,1.984,2.0294,2.0815,2.0855,2.0922,2.1096,2.1109,2.1109,2.1109,2.1109,2.1109,2.1109,2.0989,2.0708,2.018,2.0281,1.9987,1.943,1.9706,1.9693,1.943,1.9546,1.9533,1.9403,1.8918,1.8504,1.809,1.7782,1.7555,1.742,1.7125,1.6938,1.6777,1.6259,1.5979,1.5784,0.0,0.0,0.0,0.0,0.0,0.0,0.0,0.0,0.0,0.0,-0.0269,0.0,0.0,0.0,0.0,0.0,0.0,0.0,0.0,0.0,0.0,0.0,0.0,0.0,0.0,0.0,0.0,0.0,0.0,0.0,0.0,0.0,0.0,0.0,0.0,0.0,0.0,0.0,0.0,0.0137,0.1441,0.2202,0.2613,0.3889,0.4486,0.4963,0.7564,0.8179,0.784,0.7942,0.8872,0.9777,0.8478,0.8953,0.978,0.8634,0.8133,0.7853,0.7584,0.7672,0.809,0.908,0.956,1.0485,1.3118,1.4207,1.5088,1.6674,1.7542,1.8102,1.8542,1.8811,1.8998,1.9212,1.9386,1.9452,1.943,1.9292,1.9158,1.8945,1.8891,1.9225,2.0107,2.0334,2.0588,2.0962,2.0989,2.1029,2.1109,2.1109,2.1109,2.1109,2.1109,2.0828,2.0241,2.0441,2.0201,1.9492,1.9826,1.9853,1.9613,1.9746,1.9599,1.9239,1.9011,1.8718,1.8343,1.8116,1.7849,1.7555,1.7407,1.7273,1.7152,1.6723,1.6273,1.5939,0.0,0.0,0.0,0.0,0.0,0.0,0.0,0.0,0.0,0.0,0.0,0.0,0.0,0.0,0.0,0.0,0.0,0.0,0.0,0.0,0.0,0.0,0.0,0.0,0.0,0.0,0.0,0.0,0.0,0.0,0.0,0.0,0.0,0.0,0.0,0.0,0.0,0.0,0.0,0.0,0.0069,0.1063,0.2513,0.2558,0.3409,0.4673,0.609,0.6202,0.5918,0.7453,0.7855,0.7746,0.8176,0.8408,0.8549,0.8361,0.8052,0.7814,0.7801,0.7597,0.7813,0.955,0.9898,1.0347,1.2356,1.397,1.5106,1.5417,1.6845,1.7995,1.8009,1.8488,1.8931,1.8931,1.9412,1.9693,1.947,1.9118,1.8931,1.8918,1.8156,1.7983,0.0,1.9492,2.0067,2.0641,2.0695,2.0815,2.1096,2.1109,2.1109,2.1109,2.1109,2.0828,2.0241,2.0241,2.0094,1.9786,1.9519,1.9679,2.0201,1.992,1.9492,1.8931,1.8931,1.8542,1.8009,1.7995,1.7862,1.7582,1.7569,1.7447,1.7192,1.7179,1.6804,1.6219,0.0,0.0,0.0,0.0,0.0,0.0,0.0,0.0,0.0,0.0,0.0,0.0,0.0,0.0,0.0,0.0,0.0,0.0,0.0,0.0,0.0,0.0,0.0,0.0,0.0,0.0,0.0,0.0,0.0,0.0,0.0,0.0,0.0,0.0,0.0,0.0,0.0,0.0,0.0,0.0,0.0,0.0324,0.0815,0.0824,0.1117,0.1716,0.0,0.398,0.4735,0.5995,0.6384,0.6571,0.7447,0.7841,0.8031,0.7977,0.7963,0.7874,0.7726,0.774,0.7973,0.8671,0.8932,0.9433,1.1273,1.2133,1.2851,1.3944,1.5205,1.5899,1.5135,1.6524,1.7648,1.7249,1.8147,1.9038,1.939,1.9279,1.8998,1.8355,1.825,0.0,0.0,0.0,0.0,2.0054,2.0454,2.0722,2.0815,2.1002,2.1109,2.1109,2.1109,2.0922,2.0535,2.0722,2.0468,1.9859,1.9564,1.9666,2.0153,1.9733,1.9399,1.9225,1.9225,1.8998,1.8555,1.8424,1.817,1.7876,1.7662,1.7515,1.746,1.7273,1.7072,1.6831,0.0,0.0,0.0,0.0,0.0,0.0,0.0,0.0,0.0,0.0,0.0,0.0,0.0,0.0,0.0,0.0,0.0,0.0,0.0,0.0,0.0,0.0,0.0,0.0,0.0,0.0,0.0,0.0,0.0,0.0,0.0,0.0,0.0,0.0,0.0,0.0,0.0,0.0,0.0,0.0,0.0,0.0,0.0,0.0,0.0,0.0,0.0953,0.1816,0.2833,0.4487,0.5401,0.5992,0.6661,0.7318,0.7814,0.7814,0.7874,0.7961,0.7875,0.8011,0.8235,0.8391,0.8492,0.8874,0.9985,1.0737,1.1353,1.2054,1.3233,1.3909,1.3028,1.4325,1.5556,1.5781,1.641,1.7388,1.899,1.8704,1.8324,1.8502,1.841,1.8223,0.0,0.0,0.0,1.9613,2.0187,2.0561,2.0668,2.0949,2.1109,2.1109,2.1109,2.0962,2.0681,2.0855,2.0561,1.9872,1.9886,1.9867,1.992,1.9639,1.9466,1.943,1.943,1.9199,1.8905,1.8611,1.8317,1.7955,1.7702,1.7582,1.7555,1.742,1.7286,1.7125,0.0,0.0,0.0,0.0,0.0,0.0,0.0,0.0,0.0,0.0,0.0,0.0,0.0,0.0,0.0,0.0,0.0,0.0,0.0,0.0,0.0,0.0,0.0,0.0,0.0,0.0,0.0,0.0,0.0,0.0,0.0,0.0,0.0,0.0,0.0,0.0,0.0,0.0,0.0,0.0,0.0,0.0,0.0,0.0,0.0,0.0,0.0,0.0,0.0416,0.3102,0.4946,0.6077,0.6066,0.6886,0.7821,0.7821,0.7936,0.8049,0.8248,0.8391,0.8533,0.8682,0.871,0.8696,0.8696,0.9739,1.0516,0.9858,1.102,1.2051,0.0,0.0,1.2852,1.4507,1.4286,1.4986,1.8259,1.734,1.7082,0.0,0.0,0.0,0.0,0.0,0.0,1.943,1.9907,2.0361,2.0655,2.0949,2.1109,2.1109,2.1109,2.0975,2.0695,2.0695,2.0414,1.9867,2.0388,2.0201,1.9426,1.9666,1.9626,1.943,1.943,1.9212,1.8918,1.8637,1.8343,1.8009,1.7729,1.7609,1.7609,1.7595,1.746,1.7179,0.0,0.0,0.0,0.0,0.0,0.0,0.0,0.0,0.0,0.0,0.0,0.0,0.0,0.0,0.0,0.0,0.0,0.0,0.0,0.0,0.0,0.0,0.0,0.0,0.0,0.0,0.0,0.0,0.0,0.0,0.0,0.0,0.0,0.0,0.0,0.0,0.0,0.0,0.0,0.0,0.0,0.0,0.0,0.0,0.0,0.0,0.0,0.0,0.0423,0.3114,0.5556,0.7453,0.7244,0.7544,0.7934,0.7934,0.8167,0.8404,0.856,0.8621,0.8689,0.8845,0.871,0.854,0.854,0.8582,0.8534,0.8367,0.9034,0.9323,0.8321,0.9927,0.0,1.1665,1.2703,0.0,1.5618,1.6777,0.0,1.7756,0.0,1.9533,1.9172,1.9412,0.0,1.9679,2.0027,2.0361,2.0655,2.0949,2.1109,2.1109,2.1109,2.1069,2.1002,2.1002,2.0922,2.0775,2.0328,2.0087,2.0,1.9639,1.9439,1.943,1.943,1.9319,1.9225,1.8931,1.8771,1.8595,1.8075,1.7876,1.7849,1.7662,1.7542,1.7514,0.0,0.0,0.0,0.0,0.0,0.0,0.0,0.0,0.0,0.0,0.0,0.0,0.0,0.0,0.0,0.0,0.0,0.0,0.0,0.0,0.0,0.0,0.0,0.0,0.0,0.0,0.0,0.0,0.0,0.0,0.0,0.0,0.0,0.0,0.0,0.0,0.0,0.0,0.0,0.0,0.0,0.0,0.0,0.0,0.0,0.0,0.0,0.0384,0.1113,0.2474,0.4813,0.7217,0.7727,0.8052,0.8248,0.8316,0.8499,0.8716,0.8866,0.8954,0.9008,0.9028,0.8859,0.8628,0.8431,0.814,0.7821,0.7489,0.768,0.7677,0.6874,0.8055,0.9358,0.0,0.0,0.0,1.4093,1.566,1.6801,0.0,1.9257,0.0,1.9786,2.0013,2.0187,2.0187,2.0334,2.0494,2.0668,2.0949,2.1109,2.1109,2.1109,2.1109,2.1109,2.1109,2.0975,2.0722,2.0227,1.9947,1.984,1.9519,1.943,1.943,1.943,1.943,1.9345,1.9052,1.8851,1.8691,1.8169,1.7916,1.7822,1.7649,1.7582,1.7582,0.0,0.0,0.0,0.0,0.0,0.0,0.0,0.0,0.0,0.0,0.0,0.0,0.0,0.0,0.0,0.0,0.0,0.0,0.0,0.0,0.0,0.0,0.0,0.0,0.0,0.0,0.0,0.0,0.0,0.0,0.0,0.0,0.0,0.0,0.0,0.0,0.0,0.0,0.0,0.0,0.0,0.0,0.0,0.0,0.0,0.0,0.0,0.0871,0.1943,0.1732,0.3481,0.5987,0.7508,0.8079,0.8302,0.8669,0.8893,0.9062,0.9205,0.934,0.9401,0.9282,0.9042,0.8791,0.8343,0.8092,0.7705,0.7024,0.6856,0.6783,0.6538,0.6586,0.7239,0.8824,0.0,0.9489,1.288,1.4045,1.5306,1.7577,1.9325,2.0381,2.0313,2.0588,2.0735,2.0735,2.0735,2.0735,2.0735,2.0975,2.1109,2.1109,2.1109,2.1109,2.1109,2.1109,2.0855,2.0347,2.0267,1.9973,1.9479,1.9399,1.943,1.943,1.943,1.943,1.9403,1.9092,1.8838,1.8584,1.8222,1.7996,1.7756,1.7675,1.7649,1.7635,0.0,0.0,0.0,0.0,0.0,0.0,0.0,0.0,0.0,0.0,0.0,0.0,0.0,0.0,0.0,0.0,0.0,0.0,0.0,0.0,0.0,0.0,0.0,0.0,0.0,0.0,0.0,0.0,0.0,0.0,0.0,0.0,0.0,0.0,0.0,0.0,0.0,0.0,0.0,0.0,0.0,0.0,0.0,0.0,0.0,0.0,0.0,0.0787,0.1828,0.1917,0.3027,0.456,0.5963,0.6616,0.7161,0.8693,0.9273,0.9523,0.9666,0.9727,0.968,0.9408,0.9042,0.8635,0.813,0.7773,0.0,0.6964,0.6729,0.6538,0.6368,0.6519,0.7011,0.79,0.8187,0.8869,1.0432,1.2037,1.3819,0.0,1.7791,1.9396,2.0836,2.1002,0.0,0.0,2.1029,2.1029,2.1029,2.1082,2.1109,2.1109,2.1109,2.1109,2.1109,2.1109,2.1056,2.0949,2.0468,2.0053,1.98,1.9514,1.943,1.943,1.943,1.943,1.9417,1.9319,1.9265,1.9185,1.8891,1.8744,1.8637,1.8089,1.7916,1.7876,0.0,0.0,0.0,0.0,0.0,0.0,0.0,0.0,0.0,0.0,0.0,0.0,0.0,0.0,0.0,0.0,0.0,0.0,0.0,0.0,0.0,0.0,0.0,0.0,0.0,0.0,0.0,0.0,0.0,0.0,0.0,0.0,0.0,0.0,0.0,0.0,0.0,0.0,0.0,0.0,0.0,0.0,0.0,0.0,0.0,0.0,0.0,0.0367,0.0871,0.0931,0.1364,0.2286,0.4514,0.5904,0.693,0.7979,0.8947,0.9754,0.9835,0.9998,0.9985,0.9686,0.9273,0.8784,0.813,0.0,0.0,0.6783,0.6573,0.647,0.6327,0.6505,0.6844,0.7285,0.7672,0.8282,0.9269,1.1063,1.2812,1.4299,1.6808,1.8832,1.9674,2.0589,2.1109,2.1109,2.1109,2.1109,2.1109,2.1109,2.1109,2.1109,2.1109,2.1109,2.1109,2.1109,2.0949,2.0655,2.0435,2.008,1.9641,1.9492,1.943,1.943,1.943,1.943,1.943,1.943,1.9279,1.9118,1.8985,1.8824,1.8664,1.8384,1.8277,1.8237,0.0,0.0,0.0,0.0,0.0,0.0,0.0,0.0,0.0,0.0,0.0,0.0,0.0,0.0,0.0,0.0,0.0,0.0,0.0,0.0,0.0,0.0,0.0,0.0,0.0,0.0,0.0,0.0,0.0,0.0,0.0,0.0,0.0,0.0,0.0,0.0,0.0,0.0,0.0,0.0,0.0,0.0,0.0,0.0,0.0,0.0,0.0,0.0,0.0,0.0,0.0,0.0425,0.2793,0.4643,0.6127,0.7102,0.8348,0.949,0.9921,1.0209,1.0249,0.9944,0.951,0.9023,0.8248,0.774,0.0,0.6689,0.6559,0.6518,0.6375,0.6511,0.6695,0.698,0.7319,0.7875,0.8757,1.0367,1.1812,1.294,1.5903,0.0,1.8436,2.0068,0.0,2.1109,2.1109,2.1109,2.1109,2.1109,2.1109,2.1109,2.1109,2.1109,2.1109,2.1109,2.0855,2.0395,2.0402,2.0093,1.9394,1.9399,1.943,1.943,1.943,1.943,1.943,1.943,1.9225,1.9025,1.9025,1.8878,1.8664,1.8611,1.8584,1.8531,0.0,0.0,0.0,0.0,0.0,0.0,0.0,0.0,0.0,0.0,0.0,0.0,0.0,0.0,0.0,0.0,0.0,0.0,0.0,0.0,0.0,0.0,0.0,0.0,0.0,0.0,0.0,0.0,0.0,0.0,0.0,0.0,0.0,0.0,0.0,0.0,0.0,0.0,0.0,0.0,0.0,0.0,0.0,0.0,0.0,0.0,0.0,0.0,0.0,0.0,0.0,0.0052,0.0313,0.1563,0.3493,0.6517,0.0,0.0,0.986,1.0365,1.0399,1.0038,0.9585,0.905,0.8436,0.0,0.7407,0.6803,0.6681,0.6634,0.6518,0.6409,0.6566,0.7262,0.7412,0.7753,0.8737,0.9305,1.0428,1.2653,0.0,0.0,1.8349,2.0068,2.1109,2.1109,2.1109,2.1109,2.1109,2.1109,2.1109,2.1109,2.1109,2.1109,2.1109,2.1109,2.1088,2.0978,2.0496,1.9933,1.9411,1.9421,1.943,1.943,1.943,1.943,1.943,1.943,1.9359,1.9332,1.9332,1.9363,1.9252,1.8985,1.8878,1.8798,0.0,0.0,0.0,0.0,0.0,0.0,0.0,0.0,0.0,0.0,0.0,0.0,0.0,0.0,0.0,0.0,0.0,0.0,0.0,0.0,0.0,0.0,0.0,0.0,0.0,0.0,0.0,0.0,0.0,0.0,0.0,0.0,0.0,0.0,0.0,0.0,0.0,0.0,0.0,0.0,0.0,0.0,0.0,0.0,0.0,0.0,0.0,0.0,0.0,0.0,0.0,0.0,0.0,0.0466,0.0,0.0,0.5942,0.7714,0.859,0.9602,1.0439,1.0236,0.9666,0.905,0.8456,0.0,0.7177,0.6668,0.6634,0.6654,0.6538,0.6463,0.6586,0.7027,0.6953,0.7163,0.8126,0.8438,0.9168,1.0726,1.2653,0.0,0.0,0.0,2.0005,2.1046,2.0949,2.0922,2.1096,2.1109,2.1109,2.1109,2.1109,2.1109,2.1109,2.1109,2.0944,2.055,2.0294,1.9927,1.9402,1.9412,1.943,1.943,1.943,1.943,1.943,1.943,1.943,1.943,1.943,1.943,1.9359,1.9239,1.9185,1.9132,0.0,0.0,0.0,0.0,0.0,0.0,0.0,0.0,0.0,0.0,0.0,0.0,0.0,0.0,0.0,0.0,0.0,0.0,0.0,0.0,0.0,0.0,0.0,0.0,0.0,0.0,0.0,0.0,0.0,0.0,0.0,0.0,0.0,0.0,0.0,0.0,0.0,0.0,0.0,0.0,0.0,0.0,0.0,0.0,0.0,0.0,0.0,0.0,0.0,0.0,0.0,0.0,0.0,0.0,0.0307,0.0,0.4451,0.6831,0.7525,0.8961,1.0256,1.012,0.9544,0.8879,0.0,0.0,0.7095,0.6688,0.6695,0.6736,0.6627,0.6573,0.6641,0.6896,0.681,0.6939,0.7706,0.7984,0.8431,0.9306,0.0,1.3064,1.4788,1.7085,1.9228,2.0982,2.0922,2.0918,2.1115,2.1128,2.1092,2.1109,2.1109,2.1069,2.1128,2.1052,2.0695,2.0181,2.0107,1.984,1.943,1.943,1.943,1.943,1.943,1.943,1.943,1.943,1.943,1.943,1.943,1.943,1.943,1.943,1.943,1.9319,0.0,0.0,0.0,0.0,0.0,0.0,0.0,0.0,0.0,0.0,0.0,0.0,0.0,0.0,0.0,0.0,0.0,0.0,0.0,0.0,0.0,0.0,0.0,0.0,0.0,0.0,0.0,0.0,0.0,0.0,0.0,0.0,0.0,0.0,0.0,0.0,0.0,0.0,0.0,0.0,0.0,0.0,0.0,0.0,0.0,0.0,0.0,0.0,0.0,0.0,0.0,0.0,0.0,0.0,0.0305,0.2001,0.3648,0.5306,0.7108,0.8678,0.9795,0.9652,0.9164,0.8594,0.0,0.7692,0.7285,0.6987,0.6883,0.6883,0.6883,0.6803,0.6797,0.7045,0.7092,0.7247,0.7746,0.8072,0.8438,0.0,0.0,1.202,1.2603,1.616,1.9228,2.0982,2.1109,2.1115,2.1107,2.1094,2.1091,2.1096,2.1109,2.1115,2.1107,2.0819,2.0523,2.021,1.9932,1.9653,1.943,1.943,1.943,1.943,1.943,1.943,1.943,1.943,1.943,1.943,1.943,1.943,1.943,1.943,1.943,1.9319,0.0,0.0,0.0,0.0,0.0,0.0,0.0,0.0,0.0,0.0,0.0,0.0,0.0,0.0,0.0,0.0,0.0,0.0,0.0,0.0,0.0,0.0,0.0,0.0,0.0,0.0,0.0,0.0,0.0,0.0,0.0,0.0,0.0,0.0,0.0,0.0,0.0,0.0,0.0,0.0,0.0,0.0,0.0,0.0,0.0,0.0,0.0,0.0,0.0,0.0,0.0,0.0,0.0,0.0,0.0,0.0614,0.25,0.4596,0.5281,0.722,0.9049,0.9008,0.8621,0.8137,0.7936,0.7536,0.7156,0.6923,0.6964,0.6997,0.6903,0.6803,0.6831,0.7231,0.7129,0.7105,0.7604,0.0,0.0,0.9008,1.2362,1.505,0.0,0.0,2.0526,2.1046,2.0922,2.0837,2.0819,2.0583,2.0643,2.1078,2.0827,2.0698,2.0681,2.0332,2.0113,1.9932,1.9668,1.9449,1.943,1.943,1.943,1.943,1.943,1.943,1.943,1.943,1.943,1.943,1.943,1.943,1.943,1.943,1.943,1.9319,0.0,0.0,0.0,0.0,0.0,0.0,0.0,0.0,0.0,0.0,0.0,0.0,0.0,0.0,0.0,0.0,0.0,0.0,0.0,0.0,0.0,0.0,0.0,0.0,0.0,0.0,0.0,0.0,0.0,0.0,0.0,0.0,0.0,0.0,0.0,0.0,0.0,0.0,0.0,0.0,0.0,0.0,0.0,0.0,0.0,0.0,0.0,0.0,0.0,0.0,0.0,0.0,0.0,0.0,0.0,0.0,0.226,0.4041,0.4327,0.6343,0.8384,0.8445,0.8119,0.776,0.7665,0.7387,0.7071,0.6984,0.6991,0.6991,0.6903,0.6803,0.679,0.7075,0.7014,0.7068,0.7461,0.0,0.0,0.9806,1.2594,0.0,0.0,1.8964,2.0076,2.0713,2.0615,2.0529,2.0632,2.0296,2.0183,2.0469,2.0409,2.0335,2.0273,2.0026,1.9787,1.9639,1.9495,1.9402,1.943,1.943,1.943,1.943,1.943,1.943,0.0,1.943,1.943,1.943,1.943,1.943,1.943,1.943,1.943,1.9319,0.0,0.0,0.0,0.0,0.0,0.0,0.0,0.0,0.0,0.0,0.0,0.0,0.0,0.0,0.0,0.0,0.0,0.0,0.0,0.0,0.0,0.0,0.0,0.0,0.0,0.0,0.0,0.0,0.0,0.0,0.0,0.0,0.0,0.0,0.0,0.0,0.0,0.0,0.0,0.0,0.0,0.0,0.0,0.0,0.0,0.0,0.0,0.0,0.0,0.0,0.0,0.0,0.0,0.0,0.0,0.0,0.0,0.0,0.0,0.5986,0.7794,0.788,0.7658,0.7398,0.7398,0.7244,0.0,0.7098,0.6991,0.6903,0.6916,0.6817,0.6715,0.6756,0.6865,0.7048,0.736,0.7814,0.0,0.0,1.192,1.3557,1.6851,1.7542,1.8484,2.0106,2.0167,2.0254,2.0429,2.0077,1.9727,1.9437,1.9867,2.0072,1.9872,1.9786,1.9639,1.943,1.943,1.943,1.943,1.943,1.943,1.943,1.943,1.943,1.943,1.943,1.943,1.943,1.943,1.943,1.943,1.943,1.943,1.9319,0.0,0.0,0.0,0.0,0.0,0.0,0.0,0.0,0.0,0.0,0.0,0.0,0.0,0.0,0.0,0.0,0.0,0.0,0.0,0.0,0.0,0.0,0.0,0.0,0.0,0.0,0.0,0.0,0.0,0.0,0.0,0.0,0.0,0.0,0.0,0.0,0.0,0.0,0.0,0.0,0.0,0.0,0.0,0.0,0.0,0.0,0.0,0.0,0.0,0.0,0.0,0.0,0.0,0.0,0.0,0.0,0.3385,0.5119,0.5115,0.0,0.7233,0.7166,0.7146,0.7152,0.0,0.7125,0.0,0.0,0.0,0.0,0.0,0.6959,0.6851,0.7312,0.7217,0.7193,0.7651,0.8391,0.0,1.2772,1.3937,1.5679,1.8584,1.9304,1.9728,2.0167,2.0167,2.0107,1.9945,1.9872,1.9693,1.9407,1.9492,1.9599,1.9523,1.9514,1.9439,1.943,1.943,1.943,1.943,1.943,1.943,1.943,1.943,1.943,1.943,1.943,1.943,1.943,1.943,1.943,1.943,1.943,1.943,1.9292,0.0,0.0,0.0,0.0,0.0,0.0,0.0,0.0,0.0,0.0,0.0,0.0,0.0,0.0,0.0,0.0,0.0,0.0,0.0,0.0,0.0,0.0,0.0,0.0,0.0,0.0,0.0,0.0,0.0,0.0421,0.1227,0.0367,0.0421,0.1231,0.0344,0.0,0.0,0.0,0.0,0.0,0.0,0.0,0.0,0.0,0.0,0.0,0.0,0.0,0.0,0.0,0.0,0.0,0.0,0.0,0.0,0.0,0.4123,0.5712,0.6202,0.6668,0.7011,0.7115,0.7088,0.7038,0.7217,0.0,0.0,0.0,0.0,0.0,0.0,0.6912,0.6831,0.7224,0.7159,0.7301,0.0,0.0,0.9906,1.2543,1.4074,1.5769,1.8064,1.9227,1.984,1.984,1.9706,1.9626,1.9599,1.9466,1.9386,1.943,1.943,1.9381,1.9397,1.9381,1.943,1.943,1.943,1.9292,1.9172,1.9305,1.9292,1.9172,1.9305,1.943,1.943,1.943,1.943,1.943,1.943,1.943,1.943,1.943,1.9279,1.9105,0.0,0.0,0.0,0.0,0.0,0.0,0.0,0.0,0.0,0.0,0.0,0.0,0.0,0.0,0.0,0.0,0.0,0.0,0.0,0.0,0.0,0.0,0.0,0.0,0.0,0.0,0.0,0.0,0.0,0.0927,0.2682,0.1134,0.1172,0.2583,0.0804,0.0,0.0,0.0,0.0,0.0,0.0,0.0,0.0,0.0,0.0,0.0,0.0,0.0,0.0,0.0,0.0,0.0,0.0,0.0,0.0,0.0,0.0,0.0,0.7165,0.7224,0.7075,0.7258,0.7149,0.7054,0.7285,0.0,0.0,0.0,0.0,0.0,0.0,0.6871,0.0,0.0,0.0,0.0,0.8269,0.8628,0.9555,1.1494,1.3355,1.5078,1.6774,1.8435,1.943,1.943,1.9092,1.9038,1.9292,1.9011,1.8971,1.9225,1.9239,1.9239,1.9239,1.9279,1.9305,1.9305,1.9252,1.9118,1.8931,1.9145,1.9092,1.8878,1.9172,1.9305,1.9305,1.9403,1.943,1.943,1.943,1.943,1.9359,1.9319,1.9145,1.8878,0.0,0.0,0.0,0.0,0.0,0.0,0.0,0.0,0.0,0.0,0.0,0.0,0.0,0.0,0.0,0.0,0.0,0.0,0.0,0.0,0.0,0.0,0.0,0.0,0.0,0.0,0.0,0.0,0.0,0.0937,0.2669,0.2272,0.2244,0.2462,0.0756,0.0,0.0,0.0,0.0,0.0,0.0,0.0,0.0,0.0,0.0,0.0,0.0,0.0,0.0,0.0,0.0,0.0,0.0,0.0,0.0,0.0,0.0,0.0,0.7557,0.7529,0.7414,0.7082,0.7149,0.7278,0.7197,0.7112,0.0,0.0,0.0,0.0,0.0,0.7177,0.7119,0.7455,0.7834,0.8269,0.8764,0.9089,0.9867,1.1364,1.3362,1.5077,1.6426,1.8262,1.943,1.943,1.9092,1.8945,1.8985,1.8718,1.8584,1.8624,1.8624,1.8624,1.8624,1.8865,1.8985,1.8985,1.8744,1.8731,1.8918,1.8718,1.8597,1.8571,1.8865,1.8985,1.9011,1.9265,1.943,1.943,1.943,1.943,1.939,1.9092,1.8958,1.8851,0.0,0.0,0.0,0.0,0.0,0.0,0.0,0.0,0.0,0.0,0.0,0.0,0.0,0.0,0.0,0.0,0.0,0.0,0.0,0.0,0.0,0.0,0.0,0.0,0.0,0.0,0.0,0.0,0.1058,0.2433,0.4128,0.4106,0.3522,0.2428,0.0742,0.0,0.0,0.0,0.0,0.0,0.0,0.0,0.0,0.0,0.0,0.0,0.0,0.0,0.0,0.0,0.0,0.0,0.0,0.0,0.0,0.0,0.0,0.0,0.7638,0.7597,0.7529,0.7238,0.7272,0.7353,0.7278,0.7159,0.7098,0.0,0.0,0.0,0.0,0.0,0.7787,0.8993,0.8816,0.892,1.003,0.9673,0.9573,1.0278,1.2013,1.378,1.5328,1.7078,1.8397,1.9074,1.8851,1.8691,1.8691,1.841,1.833,1.849,1.849,1.841,1.825,1.8328,1.8475,1.8691,1.8557,1.8477,1.8395,1.8477,1.8397,1.825,1.8557,1.8784,1.8931,1.9078,1.9225,1.943,1.943,1.943,1.9319,1.8851,1.8584,1.8328,0.0,0.0,0.0,0.0,0.0,0.0,0.0,0.0,0.0,0.0,0.0,0.0,0.0,0.0,0.0,0.0,0.0,0.0,0.0,0.0,0.0,0.0,0.0,0.0,0.0,0.0,0.0,0.0,0.193,0.396,0.5986,0.5883,0.5067,0.3503,0.1733,0.0931,0.0906,0.0592,0.0484,0.0427,0.0,0.0,0.0,0.0,0.0,0.0,0.0,0.0,0.0,0.0,0.0,0.0,0.0,0.0,0.0,0.4014,0.5792,0.7787,0.7678,0.7624,0.7563,0.7453,0.7419,0.7426,0.746,0.7333,0.7206,0.7206,0.0,0.0,0.0,0.7495,0.8374,1.0408,0.9928,0.996,1.1751,1.0787,0.9925,1.0047,1.1518,1.3044,1.4331,1.6213,1.7745,1.8725,1.8544,1.8384,1.8384,1.8103,1.8036,1.8277,1.8277,1.817,1.7889,1.7889,1.809,1.8384,1.8317,1.8196,1.7995,1.821,1.8143,1.7929,1.825,1.8517,1.8718,1.8798,1.8998,1.9265,1.9265,1.9225,1.9105,1.8584,1.8196,1.7903,0.0,0.0,0.0,0.0,0.0,0.0,0.0,0.0,0.0,0.0,0.0,0.0,0.0,0.0,0.0,0.0,0.0,0.0,0.0,0.0,0.0,0.0,0.0,0.0,0.0,0.0,0.0,0.0,0.1942,0.4569,0.7834,0.7428,0.7055,0.6701,0.4623,0.3725,0.3657,0.2404,0.1834,0.1754,0.048,0.0,0.0,0.0,0.0,0.0,0.0,0.0,0.0,0.0,0.0,0.0,0.0,0.0,0.4014,0.4014,0.5792,0.7807,0.7801,0.7699,0.7563,0.7453,0.7419,0.7453,0.755,0.7577,0.7563,0.7563,0.7678,0.7733,0.759,0.7807,0.865,1.0756,1.121,1.1972,1.3904,1.2917,1.1978,1.1995,1.3237,1.4074,1.4121,1.6698,1.8437,1.8531,1.825,1.8022,1.8022,1.7782,1.7622,1.7649,1.7649,1.7635,1.7609,1.7609,1.7769,1.8022,1.7782,1.7782,1.7982,1.7769,1.7635,1.7622,1.7943,1.8035,1.8075,1.841,1.8691,1.8958,1.8958,1.8784,1.8517,1.8196,1.7876,1.7609,0.0,0.0,0.0,0.0,0.0,0.0,0.0,0.0,0.0,0.0,0.0,0.0,0.0,0.0,0.0,0.0,0.0,0.0,0.0,0.0,0.0,0.0,0.0,0.0,0.0,0.0,0.0,0.0,0.287,0.6009,0.9394,0.7877,0.7058,0.6771,0.4831,0.4005,0.3952,0.3442,0.276,0.1957,0.1424,0.0733,0.0,0.0,0.0,0.0,0.0,0.0,0.0,0.0,0.0,0.0,0.0,0.1799,0.39,0.39,0.5698,0.7658,0.7563,0.757,0.7563,0.7453,0.7419,0.746,0.7563,0.7597,0.7624,0.7712,0.7848,0.7887,0.7833,0.7914,0.8981,1.1992,1.19,1.2421,1.5093,1.4303,1.3391,1.3152,1.3558,1.4212,1.4955,1.6095,1.7076,1.7889,1.7649,1.7488,1.7488,1.7434,1.7447,1.7569,1.746,1.7447,1.7582,1.7447,1.7514,1.7756,1.7635,1.7649,1.7756,1.7635,1.7582,1.7595,1.7702,1.7862,1.7995,1.8115,1.8384,1.8651,1.8651,1.8477,1.8142,1.8035,1.7849,1.7582,0.0,0.0,0.0,0.0,0.0,0.0,0.0,0.0,0.0,0.0,0.0,0.0,0.0,0.0,0.0,0.0,0.0,0.0,0.0,0.0,0.0,0.0,0.0,0.0,0.0,0.0,0.0,0.0,0.3405,0.6585,0.9425,0.8313,0.7715,0.7514,0.5993,0.5426,0.5462,0.4882,0.3856,0.2572,0.2186,0.1192,0.0,0.0,0.0,0.0,0.0,0.0,0.0,0.0,0.0,0.0,0.0,0.1797,0.3844,0.3844,0.559,0.7502,0.7446,0.738,0.7366,0.7258,0.0,0.7434,0.7685,0.774,0.7794,0.7984,0.8106,0.8167,0.8119,0.8113,0.9244,1.2735,1.266,1.3256,1.643,1.5659,1.4724,1.4509,1.44,1.4695,1.5545,1.5958,1.6549,1.7409,1.7233,1.7058,1.7058,1.7058,1.7152,1.7301,1.7166,1.7101,1.7301,1.7114,1.7114,1.7301,1.7301,1.7408,1.7582,1.7488,1.7502,1.7582,1.7582,1.7702,1.7849,1.7849,1.8076,1.8343,1.8343,1.8223,1.7982,1.7876,1.7769,1.7582,0.0,0.0,0.0,0.0,0.0,0.0,0.0,0.0,0.0,0.0,0.0,0.0,0.0,0.0,0.0,0.0,0.0,0.0,0.0,0.0,0.0,0.0,0.0,0.0,0.0,0.0,0.0,0.0,0.3439,0.5962,0.764,0.88,0.9374,0.934,0.8654,0.8431,0.8568,0.6788,0.5222,0.3924,0.2564,0.1229,0.0,0.0,0.0,0.0,0.0,0.0,0.0,0.0,0.0,0.0,0.0,0.1861,0.4014,0.4014,0.559,0.7419,0.7419,0.7156,0.6889,0.6889,0.0,0.0,0.7887,0.7988,0.8076,0.8418,0.8486,0.8438,0.8347,0.8327,0.9389,1.2755,1.3433,1.4668,1.7997,1.7105,1.613,1.613,1.5902,1.5707,1.5713,1.6611,1.7201,1.7192,1.686,1.67,1.67,1.67,1.67,1.67,1.67,1.67,1.67,1.67,1.67,1.67,1.67,1.7007,1.7569,1.7326,1.7353,1.7582,1.7582,1.7582,1.7582,1.7582,1.7769,1.7995,1.7995,1.7995,1.7955,1.7702,1.7582,1.7582,0.0,0.0,0.0,0.0,0.0,0.0,0.0,0.0,0.0,0.0,0.0,0.0,0.0,0.0,0.0,0.0,0.0,0.0,0.0,0.0,0.0,0.0,0.0,0.0,0.0,0.0,0.0596,0.1931,0.3786,0.5513,0.7112,0.8445,0.8899,0.8594,0.8472,0.835,0.8177,0.7641,0.6631,0.5277,0.394,0.2626,0.131,0.0,0.0,0.0,0.0,0.0,0.0,0.0,0.0,0.0,0.0,0.1797,0.3844,0.3844,0.5536,0.7419,0.7419,0.7231,0.7058,0.721,0.0,0.0,0.0,0.7988,0.0,0.0,0.8567,0.8567,0.8316,0.835,0.939,1.2222,1.2935,1.4112,1.6873,1.7003,1.6855,1.6861,1.6623,1.6484,1.6585,1.6594,1.645,1.6252,1.61,1.6179,1.6393,1.6406,1.65,1.67,1.6513,1.65,1.67,1.65,1.65,1.67,1.65,1.6593,1.6967,1.6874,1.6994,1.7326,1.7326,1.7447,1.7582,1.7582,1.7635,1.7716,1.7716,1.7716,1.7702,1.7622,1.7582,1.7582,0.0,0.0,0.0,0.0,0.0,0.0,0.0,0.0,0.0,0.0,0.0,0.0,0.0,0.0,0.0,0.0,0.0,0.0,0.0,0.0,0.0,0.0,0.0,0.0,0.0,0.0,0.0516,0.1633,0.3572,0.4918,0.5796,0.7986,0.8879,0.8681,0.8763,0.8648,0.8472,0.8289,0.7333,0.5927,0.5122,0.3667,0.1912,0.0,0.0,0.0,0.0,0.0,0.0,0.0,0.0,0.0,0.0,0.14,0.3155,0.3591,0.5022,0.6583,0.7077,0.7129,0.7051,0.7244,0.7529,0.7834,0.8079,0.0,0.0,0.8628,0.8737,0.873,0.8486,0.8418,0.9153,1.1351,1.2289,1.3504,1.5617,1.6557,1.7005,1.7027,1.6813,1.6767,1.689,1.654,1.6211,1.6002,1.5883,1.5912,1.6086,1.6099,1.6179,1.6353,1.6192,1.6179,1.6353,1.6179,1.6179,1.6353,1.6179,1.6192,1.6366,1.6486,1.67,1.7032,1.7152,1.73,1.7474,1.7542,1.7582,1.7582,1.7582,1.7582,1.7582,1.7582,1.7582,1.7582,0.0,0.0,0.0,0.0,0.0,0.0,0.0,0.0,0.0,0.0,0.0,0.0,0.0,0.0,0.0,0.0,0.0,0.0,0.0,0.0,0.0,0.0,0.0,0.0,0.0,0.0,0.0056,0.0163,0.3029,0.4273,0.4067,0.7575,0.9173,0.9152,0.918,0.9173,0.9118,0.8628,0.7558,0.6182,0.6032,0.4472,0.2163,0.2063,0.0,0.0,0.0,0.0,0.0,0.0,0.0,0.0,0.0,0.0907,0.2198,0.3325,0.4358,0.5413,0.6642,0.6937,0.6943,0.7112,0.7584,0.8099,0.8255,0.8608,0.8844,0.8844,0.8865,0.8831,0.8723,0.8472,0.883,1.0364,1.162,1.2911,1.4503,1.5817,1.6608,1.666,1.6647,1.6633,1.666,1.6406,1.6233,1.6233,1.5979,1.5784,1.5784,1.5784,1.5784,1.5784,1.5784,1.5784,1.5784,1.5784,1.5784,1.5784,1.5784,1.5784,1.5784,1.6112,1.6393,1.6687,1.7032,1.7166,1.7179,1.7395,1.7502,1.7502,1.7502,1.7502,1.7502,1.7528,1.7542,1.7542,0.0,0.0,0.0,0.0,0.0,0.0,0.0,0.0,0.0,0.0,0.0,0.0,0.0,0.0,0.0,0.0,0.0,0.0,0.0,0.0,0.0,0.0,0.0,0.0,0.0,0.0,0.0536,0.1571,0.325,0.4072,0.4072,0.7408,0.8859,0.8635,0.8879,0.8852,0.8608,0.8275,0.7899,0.7484,0.6431,0.5022,0.3466,0.2414,0.1159,0.0,0.0,0.0,0.0,0.0,0.0,0.0,0.0,0.0907,0.226,0.3533,0.4682,0.5815,0.7214,0.7314,0.0,0.757,0.7943,0.8255,0.8404,0.8513,0.8581,0.8581,0.8771,0.8852,0.8581,0.8479,0.8829,0.9954,1.1316,1.2681,1.3918,1.5194,1.6086,1.6334,1.6157,1.6112,1.6339,1.6099,1.5925,1.5925,1.5824,1.5784,1.5784,1.5784,1.5784,1.5784,1.5784,1.5784,1.5784,1.5784,1.5784,1.5784,1.5784,1.5784,1.5784,1.5851,1.6086,1.638,1.6673,1.6807,1.6807,1.686,1.6901,1.6901,1.6901,1.6901,1.6927,1.7206,1.73,1.7326,0.0,0.0,0.0,0.0,0.0,0.0,0.0,0.0,0.0,0.0,0.0,0.0,0.0,0.0,0.0,0.0,0.0,0.0,0.0,0.0,0.0,0.0,0.0,0.0,0.0,0.0637,0.1313,0.1992,0.4001,0.4961,0.5027,0.7545,0.8635,0.8499,0.8804,0.8771,0.8472,0.8316,0.8167,0.7889,0.6531,0.5172,0.3864,0.2515,0.1159,0.0,0.0,0.0,0.0,0.0,0.0,0.0,0.0,0.0,0.1405,0.3245,0.419,0.5063,0.6945,0.0,0.0,0.7916,0.0,0.834,0.8364,0.8431,0.8465,0.8391,0.8621,0.8757,0.8526,0.8479,0.8664,0.9133,1.0312,1.1559,1.2769,1.4064,1.5194,1.5954,1.5904,1.5885,1.6046,1.5925,1.5784,1.5784,1.5784,1.5784,1.5784,1.5784,1.5784,1.5784,1.5784,1.5784,1.5784,1.5784,1.5784,1.5784,1.5784,1.5784,1.5784,1.5784,1.5912,1.6072,1.6366,1.65,1.6513,1.6647,1.67,1.67,1.67,1.67,1.6727,1.6874,1.7072,1.7219,0.0,0.0,0.0,0.0,0.0,0.0,0.0,0.0,0.0,0.0,0.0,0.0,0.0,0.0,0.0,0.0,0.0,0.0,0.0,0.0,0.0,0.0,0.0,0.0,0.0,0.1312,0.2092,0.2326,0.478,0.6142,0.6419,0.7833,0.8479,0.8492,0.875,0.8703,0.8438,0.8391,0.8221,0.7849,0.6498,0.5159,0.3864,0.2515,0.1159,0.0,0.0,0.0,0.005,0.0252,0.0,0.0,0.0,0.0,0.1047,0.3085,0.3806,0.4383,0.6355,0.0,0.776,0.8106,0.8208,0.0,0.8235,0.8323,0.837,0.8255,0.8445,0.8594,0.8472,0.8425,0.837,0.8248,0.9261,1.0358,1.1424,1.2942,1.4304,1.5343,1.5689,1.5784,1.5784,1.5778,1.5752,1.5752,1.5752,1.5752,1.5752,1.5758,1.5784,1.5784,1.5784,1.5784,1.5784,1.5784,1.5784,1.5784,1.5784,1.5784,1.5784,1.5784,1.5784,1.5798,1.6086,1.6192,1.6219,1.646,1.6553,1.6553,1.6553,1.6553,1.6553,1.6607,1.678,1.7072,0.0,0.0,0.0,0.0,0.0,0.0,0.0,0.0,0.0,0.0,0.0,0.0,0.0,0.0,0.0,0.0,0.0,0.0,0.0,0.0,0.0,0.0,0.0,0.0,0.0,0.1338,0.2577,0.3754,0.5267,0.6687,0.7986,0.8352,0.8479,0.8486,0.8526,0.8452,0.8333,0.8011,0.7875,0.7696,0.6371,0.5098,0.3864,0.2515,0.1159,0.0,0.0,0.0,0.0202,0.136,0.1712,0.0,0.0,0.0,0.3384,0.3804,0.4614,0.5464,0.6016,0.0,0.7914,0.0,0.797,0.8022,0.0,0.0,0.8042,0.0,0.8208,0.8323,0.8354,0.8187,0.8042,0.8022,0.9137,1.006,1.0248,1.2377,1.398,1.4124,1.514,1.5784,1.5784,1.5605,1.5458,1.5458,1.5458,1.5458,1.5458,1.5698,1.5784,1.5784,1.5784,1.5784,1.5784,1.5784,1.5784,1.5784,1.5784,1.5784,1.5784,1.5784,1.5784,1.5784,1.5872,1.5885,1.5885,1.5925,1.5904,1.5904,1.5904,1.5904,1.5979,1.6233,1.6353,1.6509,0.0,0.0,0.0,0.0,0.0,0.0,0.0,0.0,0.0,0.0,0.0,0.0,0.0,0.0,0.0,0.0,0.0,0.0,0.0,0.0,0.0,0.0,0.0,0.0,0.0,0.207,0.3434,0.4014,0.6102,0.7466,0.8147,0.8296,0.8364,0.8364,0.8275,0.8201,0.8126,0.7902,0.7862,0.7782,0.6371,0.5456,0.4679,0.2743,0.1541,0.0833,0.02,0.0504,0.121,0.1813,0.2515,0.3215,0.3817,0.0,0.0,0.0,0.4324,0.4866,0.5671,0.6286,0.6822,0.0,0.7862,0.7887,0.7968,0.7988,0.7988,0.7988,0.8092,0.814,0.814,0.816,0.814,0.8002,0.8478,0.9164,0.9903,1.0965,1.228,1.3728,1.4411,1.4934,1.5511,1.5471,1.5324,1.5209,1.5196,1.5196,1.5196,1.5271,1.5351,1.5351,1.5351,1.5351,1.5351,1.5351,1.5431,1.5591,1.5752,1.5784,1.5784,1.5784,1.5784,1.5784,1.5784,1.5784,1.5784,1.5784,1.5784,1.5784,1.5784,1.5784,1.5798,1.5979,1.6233,1.6553,0.0,0.0,0.0,0.0,0.0,0.0,0.0,0.0,0.0,0.0,0.0,0.0,0.0,0.0,0.0,0.0,0.0,0.0,0.0,0.0,0.0,0.0,0.0,0.0,0.0,0.2314,0.3667,0.4014,0.6326,0.7709,0.8099,0.8174,0.8235,0.832,0.8147,0.8052,0.7921,0.7821,0.7821,0.7762,0.6224,0.5601,0.5331,0.3098,0.2168,0.1944,0.1178,0.1594,0.2498,0.2912,0.3667,0.4568,0.4918,0.4984,0.0,0.0,0.0,0.0,0.0,0.0,0.5546,0.6899,0.7273,0.7398,0.0,0.0,0.7941,0.0,0.7988,0.7988,0.7988,0.8133,0.8174,0.8008,0.7988,0.8329,0.9361,0.9805,1.0702,1.263,1.3397,1.4063,1.4792,1.5035,1.5084,1.4914,1.4856,1.4856,1.4856,1.4968,1.5008,1.5008,1.5008,1.5008,1.5008,1.5008,1.5115,1.5284,1.5578,1.5725,1.5725,1.5744,1.5784,1.5784,1.5784,1.5784,1.5784,1.5784,1.5784,1.5784,1.5784,1.5784,1.5784,1.5784,1.6064,1.65,0.0,0.0,0.0,0.0,0.0,0.0,0.0,0.0,0.0,0.0,0.0,0.0,0.0,0.0,0.0,0.0,0.0,0.0,0.0,0.0,0.0,0.0,0.0,0.0,0.0,0.136,0.2714,0.4014,0.5422,0.0,0.8255,0.8113,0.8133,0.832,0.8313,0.8092,0.7814,0.7672,0.7617,0.7456,0.5793,0.5265,0.5252,0.3668,0.3137,0.3328,0.3402,0.3517,0.3925,0.5345,0.5827,0.6126,0.7385,0.7605,0.7187,0.0,0.0,0.0,0.0,0.3982,0.0,0.5459,0.58,0.0,0.0,0.0,0.7862,0.7961,0.7988,0.7988,0.7988,0.7995,0.8002,0.7988,0.7988,0.8038,0.8088,0.9213,0.9983,0.9988,1.2042,1.3414,1.3304,1.4046,1.4563,1.4549,1.4549,1.4549,1.4549,1.4816,1.5008,1.5008,1.5008,1.5008,1.5008,1.5008,1.5022,1.5035,1.5284,1.5418,1.5431,1.5698,1.5784,1.5784,1.5784,1.5784,1.5784,1.5784,1.5784,1.5784,1.5784,1.5784,1.5784,1.5784,1.5798,1.5952,0.0,0.0,0.0,0.0,0.0,0.0,0.0,0.0,0.0,0.0,0.0,0.0,0.0,0.0504,0.0,0.0,0.0,0.0,0.0,0.0,0.0,0.0,0.0,0.0,0.0,0.1309,0.2663,0.4014,0.5322,0.6703,0.8126,0.8167,0.8167,0.8126,0.8126,0.8058,0.7894,0.7699,0.7651,0.7651,0.675,0.636,0.6204,0.49,0.4355,0.4263,0.3631,0.4135,0.5183,0.5709,0.6514,0.7385,0.7839,0.7896,0.7454,0.0,0.0,0.0,0.0,0.0,0.0,0.6288,0.6133,0.5901,0.7348,0.7597,0.7597,0.7841,0.7821,0.7814,0.7955,0.7988,0.7988,0.7988,0.7988,0.7988,0.7988,0.8343,0.8881,0.9723,1.0444,1.1431,1.2796,1.3221,1.3635,1.4213,1.4242,1.4242,1.4242,1.4349,1.4402,1.4402,1.4402,1.4402,1.4402,1.4589,1.4683,1.4683,1.4977,1.5217,1.5404,1.5511,1.5658,1.5784,1.5784,1.5784,1.5784,1.5784,1.5784,1.5784,1.5784,1.5784,1.5784,1.5784,1.5952,1.6139,0.0,0.0,0.0,0.0,0.0,0.0,0.0,0.0,0.0,0.3366,0.0,0.0,0.0,0.0,0.0,0.0,0.0,0.0,0.0,0.0,0.0,0.0,0.0,0.0,0.0,0.1561,0.2864,0.4668,0.5577,0.6681,0.7988,0.8147,0.814,0.7988,0.7988,0.7988,0.0,0.0,0.7678,0.7767,0.721,0.7027,0.6981,0.6002,0.5665,0.5626,0.4922,0.5405,0.6384,0.6384,0.7076,0.7853,0.7901,0.7862,0.7441,0.0,0.0,0.0,0.4714,0.0,0.0,0.0,0.6111,0.5783,0.7256,0.7482,0.7441,0.7692,0.7665,0.7658,0.7855,0.784,0.786,0.7907,0.7955,0.7975,0.7921,0.7875,0.8124,0.8973,0.922,0.994,1.1333,1.2188,1.2868,1.3434,1.387,1.4082,1.4082,1.4082,1.4082,1.4082,1.4082,1.4082,1.4082,1.4282,1.4376,1.4376,1.4669,1.4963,1.5257,1.5351,1.5551,1.5784,1.5784,1.5784,1.5784,1.5784,1.5784,1.5784,1.5784,1.5784,1.5784,1.5784,1.5952,1.6152,0.0,0.0,0.0,0.0,0.0,0.0,0.0,0.0,0.3667,0.2364,0.0,0.0,0.0,0.0,0.0,0.0101,0.0101,0.0051,0.005,0.0,0.0,0.0,0.0,0.0,0.1962,0.2012,0.3318,0.5927,0.5977,0.6681,0.7988,0.7988,0.7988,0.7988,0.7982,0.7982,0.7961,0.0,0.7678,0.7746,0.7007,0.6973,0.7364,0.6878,0.698,0.7405,0.7405,0.7461,0.759,0.759,0.7597,0.7631,0.7767,0.7712,0.0,0.0,0.0,0.0,0.0,0.0,0.0,0.0,0.0,0.0,0.7269,0.7468,0.7407,0.7556,0.7584,0.7584,0.7584,0.7584,0.7624,0.7767,0.7874,0.7928,0.7828,0.7801,0.7746,0.7611,0.8452,0.8991,0.8911,1.0907,1.2279,1.2279,1.3421,1.4082,1.4082,1.4082,1.4082,1.4082,1.4082,1.4082,1.4082,1.4082,1.4082,1.4095,1.4376,1.4669,1.5008,1.5257,1.5538,1.5771,1.5784,1.5784,1.5784,1.5784,1.5784,1.5784,1.5784,1.5784,1.5784,1.5784,1.5784,1.5878,0.0,0.0,0.0,0.0,0.0,0.0,0.6675,0.688,0.6781,0.0,0.0,0.0,0.4372,0.3561,0.3025,0.3025,0.2156,0.1534,0.1462,0.0555,0.0454,0.141,0.0504,0.0605,0.1962,0.2012,0.2816,0.4568,0.5522,0.6681,0.7988,0.7988,0.7988,0.7982,0.7923,0.7875,0.7862,0.7678,0.7678,0.7767,0.7186,0.7051,0.7177,0.6953,0.6946,0.7048,0.7048,0.7217,0.7434,0.7434,0.7577,0.776,0.7801,0.7712,0.0,0.0,0.0,0.0,0.6475,0.0,0.0,0.0,0.0,0.0,0.6937,0.7186,0.7173,0.7213,0.722,0.722,0.722,0.7139,0.7163,0.726,0.755,0.7706,0.7665,0.7563,0.7482,0.7441,0.7562,0.7974,0.8807,1.0047,1.1196,1.2225,1.3188,1.3813,1.4082,1.4082,1.4082,1.4082,1.4082,1.4082,1.4082,1.4082,1.4082,1.4082,1.4175,1.4362,1.4656,1.495,1.5244,1.5524,1.5738,1.5784,1.5784,1.5784,1.5784,1.5784,1.5784,1.5784,1.5784,1.5784,1.5965,1.6179,0.0,0.0,0.262,0.4614,0.0,0.6619,0.8011,0.8174,0.7932,0.0,0.0,0.0,0.528,0.4731,0.4355,0.4188,0.346,0.2718,0.2066,0.1813,0.1762,0.2012,0.1813,0.2314,0.362,0.3115,0.3767,0.5672,0.5877,0.6681,0.7988,0.7988,0.7988,0.7982,0.7882,0.7814,0.7794,0.759,0.7624,0.7767,0.7213,0.7152,0.7348,0.7078,0.7051,0.7204,0.7136,0.7265,0.7448,0.7319,0.7475,0.7712,0.7645,0.7611,0.0,0.0,0.0,0.0,0.0,0.0,0.0,0.7409,0.0,0.0,0.7072,0.7139,0.7058,0.6937,0.6964,0.6991,0.6966,0.6939,0.691,0.6947,0.7159,0.7366,0.7489,0.7428,0.7419,0.7419,0.7238,0.7356,0.8105,0.9518,1.073,1.1541,1.2974,1.3908,1.4082,1.4082,1.4082,1.4082,1.4082,1.4082,1.4082,1.4082,1.4082,1.4082,1.4082,1.4242,1.4522,1.4696,1.5003,1.5404,1.5578,1.5712,1.5784,1.5784,1.5784,1.5784,1.5784,1.5784,1.5784,1.5784,1.6019,1.6335,0.0,0.0,0.3234,0.5863,0.6446,0.6958,0.8321,0.837,0.7872,0.0,0.642,0.594,0.4846,0.4977,0.505,0.4738,0.4553,0.3843,0.2517,0.3416,0.3516,0.2515,0.3466,0.4618,0.5977,0.4822,0.5372,0.7789,0.6731,0.683,0.7988,0.7988,0.7982,0.7961,0.7855,0.778,0.7746,0.7482,0.7522,0.7719,0.719,0.7305,0.774,0.728,0.7326,0.7529,0.7394,0.7434,0.7509,0.7206,0.7346,0.7556,0.7455,0.7489,0.7556,0.7448,0.7502,0.0,0.0,0.0,0.0,0.7814,0.7719,0.0,0.7453,0.7278,0.7058,0.679,0.6844,0.6898,0.6819,0.6852,0.6869,0.684,0.684,0.7021,0.7285,0.7319,0.7319,0.7344,0.7177,0.7051,0.7071,0.9044,1.0426,1.0605,1.2784,1.4082,1.4082,1.4082,1.4082,1.4082,1.4082,1.4082,1.4082,1.4082,1.4082,1.4082,1.4082,1.4215,1.4469,1.4536,1.4856,1.5351,1.5418,1.5591,1.5784,1.5784,1.5784,1.5784,1.5784,1.5784,1.5784,1.5824,1.6059,1.6366,0.1969,0.372,0.5454,0.6169,0.7175,0.8092,0.8568,0.8438,0.8346,0.8378,0.8343,0.832,0.8233,0.8041,0.7869,0.7814,0.6662,0.5681,0.5231,0.4468,0.4368,0.5172,0.4418,0.4618,0.5977,0.5727,0.5877,0.6381,0.7185,0.7739,0.7988,0.7988,0.7928,0.7848,0.7706,0.757,0.7455,0.7439,0.0,0.7448,0.7333,0.7428,0.7617,0.7407,0.7285,0.7179,0.7152,0.7159,0.7193,0.7305,0.7366,0.7455,0.7658,0.7584,0.7455,0.7665,0.7665,0.0,0.0,0.0,0.7914,0.7841,0.7787,0.0,0.7434,0.7441,0.7394,0.6973,0.6957,0.697,0.6749,0.6722,0.6783,0.6869,0.6883,0.6903,0.7007,0.7014,0.6973,0.6844,0.6803,0.6831,0.6916,0.7984,0.9186,1.0499,1.2784,1.4082,1.4082,1.4082,1.4082,1.4082,1.4082,1.4082,1.4082,1.4082,1.4082,1.4082,1.4082,1.4122,1.4188,1.4669,1.4981,1.5115,1.5538,1.5731,1.5784,1.5784,1.5784,1.5784,1.5784,1.5784,1.5811,1.6099,1.6366,1.666,0.2869,0.4622,0.6284,0.7234,0.7949,0.8499,0.8872,0.8743,0.871,0.9008,0.9049,0.9015,0.894,0.8866,0.8737,0.8513,0.7775,0.6918,0.6037,0.5977,0.5977,0.5977,0.5977,0.6326,0.698,0.6331,0.6331,0.6986,0.6986,0.7335,0.7988,0.7988,0.7874,0.7699,0.7631,0.7516,0.7419,0.7419,0.7455,0.7577,0.7434,0.746,0.7468,0.7312,0.721,0.7098,0.7098,0.7098,0.7119,0.7319,0.7421,0.7509,0.7658,0.7651,0.7617,0.7767,0.776,0.7719,0.7794,0.7874,0.7975,0.7894,0.7874,0.0,0.0,0.7543,0.7489,0.7071,0.7045,0.7031,0.6809,0.6775,0.6837,0.6962,0.6865,0.6844,0.6876,0.6883,0.6829,0.6715,0.6702,0.6763,0.6869,0.7858,0.9289,1.1316,1.3082,1.4082,1.4082,1.4082,1.4082,1.4082,1.4082,1.4082,1.4082,1.4082,1.4082,1.4082,1.4082,1.4162,1.4309,1.4603,1.4897,1.519,1.5484,1.5698,1.5784,1.5784,1.5784,1.5784,1.5784,1.5784,1.5798,1.5992,1.6326,1.6727,0.3767,0.5072,0.6497,0.8183,0.8438,0.8581,0.9057,0.892,0.8886,0.9083,0.9193,0.9139,0.8899,0.8893,0.8784,0.8506,0.8296,0.7718,0.6585,0.7403,0.7508,0.6431,0.7434,0.7988,0.7988,0.6936,0.693,0.7988,0.693,0.6936,0.7988,0.7988,0.7847,0.7638,0.7611,0.7529,0.0,0.0,0.0,0.7706,0.7502,0.7434,0.7434,0.7251,0.7139,0.7139,0.7105,0.7098,0.7119,0.7319,0.7455,0.7563,0.7624,0.7699,0.778,0.7841,0.7834,0.7821,0.7848,0.7894,0.7988,0.7988,0.7988,0.7921,0.0,0.0,0.0,0.7244,0.7146,0.7105,0.0,0.0,0.6959,0.7068,0.6873,0.677,0.6831,0.6844,0.6797,0.6668,0.6654,0.6715,0.6829,0.8199,0.9852,1.1773,1.3218,1.4001,1.4001,1.4001,1.4028,1.4082,1.4082,1.4082,1.4082,1.4082,1.4122,1.4175,1.4175,1.4322,1.4603,1.4656,1.495,1.5404,1.5458,1.5618,1.5784,1.5784,1.5784,1.5784,1.5784,1.5784,1.5784,1.5885,1.6219,1.6633,0.3964,0.5072,0.6475,0.8057,0.8347,0.8397,0.871,0.8526,0.8492,0.8906,0.9076,0.9303,0.9483,0.9042,0.8879,0.9225,0.8404,0.8035,0.8388,0.8032,0.7798,0.7783,0.7939,0.7988,0.7988,0.7839,0.7839,0.7988,0.7839,0.7839,0.7988,0.7988,0.7901,0.778,0.7658,0.0,0.0,0.0,0.7516,0.0,0.7536,0.7651,0.7733,0.7455,0.7346,0.7326,0.7146,0.7098,0.7119,0.7319,0.7433,0.7441,0.7706,0.7712,0.7678,0.7887,0.7867,0.7841,0.7928,0.7975,0.7988,0.7988,0.7988,0.7948,0.7828,0.0,0.7699,0.7446,0.0,0.7301,0.7105,0.0,0.0,0.6953,0.6912,0.6817,0.6559,0.6566,0.6559,0.6538,0.6538,0.6559,0.6709,0.8956,1.0419,1.0459,1.2431,1.3653,1.3653,1.3653,1.3773,1.4082,1.4082,1.4082,1.4082,1.4082,1.4215,1.4469,1.4469,1.4629,1.4968,1.5177,1.5337,1.5404,1.5671,1.5758,1.5784,1.5784,1.5784,1.5784,1.5784,1.5784,1.5858,1.6126,1.6308,1.6366,0.4722,0.5627,0.6469,0.8037,0.0,0.0,0.0,0.0,0.8954,0.9049,0.9191,0.9334,0.9462,0.9171,0.9008,0.9117,0.8642,0.837,0.8452,0.8221,0.8106,0.8174,0.8174,0.8174,0.8174,0.8035,0.7988,0.7988,0.7988,0.7988,0.7988,0.7988,0.7867,0.7685,0.7624,0.0,0.7475,0.0,0.7611,0.0,0.7699,0.776,0.7767,0.7387,0.7238,0.7231,0.7119,0.7098,0.7105,0.7217,0.736,0.7509,0.7543,0.7692,0.7862,0.7896,0.7923,0.7907,0.7975,0.7988,0.7988,0.7988,0.7988,0.7975,0.7907,0.7929,0.7882,0.778,0.0,0.0,0.0,0.0,0.0,0.0,0.6966,0.6783,0.6742,0.6512,0.6388,0.6388,0.6388,0.6484,0.6675,0.8404,0.9705,1.0166,1.1612,1.273,1.3347,1.3507,1.3653,1.3828,1.4001,1.4082,1.4082,1.4082,1.4229,1.4522,1.4522,1.4763,1.5217,1.5337,1.5484,1.5658,1.5731,1.5784,1.5784,1.5784,1.5784,1.5784,1.5784,1.5784,1.5798,1.5965,1.6126,1.6335,0.5827,0.5977,0.6052,0.7877,0.8208,0.0,0.0,0.8832,0.9035,0.9089,0.9117,0.9211,0.9422,0.933,0.9198,0.93,0.894,0.8669,0.8581,0.8436,0.8248,0.8208,0.8248,0.8248,0.8208,0.8099,0.7988,0.7988,0.7988,0.7988,0.7988,0.7988,0.7874,0.7719,0.7678,0.7597,0.7495,0.0,0.7658,0.7753,0.7753,0.7753,0.7712,0.7346,0.7132,0.7098,0.7098,0.7098,0.7105,0.7146,0.7353,0.7522,0.7455,0.7658,0.7847,0.7787,0.7834,0.0,0.7914,0.7928,0.7934,0.7982,0.7988,0.7988,0.7988,0.7988,0.7975,0.7934,0.7875,0.0,0.0,0.0,0.7407,0.7319,0.0,0.6817,0.6803,0.6559,0.6409,0.6361,0.6395,0.6485,0.6736,0.795,0.8943,0.9574,1.0807,1.1885,1.2608,1.32,1.352,1.36,1.3935,1.4082,1.4082,1.4082,1.4229,1.4522,1.4603,1.491,1.5404,1.5484,1.5631,1.5784,1.5784,1.5784,1.5784,1.5784,1.5784,1.5784,1.5784,1.5784,1.5784,1.5784,1.5965,1.6152,0.7385,0.5822,0.0,0.0,0.7995,0.8099,0.8262,0.8167,0.8238,0.8817,0.8689,0.8791,0.9523,0.9334,0.9501,1.0175,0.93,0.8893,0.932,0.8669,0.8201,0.8002,0.8187,0.8201,0.8002,0.7988,0.7988,0.7988,0.7988,0.7988,0.7988,0.7988,0.7982,0.7968,0.7868,0.7801,0.7787,0.7658,0.7604,0.7604,0.7604,0.7604,0.759,0.7428,0.7272,0.7098,0.7098,0.7098,0.7119,0.7312,0.7419,0.7446,0.755,0.7604,0.7611,0.7611,0.7611,0.7645,0.778,0.7821,0.7855,0.7955,0.7988,0.7988,0.7988,0.7988,0.7948,0.7848,0.7828,0.776,0.7624,0.7597,0.7495,0.7152,0.7092,0.0,0.0,0.66,0.6634,0.6525,0.66,0.6749,0.6862,0.7978,0.8538,0.8091,1.0027,1.1245,1.1245,1.2504,1.332,1.36,1.3935,1.4082,1.4082,1.4082,1.4229,1.4479,1.4816,1.511,1.5404,1.5685,1.5771,1.5784,1.5784,1.5784,1.5784,1.5784,1.5784,1.5784,1.5784,1.5784,1.5784,1.5784,1.5784,1.5798,0.6326,0.5927,0.5877,0.769,0.7988,0.8092,0.8248,0.8479,0.8723,0.9178,0.9313,0.9578,1.0134,1.01,1.0107,1.027,0.9863,0.949,0.9303,0.905,0.875,0.835,0.8384,0.8384,0.8336,0.8089,0.8092,0.8194,0.8092,0.7988,0.7988,0.7988,0.7988,0.7982,0.7882,0.776,0.0,0.0,0.0,0.0,0.0,0.7509,0.7584,0.7428,0.74,0.7441,0.7441,0.738,0.7299,0.7398,0.7441,0.7495,0.7346,0.7502,0.7719,0.7631,0.7665,0.7773,0.7874,0.7914,0.7928,0.7975,0.7988,0.7988,0.7988,0.7988,0.7975,0.7921,0.795,0.7929,0.7896,0.7807,0.7678,0.7475,0.7227,0.7011,0.0,0.6729,0.6715,0.677,0.6817,0.6831,0.6783,0.7146,0.7548,0.7986,0.9213,1.0242,1.0886,1.2376,1.3253,1.332,1.3828,1.4082,1.4082,1.4082,1.4229,1.4479,1.483,1.5156,1.5404,1.5698,1.5784,1.5784,1.5784,1.5784,1.5784,1.5784,1.5784,1.5784,1.5784,1.5784,1.5784,1.5784,1.5784,1.5784,0.6498,0.6731,0.6986,0.7839,0.8035,0.8174,0.8323,0.8682,0.9062,0.9415,0.9625,0.9937,1.0439,1.0446,1.0419,1.0432,1.0249,0.9897,0.9354,0.9313,0.9069,0.8506,0.8533,0.8513,0.8411,0.8221,0.8147,0.8187,0.8147,0.8092,0.7988,0.7988,0.7988,0.7988,0.0,0.7814,0.7678,0.7678,0.7617,0.0,0.0,0.7617,0.774,0.7584,0.7556,0.7597,0.7597,0.7536,0.7455,0.7455,0.7482,0.7482,0.7285,0.7421,0.7638,0.7543,0.7624,0.7767,0.7867,0.7907,0.7921,0.7975,0.7988,0.7988,0.7988,0.7988,0.7988,0.7988,0.7988,0.7975,0.7921,0.7875,0.7746,0.755,0.7353,0.717,0.0,0.6878,0.6837,0.6943,0.6916,0.6829,0.6715,0.6702,0.69,0.7352,0.8568,0.9635,1.0356,1.2181,1.3253,1.332,1.3841,1.4082,1.4082,1.4082,1.4229,1.4479,1.483,1.5156,1.5404,1.5698,1.5784,1.5784,1.5784,1.5784,1.5784,1.5784,1.5784,1.5784,1.5784,1.5784,1.5784,1.5784,1.5784,1.5784,0.7855,0.8008,0.8008,0.8008,0.818,0.8381,0.8472,0.8764,0.9074,0.9571,0.9652,0.9883,1.0453,1.0392,1.0419,1.0683,1.0453,1.01,0.9652,0.9618,0.9286,0.8533,0.8642,0.8581,0.834,0.8327,0.8201,0.8002,0.8187,0.818,0.0,0.0,0.0,0.0,0.7988,0.0,0.7814,0.7814,0.7814,0.7814,0.7801,0.7896,0.7975,0.7868,0.7733,0.7617,0.7617,0.7617,0.7611,0.7611,0.7516,0.7439,0.7419,0.7426,0.7439,0.7433,0.7489,0.7645,0.778,0.7821,0.7855,0.7955,0.7988,0.7988,0.7988,0.7988,0.8038,0.8088,0.8031,0.7984,0.7931,0.7856,0.7706,0.7467,0.0,0.7312,0.7125,0.6984,0.6943,0.7078,0.6977,0.6878,0.6715,0.6702,0.658,0.632,0.8122,0.9354,0.9693,1.1888,1.3267,1.36,1.3935,1.4082,1.4082,1.4082,1.4229,1.4479,1.483,1.5156,1.5404,1.5698,1.5784,1.5784,1.5784,1.5784,1.5784,1.5784,1.5784,1.5784,1.5784,1.5784,1.5784,1.5784,1.5784,1.5784,0.8177,0.8296,0.837,0.837,0.8397,0.8479,0.8628,0.9096,0.9557,0.9829,1.0229,1.0534,1.0806,1.0799,1.0717,1.0561,1.048,1.0249,0.9795,0.9768,0.9483,0.8852,0.8804,0.8737,0.8431,0.8374,0.8248,0.8214,0.8133,0.8029,0.7988,0.0,0.0,0.0,0.0,0.0,0.7814,0.7814,0.7814,0.7801,0.7699,0.7807,0.7975,0.7868,0.7862,0.788,0.788,0.7855,0.7753,0.7753,0.7733,0.7658,0.7487,0.7522,0.7678,0.757,0.7645,0.7787,0.7887,0.7934,0.7941,0.7982,0.7988,0.7988,0.7988,0.7988,0.8287,0.9262,0.863,0.8146,0.9108,0.8387,0.759,0.7446,0.0,0.0,0.7299,0.7183,0.7058,0.7092,0.7065,0.6943,0.6722,0.6702,0.658,0.632,0.748,0.8625,0.9654,1.1243,1.2559,1.3546,1.3935,1.4082,1.4082,1.4082,1.4229,1.4479,1.483,1.5156,1.5404,1.5698,1.5784,1.5784,1.5784,1.5784,1.5784,1.5784,1.5784,1.5784,1.5784,1.5784,1.5784,1.5784,1.5784,1.5784,0.8347,0.8492,0.8682,0.8682,0.8845,0.896,0.8913,0.9245,0.9639,0.9936,1.0331,1.0582,1.0731,1.0806,1.0751,1.0514,1.0493,1.0304,0.9849,0.9883,0.9652,0.9055,0.9028,0.8859,0.8492,0.8404,0.8303,0.8167,0.8147,0.8106,0.7988,0.0,0.0,0.0,0.0,0.7941,0.7909,0.7909,0.7909,0.7902,0.7828,0.784,0.0,0.7894,0.7914,0.7988,0.7988,0.7934,0.7909,0.7909,0.7868,0.7773,0.7543,0.7631,0.778,0.7645,0.7746,0.788,0.7968,0.7988,0.7988,0.7988,0.7988,0.7988,0.7988,0.8428,0.9072,0.9854,0.9763,0.979,1.033,0.9862,0.9363,0.0,0.8609,0.8148,0.8223,0.7652,0.7217,0.7105,0.7098,0.7004,0.6824,0.6742,0.6607,0.6409,0.725,0.844,0.9836,1.1061,1.2367,1.3786,1.4122,1.4215,1.4082,1.4215,1.4429,1.471,1.4928,1.5177,1.5591,1.5752,1.5784,1.5784,1.5784,1.5784,1.5784,1.5784,1.5784,1.5784,1.5784,1.5784,1.5784,1.5784,1.5784,1.5784,0.8404,0.8716,0.8966,0.8946,0.9334,0.953,0.9364,0.9415,0.9659,0.997,1.0249,1.0405,1.0514,1.0643,1.0649,1.048,1.0466,1.0283,0.9849,0.9883,0.9768,0.9262,0.9241,0.9016,0.8492,0.8479,0.8336,0.7988,0.8174,0.8174,0.0,0.0,0.0,0.0,0.0,0.0,0.0,0.7988,0.7988,0.7988,0.7988,0.7988,0.7988,0.7988,0.7988,0.7988,0.7988,0.7988,0.8038,0.8187,0.8196,0.8056,0.7909,0.7958,0.8049,0.7712,0.7821,0.7988,0.7988,0.7988,0.7988,0.7988,0.7988,0.7988,0.7988,0.8924,0.9854,1.019,1.1005,1.1644,1.1626,1.1621,1.1615,0.0,1.0481,0.9673,0.9613,0.8473,0.759,0.7405,0.7238,0.0,0.6923,0.6817,0.6661,0.6525,0.7211,0.8308,0.9847,1.0917,1.2213,1.3791,1.4223,1.4362,1.4148,1.4362,1.4656,1.5062,1.5022,1.5271,1.5784,1.5784,1.5784,1.5784,1.5784,1.5784,1.5784,1.5784,1.5784,1.5784,1.5784,1.5784,1.5784,1.5784,1.5784,1.5784,0.8804,0.9184,0.9456,0.9327,0.9476,0.9673,0.9863,1.012,1.0283,1.0243,1.0582,1.0792,1.069,1.0704,1.0609,1.0337,1.0317,1.0175,0.9842,0.9842,0.9707,0.9354,0.934,0.9069,0.8492,0.8479,0.8336,0.7988,0.8015,0.8015,0.7988,0.0,0.0,0.0,0.0,0.0,0.7988,0.7988,0.0,0.7988,0.7988,0.7988,0.7988,0.7988,0.7988,0.7988,0.7988,0.7988,0.8187,0.9262,0.9633,0.9575,0.9444,0.9509,0.938,0.8152,0.7902,0.7988,0.7988,0.7988,0.7988,0.7988,0.7988,0.7988,0.7988,0.8187,0.8973,1.1121,1.0835,1.0791,1.289,1.2164,1.1308,1.1589,1.1197,1.093,1.1258,0.9948,0.8976,0.8943,0.7834,0.7085,0.7058,0.693,0.677,0.6532,0.6643,0.7247,0.8498,0.9777,1.1061,1.2402,1.3581,1.4255,1.4442,1.4255,1.4549,1.5324,1.5129,1.5271,1.5784,1.5784,1.5784,1.5784,1.5784,1.5784,1.5784,1.5784,1.5784,1.5784,1.5784,1.5784,1.5784,1.5784,1.5784,1.5784,0.9354,0.9571,0.972,0.9727,0.9917,1.0114,1.0256,1.0466,1.0527,1.031,1.0466,1.0541,1.0385,1.0507,1.048,1.0251,1.0161,1.0066,0.9836,0.9822,0.9686,0.9395,0.9306,0.9022,0.8492,0.8411,0.8262,0.7988,0.7988,0.7988,0.7988,0.7988,0.0,0.0,0.0,0.7988,0.0,0.0,0.7988,0.7988,0.7988,0.7988,0.7988,0.7988,0.7988,0.8088,0.8775,0.9023,0.9122,0.9805,1.0435,1.0937,1.0829,1.0421,0.9862,0.9051,0.8454,0.7988,0.7988,0.7988,0.7988,0.7988,0.7988,0.7988,0.7988,0.9065,1.0386,1.1658,1.2437,1.3317,1.4571,1.3881,1.3278,1.3755,1.3111,1.2614,1.2736,1.0815,0.9357,0.9309,0.7982,0.7098,0.7098,0.7038,0.6903,0.6722,0.6559,0.702,0.8224,0.9494,1.0795,1.2082,1.3703,1.4469,1.4295,1.4616,1.4897,1.5177,1.5177,1.5418,1.5784,1.5784,1.5784,1.5784,1.5784,1.5784,1.5784,1.5784,1.5784,1.5784,1.5784,1.5784,1.5784,1.5784,1.5784,1.5784,0.9774,0.9876,0.9958,1.008,1.0317,1.0493,1.0493,1.0622,1.0636,1.0405,1.0371,1.0317,1.0161,1.0351,1.0371,1.008,1.0053,0.9923,0.9829,0.9822,0.9686,0.9395,0.9323,0.903,0.8492,0.837,0.8221,0.7988,0.7988,0.7988,0.7988,0.7988,0.7988,0.0,0.0,0.7988,0.7988,0.7988,0.7988,0.7988,0.7988,0.7988,0.7988,0.7988,0.7988,0.8137,0.9213,0.9756,1.0002,1.0002,1.1023,1.2249,1.1881,1.1134,1.0262,0.9623,0.8721,0.8038,0.8329,0.8428,0.8428,0.8428,0.8627,0.8676,0.8137,1.0043,1.1901,1.1901,1.398,1.5784,1.5784,1.5404,1.5231,1.5704,1.4899,1.4183,1.4131,1.1724,0.9883,0.9777,0.8184,0.7098,0.7098,0.7098,0.7051,0.6937,0.6695,0.6972,0.7992,0.9421,1.0672,1.1698,1.3778,1.4683,1.4325,1.4963,1.5257,1.515,1.5324,1.5551,1.5784,1.5784,1.5784,1.5784,1.5784,1.5784,1.5784,1.5784,1.5784,1.5784,1.5784,1.5784,1.5784,1.5784,1.5784,1.5784,0.9815,1.0046,1.0243,1.0256,1.0385,1.0493,1.0493,1.0622,1.0711,1.0683,1.0677,1.0622,1.0466,1.0473,1.0371,1.0011,0.9984,0.9923,0.9829,0.9822,0.9686,0.9395,0.9367,0.9083,0.8492,0.8472,0.8323,0.7988,0.7988,0.7988,0.7988,0.7988,0.7988,0.7988,0.7988,0.7988,0.7988,0.7988,0.7988,0.7988,0.7988,0.7988,0.7988,0.7988,0.7988,0.8038,0.8137,0.8973,1.0002,1.0002,1.1648,1.3488,1.2259,1.1833,1.1258,0.8852,0.8074,0.8287,0.946,0.9805,0.9805,0.9805,1.0681,1.0925,0.8528,1.0043,1.1901,1.1901,1.398,1.5784,1.5784,1.5565,1.5458,1.5731,1.5511,1.5325,1.5563,1.3136,1.1308,1.1288,0.8828,0.7098,0.7098,0.7098,0.7092,0.7078,0.6844,0.6723,0.6861,0.8982,1.0305,1.0564,1.3133,1.4669,1.4928,1.5008,1.5257,1.5704,1.5511,1.5551,1.5784,1.5784,1.5784,1.5784,1.5784,1.5784,1.5784,1.5784,1.5784,1.5784,1.5784,1.5784,1.5784,1.5784,1.5784,1.5784,1.0222,1.0256,1.0337,1.0514,1.0514,1.0555,1.0738,1.0738,1.0717,1.0717,1.0717,1.0629,1.0392,1.0365,1.0243,0.9937,0.9849,0.9883,0.9822,0.9822,0.9686,0.9395,0.935,0.9049,0.8628,0.8445,0.8296,0.818,0.818,0.818,0.818,0.818,0.8126,0.7988,0.7988,0.7988,0.7988,0.7988,0.7988,0.7988,0.7988,0.7988,0.7988,0.7988,0.7988,0.8088,0.8924,0.9558,1.01,1.0877,1.1843,1.2619,1.2096,1.1365,1.0534,0.9509,0.9213,0.9312,0.9854,1.0583,1.1121,1.1121,1.1512,1.1609,1.0583,1.1745,1.3102,1.3102,1.4432,1.5618,1.5744,1.5444,1.5284,1.5752,1.5578,1.5498,1.5744,1.3914,1.2518,1.2518,0.9955,0.8193,0.8193,0.7533,0.7098,0.7098,0.691,0.7126,0.7877,0.9446,1.0647,1.1408,1.3628,1.4763,1.4696,1.5217,1.5511,1.5565,1.5631,1.5712,1.5784,1.5784,1.5784,1.5784,1.5784,1.5784,1.5784,1.5784,1.5784,1.5784,1.5784,1.5784,1.5784,1.5784,1.5784,1.5784,1.048,1.0412,1.0426,1.0677,1.0629,1.0629,1.0779,1.0792,1.0704,1.0656,1.0656,1.0561,1.0304,1.0243,1.0107,0.9842,0.9822,0.9822,0.9822,0.9822,0.9686,0.9395,0.9337,0.9062,0.8716,0.8465,0.8368,0.832,0.8221,0.8201,0.8201,0.8201,0.8147,0.7988,0.7988,0.7988,0.7988,0.7988,0.7988,0.7988,0.7988,0.7988,0.7988,0.7988,0.7988,0.8137,0.9065,0.941,0.9558,1.0435,1.1023,1.1365,1.1365,1.073,0.9903,0.9509,0.9706,1.01,1.0435,1.1502,1.2474,1.2474,1.2764,1.2872,1.2096,1.3247,1.4459,1.4459,1.5034,1.5591,1.5792,1.5431,1.5217,1.5631,1.5524,1.5444,1.5565,1.4185,1.3188,1.3105,1.0892,0.941,0.941,0.8623,0.8009,0.7665,0.7867,0.8228,0.8734,0.9865,1.1079,1.2265,1.4128,1.499,1.4776,1.5425,1.5678,1.5524,1.5725,1.5784,1.5784,1.5784,1.5784,1.5784,1.5784,1.5784,1.5784,1.5784,1.5784,1.5784,1.5784,1.5784,1.5784,1.5784,1.5838,1.5965,1.0466,1.0487,1.0534,1.0697,1.0717,1.0717,1.0724,1.0724,1.0663,1.0514,1.0493,1.0439,1.0297,1.0141,0.993,0.9836,0.9822,0.9822,0.9822,0.9822,0.9686,0.9395,0.9381,0.9171,0.8723,0.856,0.8411,0.832,0.8119,0.7995,0.7995,0.7995,0.7988,0.7988,0.7988,0.7988,0.7988,0.7988,0.7988,0.7988,0.7988,0.7988,0.7988,0.7988,0.7988,0.7988,0.8038,0.8038,0.8038,0.8038,0.8924,0.9993,0.9993,1.0002,0.9756,0.8435,0.8973,1.0288,1.156,1.2861,1.3872,1.3872,1.4806,1.5092,1.2474,1.3932,1.5784,1.5784,1.5784,1.5784,1.5784,1.5591,1.5391,1.5404,1.5404,1.5297,1.5062,1.396,1.3117,1.2845,1.1489,1.0572,1.0572,1.0562,1.0096,0.8973,0.9923,1.0086,0.8973,1.0086,1.1392,1.2742,1.4469,1.5391,1.5391,1.5685,1.5784,1.5784,1.5784,1.5784,1.5784,1.5784,1.5784,1.5784,1.5784,1.5784,1.5784,1.5784,1.5784,1.5784,1.5784,1.5784,1.5784,1.5784,1.6019,1.6273,1.0636,1.0649,1.0663,1.0711,1.0717,1.0717,1.0717,1.0717,1.0663,1.0514,1.0405,1.0331,1.0283,1.0141,0.997,0.9916,0.9883,0.9822,0.9822,0.9822,0.9686,0.9395,0.9381,0.9218,0.8817,0.8615,0.8459,0.8418,0.8269,0.8201,0.8201,0.8201,0.814,0.7988,0.7988,0.7988,0.7988,0.7988,0.7988,0.7988,0.7988,0.7988,0.7988,0.7988,0.7988,0.7988,0.7988,0.7988,0.8137,0.9072,0.9023,0.8775,0.9706,1.0002,0.9756,0.8379,0.9558,1.1365,1.1804,1.3499,1.5188,1.5188,1.5486,1.5581,1.4758,1.5201,1.5784,1.5784,1.5784,1.5784,1.5784,1.5591,1.5391,1.5391,1.5231,1.5115,1.5022,1.4466,1.4045,1.3986,1.2671,1.1766,1.1766,1.1037,1.0433,1.0096,0.9662,0.9726,1.0386,1.1542,1.2797,1.4257,1.5008,1.5391,1.5391,1.5685,1.5784,1.5784,1.5784,1.5784,1.5784,1.5784,1.5784,1.5784,1.5784,1.5784,1.5784,1.5784,1.5784,1.5784,1.5784,1.5784,1.5784,1.5784,1.6019,1.6321,1.0717,1.0717,1.0717,1.0717,1.0717,1.0717,1.0717,1.0717,1.0643,1.0439,1.0337,1.0283,1.0283,1.0093,0.9923,0.9984,0.9849,0.9822,0.9822,0.9822,0.9686,0.9395,0.9381,0.9245,0.8892,0.8696,0.8567,0.8567,0.837,0.8241,0.818,0.818,0.8133,0.7988,0.7988,0.7988,0.7988,0.7988,0.7988,0.7988,0.7988,0.7988,0.7988,0.7988,0.7988,0.7988,0.7988,0.8336,0.8825,0.9122,0.9361,0.946,0.9312,0.9608,0.9854,0.9023,1.0239,1.1999,1.2522,1.4172,1.5784,1.5784,1.5784,1.5784,1.5784,1.5784,1.5784,1.5784,1.5784,1.5784,1.5784,1.5591,1.5364,1.5257,1.5129,1.4928,1.4713,1.4576,1.4482,1.4376,1.3523,1.2984,1.2984,1.2345,1.1735,1.1252,1.1004,1.1151,1.1869,1.2148,1.3171,1.5065,1.5404,1.5565,1.5565,1.5738,1.5784,1.5784,1.5784,1.5784,1.5784,1.5784,1.5784,1.5784,1.5784,1.5784,1.5784,1.5784,1.5784,1.5784,1.5784,1.5784,1.5784,1.5784,1.6019,1.6321,1.0717,1.0717,1.0717,1.0717,1.0717,1.0717,1.0717,1.0717,1.0616,1.0331,1.0283,1.0283,1.0283,1.0005,0.9883,0.997,0.9849,0.9822,0.9822,0.9822,0.9686,0.9395,0.9381,0.9245,0.8892,0.8791,0.8703,0.8696,0.8411,0.8194,0.8008,0.7995,0.7988,0.7988,0.7988,0.7988,0.7988,0.7988,0.7988,0.7988,0.7988,0.7988,0.7988,0.7988,0.7988,0.7988,0.7988,0.8825,0.9706,0.8528,0.9756,1.1365,0.8924,0.9023,1.0002,1.0002,1.0925,1.2183,1.3536,1.4854,1.5784,1.5784,1.5784,1.5784,1.5784,1.5784,1.5784,1.5784,1.5784,1.5784,1.5784,1.5605,1.5324,1.5062,1.5008,1.4807,1.4175,1.4322,1.4402,1.4148,1.4122,1.4122,1.4148,1.4148,1.3698,1.2552,1.3442,1.3827,1.3393,1.2266,1.2791,1.5371,1.5685,1.5784,1.5784,1.5784,1.5784,1.5784,1.5784,1.5784,1.5784,1.5784,1.5784,1.5784,1.5784,1.5784,1.5784,1.5784,1.5784,1.5784,1.5784,1.5784,1.5784,1.5784,1.6032,1.6348,1.0717,1.0717,1.0717,1.0717,1.0717,1.0717,1.0717,1.0717,1.0656,1.0466,1.0344,1.0283,1.0283,1.0005,0.9883,0.997,0.9849,0.9822,0.9822,0.9822,0.9686,0.9395,0.9381,0.9245,0.8892,0.8791,0.8655,0.8533,0.8357,0.8248,0.8214,0.8092,0.7988,0.7988,0.7988,0.7988,0.7988,0.7988,0.7988,0.7988,0.7988,0.7988,0.7988,0.7988,0.7988,0.7988,0.7988,0.8187,0.8577,0.9262,0.9953,1.0337,0.9706,0.9756,1.0002,1.0002,1.0925,1.2183,1.3536,1.4854,1.5784,1.5784,1.5784,1.5784,1.5784,1.5784,1.5784,1.5784,1.5784,1.5784,1.5784,1.5765,1.5565,1.5089,1.5008,1.4807,1.4175,1.4148,1.4242,1.4402,1.4416,1.4509,1.478,1.4794,1.4661,1.4382,1.3748,1.3853,1.4845,1.3785,1.3952,1.5664,1.5792,1.5784,1.5784,1.5784,1.5784,1.5784,1.5784,1.5784,1.5784,1.5784,1.5784,1.5784,1.5784,1.5784,1.5784,1.5784,1.5784,1.5784,1.5784,1.5784,1.5784,1.5784,1.6152,1.6567,1.0717,1.0717,1.0717,1.0717,1.0717,1.0717,1.0717,1.0717,1.0663,1.0514,1.0426,1.0351,1.029,1.0066,0.9896,0.9977,0.9849,0.9822,0.9822,0.9822,0.9686,0.9395,0.9381,0.9245,0.8892,0.8804,0.8743,0.8587,0.8513,0.8438,0.8364,0.8214,0.8147,0.814,0.8022,0.7988,0.7988,0.7988,0.7988,0.7988,0.7988,0.7988,0.7988,0.7988,0.7988,0.7988,0.7988,0.8379,0.8924,0.9072,0.9895,1.0681,0.946,0.9509,1.0092,1.0681,1.1365,1.2339,1.4268,1.5296,1.5784,1.5784,1.5784,1.5784,1.5784,1.5784,1.5784,1.5784,1.5784,1.5784,1.5784,1.5784,1.5631,1.5102,1.5008,1.4847,1.4349,1.4282,1.4389,1.4683,1.4723,1.479,1.4995,1.5008,1.5008,1.5008,1.4411,1.4436,1.5331,1.4823,1.4859,1.5771,1.5784,1.5784,1.5784,1.5784,1.5784,1.5784,1.5784,1.5784,1.5784,1.5784,1.5784,1.5784,1.5784,1.5784,1.5784,1.5784,1.5784,1.5784,1.5784,1.5784,1.5784,1.5784,1.6112,1.6486,1.0717,1.0717,1.0717,1.0717,1.0717,1.0717,1.0717,1.0717,1.067,1.0541,1.0507,1.0439,1.0297,1.0141,0.9977,0.9957,0.9897,0.9822,0.9822,0.9822,0.9686,0.9395,0.9381,0.9245,0.8892,0.8885,0.8817,0.8743,0.8723,0.8642,0.8513,0.837,0.8354,0.8347,0.8167,0.8042,0.8022,0.8022,0.8008,0.7988,0.7988,0.7988,0.7988,0.7988,0.7988,0.7988,0.7988,0.8726,0.9509,0.8379,0.9608,1.117,0.8775,0.8924,1.0239,1.1512,1.1755,1.2231,1.5045,1.5784,1.5784,1.5784,1.5784,1.5784,1.5784,1.5784,1.5784,1.5784,1.5784,1.5784,1.5784,1.5784,1.5631,1.5102,1.5048,1.491,1.4563,1.4563,1.4696,1.5035,1.5075,1.5089,1.5142,1.5142,1.5142,1.5142,1.5142,1.5204,1.5444,1.5458,1.5578,1.5771,1.5784,1.5784,1.5784,1.5784,1.5784,1.5784,1.5784,1.5784,1.5784,1.5784,1.5784,1.5784,1.5784,1.5784,1.5784,1.5784,1.5784,1.5784,1.5784,1.5784,1.5832,1.5885,1.6086,1.6388,1.0717,1.0717,1.0717,1.0717,1.0717,1.0717,1.0717,1.0717,1.0711,1.069,1.0575,1.0439,1.0297,1.0141,0.9936,0.9869,0.9836,0.9822,0.9822,0.9822,0.9686,0.9395,0.9381,0.9245,0.8892,0.8885,0.8871,0.8851,0.8771,0.8696,0.8669,0.852,0.8452,0.8452,0.8425,0.8343,0.8235,0.8235,0.816,0.7988,0.7988,0.7988,0.7988,0.7988,0.7988,0.7988,0.7988,0.8137,0.8287,0.8088,0.9015,1.0051,0.8478,0.8924,1.0239,1.1512,1.1121,1.1121,1.4806,1.5784,1.5784,1.5784,1.5784,1.5784,1.5784,1.5784,1.5784,1.5784,1.5784,1.5784,1.5784,1.5784,1.5631,1.5102,1.5164,1.5137,1.4603,1.4736,1.5048,1.5297,1.5324,1.5431,1.5671,1.5698,1.5698,1.5698,1.5698,1.5712,1.5765,1.5765,1.5778,1.5784,1.5784,1.5784,1.5784,1.5784,1.5784,1.5784,1.5784,1.5784,1.5784,1.5784,1.5784,1.5784,1.5784,1.5784,1.5784,1.5784,1.5784,1.5784,1.5784,1.5784,1.5811,1.6112,1.6393,1.6783,1.0717,1.0717,1.0717,1.0717,1.0717,1.0717,1.0717,1.0717,1.0717,1.0717,1.0656,1.0561,1.0412,1.0263,1.0114,0.9896,0.9869,0.9822,0.9822,0.9822,0.9686,0.9395,0.9381,0.9245,0.8892,0.8885,0.8885,0.8885,0.8811,0.8832,0.8832,0.8676,0.8608,0.8601,0.852,0.8404,0.832,0.832,0.818,0.7988,0.7988,0.7988,0.7988,0.7988,0.7988,0.7988,0.7988,0.7988,0.7988,0.7988,0.8874,0.9756,0.8428,0.8924,1.01,1.0681,1.194,1.3343,1.4459,1.5296,1.5784,1.5784,1.5784,1.5784,1.5784,1.5784,1.5784,1.5784,1.5784,1.5784,1.5784,1.5784,1.5698,1.5271,1.5311,1.5297,1.503,1.511,1.5297,1.5591,1.5631,1.5685,1.5771,1.5784,1.5784,1.5784,1.5784,1.5784,1.5784,1.5784,1.5784,1.5784,1.5784,1.5784,1.5784,1.5784,1.5784,1.5784,1.5784,1.5784,1.5784,1.5784,1.5784,1.5784,1.5784,1.5784,1.5784,1.5784,1.5784,1.5784,1.5784,1.5784,1.5798,1.5979,1.6801,1.7853,1.0717,1.0717,1.0717,1.0717,1.0717,1.0717,1.0717,1.0717,1.0717,1.0717,1.0717,1.0663,1.0507,1.0365,1.0215,1.0004,0.9849,0.9822,0.9822,0.9822,0.9707,0.9449,0.9367,0.9205,0.8892,0.8885,0.8885,0.8885,0.8885,0.8885,0.8885,0.8818,0.8764,0.8757,0.8642,0.8506,0.837,0.8388,0.8228,0.8092,0.8002,0.7988,0.7988,0.7988,0.7988,0.7988,0.7988,0.7988,0.7988,0.7988,0.8676,0.9361,0.8336,0.8726,0.9608,0.9903,1.2328,1.4758,1.4076,1.4603,1.5439,1.5737,1.5885,1.5939,1.5939,1.5979,1.6032,1.6032,1.5979,1.5939,1.5939,1.5824,1.5691,1.5444,1.5458,1.5471,1.5404,1.5458,1.5578,1.5758,1.5784,1.5784,1.5784,1.5784,1.5784,1.5784,1.5784,1.5784,1.5784,1.5784,1.5784,1.5784,1.5784,1.5784,1.5784,1.5784,1.5784,1.5784,1.5784,1.5784,1.5784,1.5784,1.5784,1.5784,1.5784,1.5784,1.5784,1.5784,1.5784,1.5784,1.5784,1.5784,1.5798,1.5979,1.6933,1.8247,1.0717,1.0717,1.0717,1.0717,1.0717,1.0717,1.0717,1.0717,1.0717,1.0717,1.0717,1.0663,1.0507,1.0365,1.0215,1.0004,0.9849,0.9822,0.9822,0.9822,0.9754,0.9598,0.932,0.9096,0.8885,0.8885,0.8885,0.8885,0.8885,0.8885,0.8885,0.8871,0.8865,0.8865,0.8858,0.8818,0.8669,0.8526,0.8384,0.8241,0.8099,0.7988,0.7988,0.7988,0.7988,0.7988,0.7988,0.7988,0.7988,0.7988,0.8088,0.8137,0.8038,0.8088,0.8379,0.9657,1.1023,1.2425,1.3584,1.3968,1.4316,1.5486,1.6032,1.6246,1.6246,1.6446,1.6633,1.6633,1.6433,1.6246,1.6246,1.6019,1.5691,1.5444,1.5618,1.5698,1.5431,1.5631,1.5758,1.5784,1.5784,1.5784,1.5784,1.5784,1.5784,1.5784,1.5784,1.5784,1.5784,1.5784,1.5784,1.5784,1.5784,1.5784,1.5784,1.5784,1.5784,1.5784,1.5784,1.5784,1.5784,1.5784,1.5784,1.5784,1.5784,1.5784,1.5784,1.5784,1.5784,1.5784,1.5784,1.5784,1.5851,1.6433,1.671,1.7118,1.0717,1.0717,1.0717,1.0717,1.0717,1.0717,1.0717,1.0717,1.0717,1.0717,1.0717,1.0697,1.0636,1.0426,1.0256,1.0202,0.9964,0.9822,0.9822,0.9822,0.9754,0.9618,0.9313,0.9228,0.9211,0.9035,0.8981,0.9069,0.8981,0.8885,0.8885,0.8885,0.8885,0.8885,0.8885,0.8797,0.8703,0.8547,0.8397,0.8306,0.8099,0.7988,0.7988,0.7988,0.7988,0.7988,0.7988,0.7988,0.7988,0.7988,0.7988,0.8008,0.8153,0.818,0.8302,0.8896,0.943,1.0086,1.1387,1.2293,1.3177,1.4509,1.5011,1.542,1.6341,1.662,1.67,1.67,1.662,1.6486,1.6348,1.6179,1.6005,1.5712,1.5704,1.5744,1.5685,1.5765,1.5784,1.5784,1.5784,1.5784,1.5784,1.5784,1.5784,1.5784,1.5784,1.5784,1.5784,1.5784,1.5784,1.5784,1.5784,1.5784,1.5784,1.5784,1.5784,1.5784,1.5784,1.5784,1.5784,1.5784,1.5784,1.5784,1.5784,1.5784,1.5784,1.5784,1.5784,1.5784,1.5784,1.5784,1.5811,1.6086,1.6918,1.803,1.0717,1.0717,1.0717,1.0717,1.0717,1.0717,1.0717,1.0717,1.0717,1.0717,1.0717,1.0704,1.0656,1.0426,1.0263,1.0215,0.9971,0.9822,0.9822,0.9822,0.9754,0.9618,0.9408,0.932,0.9381,0.9137,0.9055,0.9207,0.9008,0.8885,0.8885,0.8885,0.8885,0.8885,0.8885,0.8824,0.8771,0.8621,0.8499,0.8397,0.8241,0.818,0.8174,0.8126,0.814,0.8174,0.8126,0.814,0.818,0.818,0.818,0.8194,0.8303,0.8336,0.8357,0.8452,0.8479,0.8689,0.9563,1.0441,1.1652,1.3852,1.4527,1.5032,1.6531,1.6914,1.6981,1.6981,1.6914,1.678,1.6643,1.6522,1.6339,1.6139,1.6032,1.5965,1.5965,1.5885,1.5784,1.5784,1.5784,1.5784,1.5784,1.5784,1.5784,1.5784,1.5784,1.5784,1.5784,1.5784,1.5784,1.5784,1.5784,1.5784,1.5784,1.5784,1.5784,1.5784,1.5784,1.5784,1.5784,1.5784,1.5784,1.5784,1.5784,1.5784,1.5784,1.5784,1.5784,1.5798,1.5939,1.5965,1.5992,1.6179,1.7078,1.8195,1.0717,1.0717,1.0717,1.0717,1.0717,1.0717,1.0717,1.0717,1.0717,1.0717,1.0717,1.0663,1.0507,1.0365,1.0215,1.0004,0.9849,0.9822,0.9822,0.9822,0.9754,0.9618,0.9612,0.9537,0.9388,0.9289,0.9207,0.9214,0.9008,0.8885,0.8885,0.8885,0.8885,0.8885,0.8885,0.8885,0.8871,0.8777,0.871,0.8696,0.8547,0.8479,0.8465,0.8374,0.8364,0.8465,0.8323,0.8364,0.8479,0.8479,0.8479,0.8479,0.8486,0.8486,0.8486,0.8486,0.8486,0.8486,0.8486,0.8594,0.9625,1.3594,1.4796,1.5359,1.6884,1.7434,1.7582,1.7582,1.7407,1.7206,1.7206,1.6914,1.6714,1.67,1.646,1.6273,1.6273,1.6019,1.5784,1.5784,1.5784,1.5784,1.5784,1.5784,1.5784,1.5784,1.5784,1.5784,1.5784,1.5784,1.5784,1.5784,1.5784,1.5784,1.5784,1.5784,1.5784,1.5784,1.5784,1.5784,1.5784,1.5784,1.5784,1.5784,1.5784,1.5784,1.5784,1.5784,1.5784,1.5858,1.6152,1.6321,1.6402,1.6978,1.7192,1.7246,1.0717,1.0717,1.0717,1.0717,1.0717,1.0717,1.0717,1.0717,1.0717,1.0717,1.0629,1.0541,1.0493,1.027,1.01,0.999,0.9849,0.9822,0.9822,0.9822,0.9802,0.9761,0.9659,0.9632,0.9686,0.934,0.9262,0.9313,0.9062,0.8885,0.8885,0.8885,0.8885,0.8885,0.8885,0.8885,0.8871,0.8777,0.871,0.8696,0.8547,0.8479,0.8479,0.8431,0.8445,0.8479,0.8431,0.8445,0.8479,0.8479,0.8479,0.8499,0.8608,0.8716,0.8804,0.8804,0.8804,0.8804,0.8804,0.8832,0.9588,1.2723,1.3636,1.4445,1.6911,1.7515,1.7582,1.7582,1.7515,1.7447,1.7233,1.7125,1.6954,1.674,1.6633,1.658,1.658,1.65,1.6366,1.6166,1.6139,1.6059,1.5798,1.5784,1.5784,1.5784,1.5784,1.5784,1.5784,1.5784,1.5784,1.5784,1.5784,1.5784,1.5784,1.5784,1.5784,1.5784,1.5784,1.5784,1.5784,1.5784,1.5784,1.5784,1.5784,1.5784,1.5784,1.5784,1.5952,1.6152,1.6246,1.6393,1.6593,1.6767,1.7018,1.7206,1.0717,1.0717,1.0717,1.0717,1.0717,1.0717,1.0717,1.0717,1.0717,1.0717,1.0636,1.0534,1.0419,1.0297,1.0092,0.9909,0.9876,0.9822,0.9822,0.9822,0.9822,0.9822,0.9741,0.9734,0.9822,0.9503,0.9381,0.9469,0.9171,0.9022,0.9022,0.8912,0.8885,0.8885,0.8994,0.9022,0.9022,0.8988,0.894,0.8879,0.8784,0.871,0.8655,0.8594,0.8648,0.8784,0.8615,0.8689,0.8818,0.8703,0.8662,0.8676,0.8771,0.8811,0.8892,0.9008,0.9022,0.9035,0.9096,0.956,1.0588,1.2811,1.341,1.4212,1.7103,1.7769,1.7729,1.7609,1.7582,1.7528,1.7407,1.7367,1.7313,1.7088,1.6954,1.6874,1.6874,1.678,1.6593,1.6313,1.638,1.6326,1.6032,1.6005,1.5952,1.5784,1.5784,1.5784,1.5784,1.5784,1.5784,1.5784,1.5784,1.5784,1.5784,1.5784,1.5784,1.5784,1.5784,1.5784,1.5784,1.5784,1.5784,1.5784,1.5784,1.5899,1.5992,1.5824,1.6072,1.6446,1.6446,1.662,1.6901,1.7007,1.7168,1.7367,1.0717,1.0717,1.0717,1.0717,1.0717,1.0717,1.0717,1.0717,1.0717,1.0717,1.0711,1.0595,1.0331,1.0405,1.031,0.9897,0.9863,0.9856,0.9842,0.9842,0.9836,0.9822,0.9822,0.9822,0.9822,0.968,0.9612,0.9612,0.9313,0.9228,0.9228,0.9042,0.8925,0.8932,0.9117,0.9228,0.9241,0.932,0.9357,0.9228,0.9228,0.9096,0.8905,0.8825,0.894,0.9193,0.8866,0.9035,0.934,0.9069,0.8925,0.8925,0.8925,0.8925,0.9001,0.9193,0.9228,0.9262,0.934,1.0582,1.2126,1.3621,1.3969,1.4701,1.7425,1.8009,1.7916,1.7689,1.7595,1.7582,1.7582,1.7582,1.7582,1.7582,1.742,1.7246,1.7246,1.6954,1.6673,1.638,1.658,1.6633,1.6339,1.6286,1.6166,1.5878,1.5811,1.5798,1.5824,1.5798,1.5784,1.5784,1.5784,1.5784,1.5784,1.5784,1.5784,1.5784,1.5784,1.5784,1.5784,1.5784,1.5784,1.5784,1.5811,1.6019,1.6308,1.6005,1.6233,1.674,1.674,1.6927,1.7273,1.7488,1.7582,1.7582,1.0717,1.0717,1.0717,1.0717,1.0717,1.0717,1.0717,1.0717,1.0717,1.0717,1.0616,1.0514,1.0453,1.0371,1.029,1.0188,1.0181,1.0127,0.9943,0.9936,0.9883,0.9829,0.9822,0.9822,0.9822,0.968,0.9612,0.9612,0.9422,0.9334,0.9334,0.93,0.9286,0.9286,0.932,0.9334,0.9334,0.9367,0.9361,0.9334,0.9334,0.9313,0.9279,0.9245,0.9273,0.932,0.9259,0.93,0.9367,0.9306,0.9286,0.9286,0.9286,0.9286,0.9293,0.932,0.9334,0.934,0.9374,1.0582,1.2219,1.3866,1.5189,1.6464,1.8037,1.821,1.7969,1.7902,1.7756,1.7582,1.7582,1.7582,1.7582,1.7582,1.7528,1.7488,1.7488,1.7435,1.7288,1.7045,1.7072,1.6991,1.6647,1.6406,1.6339,1.65,1.6086,1.5925,1.6166,1.5952,1.5784,1.5784,1.5784,1.5784,1.5784,1.5784,1.5784,1.5784,1.5784,1.5784,1.5784,1.5784,1.5784,1.5798,1.6072,1.6219,1.6286,1.6446,1.6727,1.7099,1.7099,1.7286,1.7502,1.7555,1.7582,1.7582,1.0717,1.0717,1.0717,1.0717,1.0717,1.0717,1.0717,1.0717,1.0717,1.0717,1.0649,1.0575,1.05,1.0493,1.046,1.0385,1.0181,1.0059,0.9984,0.9916,0.9842,0.9822,0.9822,0.9822,0.9822,0.9747,0.9707,0.9707,0.9564,0.949,0.949,0.9415,0.9381,0.9388,0.9456,0.949,0.9496,0.9564,0.9551,0.949,0.949,0.9449,0.9381,0.9381,0.9429,0.9483,0.9408,0.9381,0.9395,0.9462,0.9442,0.9381,0.9381,0.9381,0.9395,0.9469,0.949,0.9679,1.0509,1.193,1.3528,1.5216,1.682,1.811,1.8589,1.8584,1.8368,1.829,1.813,1.8009,1.8009,1.7903,1.7809,1.7809,1.7675,1.7582,1.7582,1.7582,1.7475,1.7233,1.7326,1.73,1.6941,1.6831,1.67,1.67,1.642,1.6313,1.6473,1.6326,1.6246,1.6246,1.6246,1.6246,1.6246,1.6246,1.6246,1.6246,1.6112,1.6046,1.6046,1.6179,1.6246,1.6259,1.6406,1.6553,1.6737,1.67,1.6967,1.7393,1.7259,1.738,1.7582,1.7582,1.7582,1.7582,1.0717,1.0717,1.0717,1.0717,1.0717,1.0717,1.0717,1.0717,1.0717,1.0717,1.0717,1.067,1.0548,1.0643,1.067,1.0541,1.0188,1.0019,1.0058,1.0005,0.9924,0.9903,0.9876,0.9863,0.9863,0.9836,0.9822,0.9822,0.97,0.9646,0.9646,0.9517,0.9456,0.9462,0.9591,0.9646,0.9652,0.9774,0.9754,0.9646,0.9646,0.9571,0.9456,0.9456,0.9537,0.9632,0.9503,0.9456,0.9476,0.9605,0.9557,0.9456,0.9456,0.9456,0.9483,0.9605,0.9646,1.0025,1.1755,1.3347,1.5015,1.6609,1.8227,1.9305,1.9052,1.8958,1.8851,1.8611,1.8531,1.849,1.849,1.829,1.8075,1.8075,1.7862,1.7662,1.7662,1.7609,1.7541,1.73,1.7435,1.7488,1.73,1.7233,1.7112,1.6874,1.6767,1.6727,1.678,1.6727,1.67,1.67,1.67,1.67,1.67,1.67,1.67,1.67,1.6513,1.6393,1.6353,1.6593,1.67,1.6714,1.6767,1.6914,1.7192,1.6941,1.7141,1.7555,1.7367,1.742,1.7582,1.7582,1.7582,1.7582,1.0717,1.0717,1.0717,1.0717,1.0717,1.0717,1.0717,1.0717,1.0717,1.0717,1.0717,1.0711,1.069,1.0711,1.0711,1.069,1.0636,1.0548,1.0439,1.0412,1.0344,1.0222,1.0093,0.9957,0.9957,0.989,0.9822,0.9822,0.9802,0.9795,0.9795,0.9774,0.9761,0.9761,0.9781,0.9795,0.9795,0.9815,0.9808,0.9795,0.9795,0.9781,0.9761,0.9761,0.9774,0.9788,0.9768,0.9761,0.9768,0.9788,0.9781,0.9761,0.9761,0.9761,0.9768,0.9788,0.9795,1.0158,1.1727,1.3347,1.5015,1.6609,1.8227,1.9417,1.9319,1.9105,1.8918,1.8878,1.8664,1.849,1.849,1.8464,1.8437,1.8437,1.8183,1.7929,1.7929,1.7756,1.7569,1.7528,1.7555,1.7569,1.7528,1.7353,1.7286,1.7448,1.6994,1.682,1.7125,1.6847,1.67,1.67,1.67,1.67,1.67,1.67,1.67,1.6714,1.6978,1.6951,1.6647,1.6687,1.67,1.6727,1.7032,1.7166,1.7219,1.7382,1.7515,1.7582,1.7542,1.7542,1.7582,1.7582,1.7582,1.7582,1.0717,1.0717,1.0717,1.0717,1.0717,1.0717,1.0717,1.0717,1.0717,1.0717,1.0717,1.0717,1.0717,1.0643,1.0595,1.0595,1.0521,1.048,1.0493,1.0419,1.0344,1.0283,1.0215,1.0181,1.0181,1.0114,1.0032,0.9889,0.9863,0.9822,0.9822,0.9822,0.9822,0.9822,0.9822,0.9822,0.9822,0.9822,0.9822,0.9822,0.9822,0.9822,0.9822,0.9822,0.9822,0.9822,0.9822,0.9822,0.9822,0.9822,0.9822,0.9822,0.9822,0.9822,0.9822,0.9822,0.9822,1.0361,1.2868,1.4063,1.5192,1.7689,1.8881,1.943,1.943,1.9265,1.9172,1.9172,1.9065,1.8985,1.8985,1.8838,1.8731,1.8731,1.8288,1.7995,1.7995,1.7782,1.7582,1.7582,1.7582,1.7582,1.7582,1.7462,1.7448,1.7569,1.7341,1.7248,1.7434,1.7261,1.7194,1.7194,1.7194,1.7194,1.7194,1.7194,1.7194,1.7194,1.7328,1.7286,1.6954,1.7128,1.7194,1.7208,1.7341,1.7447,1.7447,1.7528,1.7582,1.7582,1.7582,1.7582,1.7582,1.7582,1.7582,1.7582]}]]